Wetterdaten: Sonntag, 20.10.2019
Datum Zeit Temp. A. Pool Temp. Temp. 5cm Feuchte A. Luftdruck Regen Wind Richtung Richtung Sonnenschein ET UV Solar Taupunkt Windchill Windben Empfang
20.10.2019 00:00 10,5 C 10,6 C 10,6 C 96 % 1011,5 hPa 0,0 l/m 11,8 km/h (2 Bft) O 94 0 min 0,000 mm 0,0 UV-I 0 W/m 9,9 C 7,2 C 16,1 km/h (3 Bft) 94,74 %
20.10.2019 00:02 10,5 C 10,6 C 10,6 C 96 % 1011,6 hPa 0,0 l/m 9,7 km/h (2 Bft) O 96 0 min 0,000 mm 0,0 UV-I 0 W/m 9,9 C 8,3 C 11,3 km/h (2 Bft) 100,00 %
20.10.2019 00:04 10,5 C 10,6 C 10,6 C 96 % 1011,5 hPa 0,0 l/m 9,7 km/h (2 Bft) O 96 0 min 0,000 mm 0,0 UV-I 0 W/m 9,9 C 8,3 C 9,7 km/h (2 Bft) 97,87 %
20.10.2019 00:06 10,4 C 10,6 C 10,6 C 96 % 1011,5 hPa 0,0 l/m 8,4 km/h (2 Bft) O-SO 106 0 min 0,000 mm 0,0 UV-I 0 W/m 9,8 C 9,0 C 12,9 km/h (3 Bft) 96,23 %
20.10.2019 00:08 10,5 C 10,6 C 10,6 C 96 % 1011,5 hPa 0,0 l/m 8,0 km/h (2 Bft) O-NO 73 0 min 0,000 mm 0,0 UV-I 0 W/m 9,9 C 9,4 C 12,9 km/h (3 Bft) 100,00 %
20.10.2019 00:10 10,5 C 10,6 C 10,6 C 96 % 1011,4 hPa 0,0 l/m 7,2 km/h (2 Bft) O-NO 78 0 min 0,000 mm 0,0 UV-I 0 W/m 9,9 C 9,9 C 12,9 km/h (3 Bft) 100,00 %
20.10.2019 00:12 10,5 C 10,6 C 10,6 C 96 % 1011,4 hPa 0,0 l/m 7,2 km/h (2 Bft) O-NO 76 0 min 0,000 mm 0,0 UV-I 0 W/m 9,9 C 9,9 C 11,3 km/h (2 Bft) 100,00 %
20.10.2019 00:14 10,5 C 10,6 C 10,6 C 96 % 1011,4 hPa 0,0 l/m 8,2 km/h (2 Bft) O-NO 63 0 min 0,000 mm 0,0 UV-I 0 W/m 9,9 C 9,2 C 14,5 km/h (3 Bft) 97,56 %
20.10.2019 00:16 10,4 C 10,6 C 10,6 C 96 % 1011,4 hPa 0,0 l/m 10,2 km/h (2 Bft) O-NO 73 0 min 0,000 mm 0,0 UV-I 0 W/m 9,8 C 7,9 C 14,5 km/h (3 Bft) 100,00 %
20.10.2019 00:18 10,4 C 10,6 C 10,6 C 96 % 1011,4 hPa 0,0 l/m 12,9 km/h (3 Bft) O 90 0 min 0,000 mm 0,0 UV-I 0 W/m 9,8 C 6,5 C 19,3 km/h (3 Bft) 100,00 %
20.10.2019 00:20 10,4 C 10,6 C 10,6 C 96 % 1011,4 hPa 0,0 l/m 13,6 km/h (3 Bft) O 81 0 min 0,000 mm 0,0 UV-I 0 W/m 9,8 C 6,2 C 20,9 km/h (4 Bft) 97,56 %
20.10.2019 00:22 10,4 C 10,6 C 10,6 C 96 % 1011,4 hPa 0,0 l/m 13,0 km/h (3 Bft) O 97 0 min 0,000 mm 0,0 UV-I 0 W/m 9,8 C 6,5 C 17,7 km/h (3 Bft) 100,00 %
20.10.2019 00:24 10,4 C 10,6 C 10,6 C 96 % 1011,4 hPa 0,0 l/m 14,0 km/h (3 Bft) O-NO 71 0 min 0,000 mm 0,0 UV-I 0 W/m 9,8 C 6,0 C 17,7 km/h (3 Bft) 98,11 %
20.10.2019 00:26 10,3 C 10,6 C 10,6 C 96 % 1011,4 hPa 0,0 l/m 12,5 km/h (3 Bft) O-SO 104 0 min 0,000 mm 0,0 UV-I 0 W/m 9,7 C 6,6 C 17,7 km/h (3 Bft) 98,00 %
20.10.2019 00:28 10,4 C 10,6 C 10,6 C 96 % 1011,4 hPa 0,0 l/m 12,9 km/h (3 Bft) O-NO 64 0 min 0,000 mm 0,0 UV-I 0 W/m 9,8 C 6,5 C 17,7 km/h (3 Bft) 97,87 %
20.10.2019 00:30 10,3 C 10,6 C 10,6 C 96 % 1011,3 hPa 0,0 l/m 14,9 km/h (3 Bft) O-NO 76 0 min 0,000 mm 0,0 UV-I 0 W/m 9,7 C 5,5 C 17,7 km/h (3 Bft) 97,56 %
20.10.2019 00:32 10,3 C 10,6 C 10,6 C 96 % 1011,3 hPa 0,0 l/m 11,8 km/h (2 Bft) O-NO 58 0 min 0,000 mm 0,0 UV-I 0 W/m 9,7 C 7,0 C 16,1 km/h (3 Bft) 98,00 %
20.10.2019 00:34 10,3 C 10,6 C 10,6 C 96 % 1011,3 hPa 0,0 l/m 10,6 km/h (2 Bft) O-NO 59 0 min 0,000 mm 0,0 UV-I 0 W/m 9,7 C 7,6 C 14,5 km/h (3 Bft) 96,23 %
20.10.2019 00:36 10,3 C 10,6 C 10,6 C 96 % 1011,3 hPa 0,0 l/m 11,5 km/h (2 Bft) O 84 0 min 0,000 mm 0,0 UV-I 0 W/m 9,7 C 7,1 C 14,5 km/h (3 Bft) 100,00 %
20.10.2019 00:38 10,3 C 10,6 C 10,6 C 96 % 1011,3 hPa 0,0 l/m 9,6 km/h (2 Bft) O 79 0 min 0,000 mm 0,0 UV-I 0 W/m 9,7 C 8,2 C 14,5 km/h (3 Bft) 96,00 %
20.10.2019 00:40 10,3 C 10,6 C 10,6 C 96 % 1011,3 hPa 0,0 l/m 7,6 km/h (2 Bft) O 85 0 min 0,000 mm 0,0 UV-I 0 W/m 9,7 C 9,4 C 12,9 km/h (3 Bft) 95,83 %
20.10.2019 00:42 10,3 C 10,6 C 10,6 C 96 % 1011,4 hPa 0,0 l/m 7,6 km/h (2 Bft) O-NO 63 0 min 0,000 mm 0,0 UV-I 0 W/m 9,7 C 9,4 C 12,9 km/h (3 Bft) 97,26 %
20.10.2019 00:44 10,3 C 10,6 C 10,6 C 96 % 1011,5 hPa 0,0 l/m 7,6 km/h (2 Bft) O 92 0 min 0,000 mm 0,0 UV-I 0 W/m 9,7 C 9,4 C 11,3 km/h (2 Bft) 92,86 %
20.10.2019 00:46 10,3 C 10,6 C 10,6 C 96 % 1011,5 hPa 0,0 l/m 9,2 km/h (2 Bft) O 96 0 min 0,000 mm 0,0 UV-I 0 W/m 9,7 C 8,4 C 14,5 km/h (3 Bft) 96,00 %
20.10.2019 00:48 10,3 C 10,6 C 10,6 C 96 % 1011,4 hPa 0,0 l/m 7,1 km/h (2 Bft) O 88 0 min 0,000 mm 0,0 UV-I 0 W/m 9,7 C 9,8 C 11,3 km/h (2 Bft) 95,45 %
20.10.2019 00:50 10,3 C 10,6 C 10,6 C 96 % 1011,4 hPa 0,0 l/m 9,0 km/h (2 Bft) NO 54 0 min 0,000 mm 0,0 UV-I 0 W/m 9,7 C 8,5 C 14,5 km/h (3 Bft) 92,00 %
20.10.2019 00:52 10,3 C 10,6 C 10,6 C 96 % 1011,4 hPa 0,0 l/m 9,3 km/h (2 Bft) O-NO 69 0 min 0,000 mm 0,0 UV-I 0 W/m 9,7 C 8,3 C 12,9 km/h (3 Bft) 96,23 %
20.10.2019 00:54 10,3 C 10,6 C 10,6 C 96 % 1011,4 hPa 0,0 l/m 8,5 km/h (2 Bft) O 79 0 min 0,000 mm 0,0 UV-I 0 W/m 9,7 C 8,8 C 12,9 km/h (3 Bft) 92,68 %
20.10.2019 00:56 10,3 C 10,6 C 10,6 C 96 % 1011,3 hPa 0,0 l/m 6,4 km/h (2 Bft) O-NO 69 0 min 0,000 mm 0,0 UV-I 0 W/m 9,7 C 10,3 C 9,7 km/h (2 Bft) 92,45 %
20.10.2019 00:58 10,3 C 10,6 C 10,6 C 96 % 1011,3 hPa 0,0 l/m 7,7 km/h (2 Bft) O 89 0 min 0,000 mm 0,0 UV-I 0 W/m 9,7 C 9,4 C 11,3 km/h (2 Bft) 91,49 %
20.10.2019 01:00 10,3 C 10,6 C 10,6 C 96 % 1011,3 hPa 0,0 l/m 8,1 km/h (2 Bft) O 92 0 min 0,000 mm 0,0 UV-I 0 W/m 9,7 C 9,1 C 12,9 km/h (3 Bft) 92,68 %
20.10.2019 01:02 10,3 C 10,6 C 10,6 C 96 % 1011,3 hPa 0,0 l/m 7,0 km/h (2 Bft) O-NO 65 0 min 0,000 mm 0,0 UV-I 0 W/m 9,7 C 9,9 C 8,0 km/h (2 Bft) 92,45 %
20.10.2019 01:04 10,3 C 10,6 C 10,6 C 96 % 1011,3 hPa 0,0 l/m 7,2 km/h (2 Bft) O-NO 58 0 min 0,000 mm 0,0 UV-I 0 W/m 9,7 C 9,7 C 11,3 km/h (2 Bft) 94,74 %
20.10.2019 01:06 10,3 C 10,6 C 10,6 C 96 % 1011,4 hPa 0,0 l/m 6,0 km/h (2 Bft) O-NO 69 0 min 0,000 mm 0,0 UV-I 0 W/m 9,7 C 10,3 C 12,9 km/h (3 Bft) 92,45 %
20.10.2019 01:08 10,3 C 10,6 C 10,6 C 96 % 1011,4 hPa 0,0 l/m 9,8 km/h (2 Bft) O-NO 67 0 min 0,000 mm 0,0 UV-I 0 W/m 9,7 C 8,0 C 12,9 km/h (3 Bft) 92,00 %
20.10.2019 01:10 10,3 C 10,6 C 10,6 C 96 % 1011,4 hPa 0,0 l/m 12,9 km/h (3 Bft) O 92 0 min 0,000 mm 0,0 UV-I 0 W/m 9,7 C 6,4 C 19,3 km/h (3 Bft) 94,74 %
20.10.2019 01:12 10,3 C 10,6 C 10,6 C 96 % 1011,4 hPa 0,0 l/m 10,5 km/h (2 Bft) O-SO 109 0 min 0,000 mm 0,0 UV-I 0 W/m 9,7 C 7,6 C 12,9 km/h (3 Bft) 96,23 %
20.10.2019 01:14 10,3 C 10,6 C 10,6 C 96 % 1011,4 hPa 0,0 l/m 7,9 km/h (2 Bft) O-NO 78 0 min 0,000 mm 0,0 UV-I 0 W/m 9,7 C 9,2 C 12,9 km/h (3 Bft) 94,74 %
20.10.2019 01:16 10,3 C 10,6 C 10,6 C 96 % 1011,3 hPa 0,0 l/m 10,7 km/h (2 Bft) O-NO 69 0 min 0,000 mm 0,0 UV-I 0 W/m 9,7 C 7,5 C 14,5 km/h (3 Bft) 95,24 %
20.10.2019 01:18 10,3 C 10,6 C 10,6 C 96 % 1011,3 hPa 0,0 l/m 10,8 km/h (2 Bft) O 89 0 min 0,000 mm 0,0 UV-I 0 W/m 9,7 C 7,5 C 14,5 km/h (3 Bft) 96,36 %
20.10.2019 01:20 10,3 C 10,6 C 10,6 C 97 % 1011,4 hPa 0,0 l/m 9,2 km/h (2 Bft) O 80 0 min 0,000 mm 0,0 UV-I 0 W/m 9,8 C 8,4 C 16,1 km/h (3 Bft) 92,00 %
20.10.2019 01:22 10,3 C 10,6 C 10,6 C 97 % 1011,4 hPa 0,0 l/m 5,6 km/h (1 Bft) O-SO 111 0 min 0,000 mm 0,0 UV-I 0 W/m 9,8 C 10,3 C 9,7 km/h (2 Bft) 93,62 %
20.10.2019 01:24 10,3 C 10,6 C 10,6 C 96 % 1011,3 hPa 0,0 l/m 7,5 km/h (2 Bft) O-SO 108 0 min 0,000 mm 0,0 UV-I 0 W/m 9,7 C 9,5 C 14,5 km/h (3 Bft) 96,00 %
20.10.2019 01:26 10,3 C 10,6 C 10,6 C 97 % 1011,2 hPa 0,0 l/m 9,2 km/h (2 Bft) O 83 0 min 0,000 mm 0,0 UV-I 0 W/m 9,8 C 8,4 C 14,5 km/h (3 Bft) 95,24 %
20.10.2019 01:28 10,3 C 10,6 C 10,6 C 96 % 1011,2 hPa 0,0 l/m 11,2 km/h (2 Bft) O 83 0 min 0,000 mm 0,0 UV-I 0 W/m 9,7 C 7,3 C 14,5 km/h (3 Bft) 95,74 %
20.10.2019 01:30 10,2 C 10,6 C 10,6 C 96 % 1011,1 hPa 0,0 l/m 12,2 km/h (2 Bft) O 98 0 min 0,000 mm 0,0 UV-I 0 W/m 9,6 C 6,6 C 16,1 km/h (3 Bft) 96,00 %
20.10.2019 01:32 10,2 C 10,6 C 10,6 C 96 % 1011,1 hPa 0,0 l/m 12,5 km/h (3 Bft) O 92 0 min 0,000 mm 0,0 UV-I 0 W/m 9,6 C 6,5 C 19,3 km/h (3 Bft) 98,00 %
20.10.2019 01:34 10,2 C 10,6 C 10,6 C 96 % 1011,1 hPa 0,0 l/m 13,4 km/h (3 Bft) O 89 0 min 0,000 mm 0,0 UV-I 0 W/m 9,6 C 6,1 C 19,3 km/h (3 Bft) 97,87 %
20.10.2019 01:36 10,2 C 10,6 C 10,6 C 96 % 1011,0 hPa 0,0 l/m 13,9 km/h (3 Bft) O 98 0 min 0,000 mm 0,0 UV-I 0 W/m 9,6 C 5,8 C 17,7 km/h (3 Bft) 97,37 %
20.10.2019 01:38 10,2 C 10,6 C 10,6 C 96 % 1011,0 hPa 0,0 l/m 12,3 km/h (3 Bft) O-NO 74 0 min 0,000 mm 0,0 UV-I 0 W/m 9,6 C 6,6 C 19,3 km/h (3 Bft) 100,00 %
20.10.2019 01:40 10,2 C 10,6 C 10,6 C 96 % 1011,0 hPa 0,0 l/m 9,8 km/h (2 Bft) O 85 0 min 0,000 mm 0,0 UV-I 0 W/m 9,6 C 7,9 C 12,9 km/h (3 Bft) 98,11 %
20.10.2019 01:42 10,2 C 10,6 C 10,6 C 97 % 1011,0 hPa 0,0 l/m 7,0 km/h (2 Bft) O-NO 72 0 min 0,000 mm 0,0 UV-I 0 W/m 9,7 C 9,8 C 9,7 km/h (2 Bft) 100,00 %
20.10.2019 01:44 10,2 C 10,6 C 10,6 C 97 % 1011,0 hPa 0,0 l/m 9,0 km/h (2 Bft) O-NO 72 0 min 0,000 mm 0,0 UV-I 0 W/m 9,7 C 8,4 C 16,1 km/h (3 Bft) 100,00 %
20.10.2019 01:46 10,2 C 10,6 C 10,6 C 97 % 1011,0 hPa 0,0 l/m 10,8 km/h (2 Bft) O 83 0 min 0,000 mm 0,0 UV-I 0 W/m 9,7 C 7,4 C 17,7 km/h (3 Bft) 100,00 %
20.10.2019 01:48 10,2 C 10,6 C 10,6 C 97 % 1010,9 hPa 0,0 l/m 13,1 km/h (3 Bft) O 96 0 min 0,000 mm 0,0 UV-I 0 W/m 9,7 C 6,2 C 19,3 km/h (3 Bft) 97,73 %
20.10.2019 01:50 10,2 C 10,6 C 10,6 C 97 % 1011,0 hPa 0,0 l/m 12,9 km/h (3 Bft) O-SO 108 0 min 0,000 mm 0,0 UV-I 0 W/m 9,7 C 6,3 C 17,7 km/h (3 Bft) 100,00 %
20.10.2019 01:52 10,2 C 10,6 C 10,6 C 97 % 1011,0 hPa 0,0 l/m 11,9 km/h (2 Bft) O-SO 115 0 min 0,000 mm 0,0 UV-I 0 W/m 9,7 C 6,8 C 19,3 km/h (3 Bft) 100,00 %
20.10.2019 01:54 10,2 C 10,6 C 10,6 C 97 % 1011,0 hPa 0,0 l/m 13,9 km/h (3 Bft) O 83 0 min 0,000 mm 0,0 UV-I 0 W/m 9,7 C 5,8 C 19,3 km/h (3 Bft) 97,37 %
20.10.2019 01:56 10,2 C 10,6 C 10,6 C 97 % 1011,0 hPa 0,0 l/m 14,2 km/h (3 Bft) O 101 0 min 0,000 mm 0,0 UV-I 0 W/m 9,7 C 5,7 C 20,9 km/h (4 Bft) 100,00 %
20.10.2019 01:58 10,2 C 10,6 C 10,6 C 97 % 1010,9 hPa 0,0 l/m 13,1 km/h (3 Bft) O-SO 107 0 min 0,000 mm 0,0 UV-I 0 W/m 9,7 C 6,2 C 19,3 km/h (3 Bft) 100,00 %
20.10.2019 02:00 10,2 C 10,6 C 10,6 C 97 % 1011,0 hPa 0,0 l/m 12,4 km/h (3 Bft) O 90 0 min 0,000 mm 0,0 UV-I 0 W/m 9,7 C 6,5 C 19,3 km/h (3 Bft) 100,00 %
20.10.2019 02:02 10,2 C 10,6 C 10,6 C 97 % 1011,0 hPa 0,0 l/m 12,6 km/h (3 Bft) O 100 0 min 0,000 mm 0,0 UV-I 0 W/m 9,7 C 6,5 C 16,1 km/h (3 Bft) 100,00 %
20.10.2019 02:04 10,2 C 10,6 C 10,6 C 97 % 1011,1 hPa 0,0 l/m 15,0 km/h (3 Bft) O-NO 69 0 min 0,000 mm 0,0 UV-I 0 W/m 9,7 C 5,4 C 19,3 km/h (3 Bft) 100,00 %
20.10.2019 02:06 10,2 C 10,6 C 10,6 C 97 % 1011,1 hPa 0,0 l/m 10,1 km/h (2 Bft) O-NO 71 0 min 0,000 mm 0,0 UV-I 0 W/m 9,7 C 7,8 C 16,1 km/h (3 Bft) 100,00 %
20.10.2019 02:08 10,2 C 10,6 C 10,6 C 97 % 1011,1 hPa 0,0 l/m 14,7 km/h (3 Bft) O 101 0 min 0,000 mm 0,0 UV-I 0 W/m 9,7 C 5,5 C 19,3 km/h (3 Bft) 98,11 %
20.10.2019 02:10 10,2 C 10,6 C 10,6 C 97 % 1011,0 hPa 0,0 l/m 12,4 km/h (3 Bft) O 94 0 min 0,000 mm 0,0 UV-I 0 W/m 9,7 C 6,5 C 16,1 km/h (3 Bft) 96,00 %
20.10.2019 02:12 10,2 C 10,6 C 10,6 C 97 % 1011,0 hPa 0,0 l/m 14,1 km/h (3 Bft) O 88 0 min 0,000 mm 0,0 UV-I 0 W/m 9,7 C 5,8 C 19,3 km/h (3 Bft) 97,37 %
20.10.2019 02:14 10,2 C 10,6 C 10,6 C 97 % 1011,0 hPa 0,0 l/m 12,9 km/h (3 Bft) O-SO 121 0 min 0,000 mm 0,0 UV-I 0 W/m 9,7 C 6,3 C 19,3 km/h (3 Bft) 94,34 %
20.10.2019 02:16 10,2 C 10,6 C 10,6 C 97 % 1011,1 hPa 0,0 l/m 11,0 km/h (2 Bft) O 101 0 min 0,000 mm 0,0 UV-I 0 W/m 9,7 C 7,3 C 16,1 km/h (3 Bft) 97,56 %
20.10.2019 02:18 10,2 C 10,6 C 10,6 C 97 % 1011,0 hPa 0,0 l/m 8,7 km/h (2 Bft) O 89 0 min 0,000 mm 0,0 UV-I 0 W/m 9,7 C 8,6 C 14,5 km/h (3 Bft) 96,23 %
20.10.2019 02:20 10,2 C 10,6 C 10,6 C 97 % 1011,1 hPa 0,0 l/m 8,4 km/h (2 Bft) O-SO 111 0 min 0,000 mm 0,0 UV-I 0 W/m 9,7 C 8,8 C 11,3 km/h (2 Bft) 97,37 %
20.10.2019 02:22 10,2 C 10,6 C 10,6 C 97 % 1011,1 hPa 0,0 l/m 7,0 km/h (2 Bft) O 90 0 min 0,000 mm 0,0 UV-I 0 W/m 9,7 C 9,8 C 12,9 km/h (3 Bft) 95,12 %
20.10.2019 02:24 10,2 C 10,6 C 10,6 C 97 % 1011,1 hPa 0,0 l/m 9,2 km/h (2 Bft) O 84 0 min 0,000 mm 0,0 UV-I 0 W/m 9,7 C 8,3 C 14,5 km/h (3 Bft) 95,38 %
20.10.2019 02:26 10,2 C 10,6 C 10,6 C 97 % 1011,0 hPa 0,0 l/m 10,2 km/h (2 Bft) O-SO 105 0 min 0,000 mm 0,0 UV-I 0 W/m 9,7 C 7,7 C 14,5 km/h (3 Bft) 97,73 %
20.10.2019 02:28 10,2 C 10,6 C 10,6 C 97 % 1010,9 hPa 0,0 l/m 12,0 km/h (2 Bft) O-SO 117 0 min 0,000 mm 0,0 UV-I 0 W/m 9,7 C 6,7 C 19,3 km/h (3 Bft) 94,29 %
20.10.2019 02:30 10,1 C 10,6 C 10,6 C 97 % 1010,9 hPa 0,0 l/m 14,2 km/h (3 Bft) O 94 0 min 0,000 mm 0,0 UV-I 0 W/m 9,6 C 5,6 C 19,3 km/h (3 Bft) 100,00 %
20.10.2019 02:32 10,1 C 10,6 C 10,6 C 97 % 1010,9 hPa 0,0 l/m 13,4 km/h (3 Bft) O 97 0 min 0,000 mm 0,0 UV-I 0 W/m 9,6 C 6,0 C 19,3 km/h (3 Bft) 90,24 %
20.10.2019 02:34 10,1 C 10,6 C 10,6 C 97 % 1010,8 hPa 0,0 l/m 9,8 km/h (2 Bft) O 94 0 min 0,000 mm 0,0 UV-I 0 W/m 9,6 C 7,8 C 16,1 km/h (3 Bft) 100,00 %
20.10.2019 02:36 10,1 C 10,6 C 10,6 C 97 % 1010,8 hPa 0,0 l/m 12,6 km/h (3 Bft) O 90 0 min 0,000 mm 0,0 UV-I 0 W/m 9,6 C 6,3 C 16,1 km/h (3 Bft) 100,00 %
20.10.2019 02:38 10,1 C 10,6 C 10,6 C 97 % 1010,8 hPa 0,0 l/m 13,4 km/h (3 Bft) O 96 0 min 0,000 mm 0,0 UV-I 0 W/m 9,6 C 6,0 C 17,7 km/h (3 Bft) 100,00 %
20.10.2019 02:40 10,1 C 10,6 C 10,6 C 97 % 1010,7 hPa 0,0 l/m 9,5 km/h (2 Bft) O-NO 78 0 min 0,000 mm 0,0 UV-I 0 W/m 9,6 C 8,0 C 16,1 km/h (3 Bft) 100,00 %
20.10.2019 02:42 10,1 C 10,6 C 10,6 C 97 % 1010,8 hPa 0,0 l/m 11,7 km/h (2 Bft) O-NO 65 0 min 0,000 mm 0,0 UV-I 0 W/m 9,6 C 6,8 C 16,1 km/h (3 Bft) 100,00 %
20.10.2019 02:44 10,1 C 10,6 C 10,6 C 97 % 1010,8 hPa 0,0 l/m 12,7 km/h (3 Bft) O-NO 74 0 min 0,000 mm 0,0 UV-I 0 W/m 9,6 C 6,3 C 17,7 km/h (3 Bft) 100,00 %
20.10.2019 02:46 10,1 C 10,6 C 10,6 C 97 % 1010,8 hPa 0,0 l/m 11,9 km/h (2 Bft) O-SO 104 0 min 0,000 mm 0,0 UV-I 0 W/m 9,6 C 6,7 C 17,7 km/h (3 Bft) 100,00 %
20.10.2019 02:48 10,1 C 10,6 C 10,6 C 97 % 1010,9 hPa 0,0 l/m 11,1 km/h (2 Bft) O 85 0 min 0,000 mm 0,0 UV-I 0 W/m 9,6 C 7,1 C 14,5 km/h (3 Bft) 97,56 %
20.10.2019 02:50 10,1 C 10,6 C 10,6 C 97 % 1010,8 hPa 0,0 l/m 11,2 km/h (2 Bft) O-SO 116 0 min 0,000 mm 0,0 UV-I 0 W/m 9,6 C 7,0 C 16,1 km/h (3 Bft) 97,87 %
20.10.2019 02:52 10,1 C 10,6 C 10,6 C 97 % 1010,8 hPa 0,0 l/m 14,2 km/h (3 Bft) O 95 0 min 0,000 mm 0,0 UV-I 0 W/m 9,6 C 5,6 C 19,3 km/h (3 Bft) 100,00 %
20.10.2019 02:54 10,1 C 10,6 C 10,6 C 97 % 1010,7 hPa 0,0 l/m 10,5 km/h (2 Bft) O 84 0 min 0,000 mm 0,0 UV-I 0 W/m 9,6 C 7,4 C 16,1 km/h (3 Bft) 97,14 %
20.10.2019 02:56 10,1 C 10,6 C 10,6 C 97 % 1010,7 hPa 0,0 l/m 10,8 km/h (2 Bft) NO 48 0 min 0,000 mm 0,0 UV-I 0 W/m 9,6 C 7,3 C 16,1 km/h (3 Bft) 97,37 %
20.10.2019 02:58 10,1 C 10,6 C 10,6 C 97 % 1010,6 hPa 0,0 l/m 10,9 km/h (2 Bft) O-NO 65 0 min 0,000 mm 0,0 UV-I 0 W/m 9,6 C 7,2 C 16,1 km/h (3 Bft) 98,11 %
20.10.2019 03:00 10,0 C 10,6 C 10,6 C 97 % 1010,6 hPa 0,0 l/m 10,3 km/h (2 Bft) O-NO 57 0 min 0,000 mm 0,0 UV-I 0 W/m 9,5 C 7,4 C 14,5 km/h (3 Bft) 98,21 %
20.10.2019 03:02 10,0 C 10,6 C 10,6 C 97 % 1010,6 hPa 0,0 l/m 10,8 km/h (2 Bft) O-NO 72 0 min 0,000 mm 0,0 UV-I 0 W/m 9,5 C 7,1 C 16,1 km/h (3 Bft) 98,00 %
20.10.2019 03:04 10,0 C 10,6 C 10,6 C 97 % 1010,7 hPa 0,0 l/m 11,3 km/h (2 Bft) O-NO 61 0 min 0,000 mm 0,0 UV-I 0 W/m 9,5 C 6,9 C 19,3 km/h (3 Bft) 97,56 %
20.10.2019 03:06 10,0 C 10,6 C 10,6 C 97 % 1010,7 hPa 0,0 l/m 10,9 km/h (2 Bft) O-NO 59 0 min 0,000 mm 0,0 UV-I 0 W/m 9,5 C 7,1 C 19,3 km/h (3 Bft) 96,00 %
20.10.2019 03:08 9,9 C 10,6 C 10,6 C 97 % 1010,7 hPa 0,0 l/m 13,2 km/h (3 Bft) O-NO 67 0 min 0,000 mm 0,0 UV-I 0 W/m 9,4 C 5,8 C 17,7 km/h (3 Bft) 97,87 %
20.10.2019 03:10 9,9 C 10,6 C 10,6 C 97 % 1010,7 hPa 0,0 l/m 12,0 km/h (2 Bft) O-NO 75 0 min 0,000 mm 0,0 UV-I 0 W/m 9,4 C 6,4 C 16,1 km/h (3 Bft) 97,87 %
20.10.2019 03:12 9,9 C 10,6 C 10,6 C 97 % 1010,7 hPa 0,0 l/m 10,4 km/h (2 Bft) O-NO 68 0 min 0,000 mm 0,0 UV-I 0 W/m 9,4 C 7,3 C 16,1 km/h (3 Bft) 97,44 %
20.10.2019 03:14 9,9 C 10,6 C 10,0 C 97 % 1010,7 hPa 0,0 l/m 12,3 km/h (3 Bft) O-NO 69 0 min 0,000 mm 0,0 UV-I 0 W/m 9,4 C 6,2 C 16,1 km/h (3 Bft) 92,31 %
20.10.2019 03:16 9,9 C 10,6 C 10,0 C 97 % 1010,7 hPa 0,0 l/m 16,4 km/h (3 Bft) O 101 0 min 0,000 mm 0,0 UV-I 0 W/m 9,4 C 4,4 C 19,3 km/h (3 Bft) 98,11 %
20.10.2019 03:18 9,9 C 10,6 C 10,0 C 97 % 1010,8 hPa 0,0 l/m 10,7 km/h (2 Bft) O-NO 71 0 min 0,000 mm 0,0 UV-I 0 W/m 9,4 C 7,1 C 17,7 km/h (3 Bft) 97,44 %
20.10.2019 03:20 9,9 C 10,6 C 10,0 C 97 % 1010,9 hPa 0,0 l/m 9,2 km/h (2 Bft) O-NO 67 0 min 0,000 mm 0,0 UV-I 0 W/m 9,4 C 8,0 C 14,5 km/h (3 Bft) 96,00 %
20.10.2019 03:22 9,9 C 10,6 C 10,0 C 97 % 1010,8 hPa 0,0 l/m 9,3 km/h (2 Bft) O 85 0 min 0,000 mm 0,0 UV-I 0 W/m 9,4 C 7,9 C 14,5 km/h (3 Bft) 95,74 %
20.10.2019 03:24 9,8 C 10,6 C 10,0 C 97 % 1010,8 hPa 0,0 l/m 12,6 km/h (3 Bft) O-NO 61 0 min 0,000 mm 0,0 UV-I 0 W/m 9,3 C 6,0 C 17,7 km/h (3 Bft) 97,87 %
20.10.2019 03:26 9,8 C 10,6 C 10,0 C 97 % 1010,7 hPa 0,0 l/m 13,4 km/h (3 Bft) O 90 0 min 0,000 mm 0,0 UV-I 0 W/m 9,3 C 5,6 C 19,3 km/h (3 Bft) 96,00 %
20.10.2019 03:28 9,8 C 10,6 C 10,0 C 97 % 1010,6 hPa 0,0 l/m 12,6 km/h (3 Bft) O 99 0 min 0,000 mm 0,0 UV-I 0 W/m 9,3 C 6,0 C 17,7 km/h (3 Bft) 97,87 %
20.10.2019 03:30 9,8 C 10,6 C 10,0 C 97 % 1010,6 hPa 0,0 l/m 12,4 km/h (3 Bft) O-SO 110 0 min 0,000 mm 0,0 UV-I 0 W/m 9,3 C 6,1 C 17,7 km/h (3 Bft) 94,74 %
20.10.2019 03:32 9,8 C 10,6 C 10,0 C 97 % 1010,7 hPa 0,0 l/m 12,6 km/h (3 Bft) O-SO 111 0 min 0,000 mm 0,0 UV-I 0 W/m 9,3 C 6,0 C 17,7 km/h (3 Bft) 97,87 %
20.10.2019 03:34 9,8 C 10,6 C 10,0 C 97 % 1010,7 hPa 0,0 l/m 9,3 km/h (2 Bft) O-SO 106 0 min 0,000 mm 0,0 UV-I 0 W/m 9,3 C 7,8 C 14,5 km/h (3 Bft) 98,00 %
20.10.2019 03:36 9,8 C 10,6 C 10,0 C 97 % 1010,7 hPa 0,0 l/m 8,3 km/h (2 Bft) O 97 0 min 0,000 mm 0,0 UV-I 0 W/m 9,3 C 8,4 C 12,9 km/h (3 Bft) 94,34 %
20.10.2019 03:38 9,8 C 10,6 C 10,0 C 97 % 1010,6 hPa 0,0 l/m 8,7 km/h (2 Bft) O 80 0 min 0,000 mm 0,0 UV-I 0 W/m 9,3 C 8,2 C 12,9 km/h (3 Bft) 97,37 %
20.10.2019 03:40 9,8 C 10,6 C 10,0 C 97 % 1010,5 hPa 0,0 l/m 9,3 km/h (2 Bft) O-SO 107 0 min 0,000 mm 0,0 UV-I 0 W/m 9,3 C 7,8 C 12,9 km/h (3 Bft) 97,87 %
20.10.2019 03:42 9,8 C 10,6 C 10,0 C 97 % 1010,5 hPa 0,0 l/m 7,6 km/h (2 Bft) O-SO 105 0 min 0,000 mm 0,0 UV-I 0 W/m 9,3 C 8,9 C 12,9 km/h (3 Bft) 98,11 %
20.10.2019 03:44 9,8 C 10,6 C 10,0 C 97 % 1010,5 hPa 0,0 l/m 9,3 km/h (2 Bft) O-NO 60 0 min 0,000 mm 0,0 UV-I 0 W/m 9,3 C 7,8 C 12,9 km/h (3 Bft) 98,00 %
20.10.2019 03:46 9,8 C 10,6 C 10,0 C 97 % 1010,6 hPa 0,0 l/m 11,8 km/h (2 Bft) O-NO 70 0 min 0,000 mm 0,0 UV-I 0 W/m 9,3 C 6,4 C 16,1 km/h (3 Bft) 94,74 %
20.10.2019 03:48 9,8 C 10,6 C 10,0 C 97 % 1010,6 hPa 0,0 l/m 8,9 km/h (2 Bft) O 80 0 min 0,000 mm 0,0 UV-I 0 W/m 9,3 C 8,0 C 16,1 km/h (3 Bft) 98,11 %
20.10.2019 03:50 9,8 C 10,6 C 10,0 C 97 % 1010,5 hPa 0,0 l/m 9,2 km/h (2 Bft) O 79 0 min 0,000 mm 0,0 UV-I 0 W/m 9,3 C 7,9 C 12,9 km/h (3 Bft) 97,56 %
20.10.2019 03:52 9,8 C 10,6 C 10,0 C 97 % 1010,5 hPa 0,0 l/m 12,9 km/h (3 Bft) O-NO 58 0 min 0,000 mm 0,0 UV-I 0 W/m 9,3 C 5,8 C 19,3 km/h (3 Bft) 96,00 %
20.10.2019 03:54 9,8 C 10,6 C 10,0 C 97 % 1010,5 hPa 0,0 l/m 13,1 km/h (3 Bft) O-NO 69 0 min 0,000 mm 0,0 UV-I 0 W/m 9,3 C 5,7 C 16,1 km/h (3 Bft) 97,44 %
20.10.2019 03:56 9,8 C 10,6 C 10,0 C 97 % 1010,7 hPa 0,0 l/m 10,4 km/h (2 Bft) O 93 0 min 0,000 mm 0,0 UV-I 0 W/m 9,3 C 7,1 C 16,1 km/h (3 Bft) 100,00 %
20.10.2019 03:58 9,8 C 10,6 C 10,0 C 97 % 1010,7 hPa 0,0 l/m 9,4 km/h (2 Bft) O-NO 72 0 min 0,000 mm 0,0 UV-I 0 W/m 9,3 C 7,7 C 14,5 km/h (3 Bft) 100,00 %
20.10.2019 04:00 9,8 C 10,6 C 10,0 C 97 % 1010,8 hPa 0,0 l/m 9,0 km/h (2 Bft) O-NO 78 0 min 0,000 mm 0,0 UV-I 0 W/m 9,3 C 8,0 C 14,5 km/h (3 Bft) 95,83 %
20.10.2019 04:02 9,8 C 10,6 C 10,0 C 97 % 1010,8 hPa 0,0 l/m 8,0 km/h (2 Bft) O 79 0 min 0,000 mm 0,0 UV-I 0 W/m 9,3 C 8,6 C 11,3 km/h (2 Bft) 100,00 %
20.10.2019 04:04 9,8 C 10,6 C 10,0 C 97 % 1010,8 hPa 0,0 l/m 7,9 km/h (2 Bft) O-NO 78 0 min 0,000 mm 0,0 UV-I 0 W/m 9,3 C 8,7 C 11,3 km/h (2 Bft) 100,00 %
20.10.2019 04:06 9,8 C 10,6 C 10,0 C 97 % 1010,7 hPa 0,0 l/m 7,4 km/h (2 Bft) O-NO 65 0 min 0,000 mm 0,0 UV-I 0 W/m 9,3 C 9,1 C 11,3 km/h (2 Bft) 96,23 %
20.10.2019 04:08 9,8 C 10,6 C 10,0 C 97 % 1010,7 hPa 0,0 l/m 8,9 km/h (2 Bft) O-NO 59 0 min 0,000 mm 0,0 UV-I 0 W/m 9,3 C 8,0 C 14,5 km/h (3 Bft) 100,00 %
20.10.2019 04:10 9,7 C 10,6 C 10,0 C 97 % 1010,8 hPa 0,0 l/m 10,3 km/h (2 Bft) O-NO 71 0 min 0,000 mm 0,0 UV-I 0 W/m 9,2 C 7,1 C 14,5 km/h (3 Bft) 98,00 %
20.10.2019 04:12 9,7 C 10,6 C 10,0 C 97 % 1010,9 hPa 0,0 l/m 8,8 km/h (2 Bft) O 79 0 min 0,000 mm 0,0 UV-I 0 W/m 9,2 C 8,0 C 12,9 km/h (3 Bft) 100,00 %
20.10.2019 04:14 9,7 C 10,6 C 10,0 C 97 % 1010,9 hPa 0,0 l/m 7,6 km/h (2 Bft) O-NO 74 0 min 0,000 mm 0,0 UV-I 0 W/m 9,2 C 8,8 C 11,3 km/h (2 Bft) 100,00 %
20.10.2019 04:16 9,7 C 10,6 C 10,0 C 97 % 1010,8 hPa 0,0 l/m 6,1 km/h (2 Bft) O 84 0 min 0,000 mm 0,0 UV-I 0 W/m 9,2 C 9,7 C 12,9 km/h (3 Bft) 98,11 %
20.10.2019 04:18 9,7 C 10,6 C 10,0 C 97 % 1010,8 hPa 0,0 l/m 7,2 km/h (2 Bft) O-SO 104 0 min 0,000 mm 0,0 UV-I 0 W/m 9,2 C 9,1 C 11,3 km/h (2 Bft) 97,73 %
20.10.2019 04:20 9,7 C 10,6 C 10,0 C 97 % 1010,8 hPa 0,0 l/m 7,5 km/h (2 Bft) O 92 0 min 0,000 mm 0,0 UV-I 0 W/m 9,2 C 8,9 C 11,3 km/h (2 Bft) 98,00 %
20.10.2019 04:22 9,7 C 10,6 C 10,0 C 97 % 1010,9 hPa 0,0 l/m 6,0 km/h (2 Bft) O-NO 74 0 min 0,000 mm 0,0 UV-I 0 W/m 9,2 C 9,7 C 9,7 km/h (2 Bft) 94,29 %
20.10.2019 04:24 9,7 C 10,6 C 10,0 C 97 % 1010,9 hPa 0,0 l/m 5,5 km/h (1 Bft) SO 131 0 min 0,000 mm 0,0 UV-I 0 W/m 9,2 C 9,7 C 9,7 km/h (2 Bft) 98,11 %
20.10.2019 04:26 9,7 C 10,6 C 10,0 C 97 % 1010,9 hPa 0,0 l/m 5,9 km/h (2 Bft) O-SO 117 0 min 0,000 mm 0,0 UV-I 0 W/m 9,2 C 9,7 C 9,7 km/h (2 Bft) 100,00 %
20.10.2019 04:28 9,7 C 10,6 C 10,0 C 97 % 1010,9 hPa 0,0 l/m 5,4 km/h (1 Bft) O-SO 105 0 min 0,000 mm 0,0 UV-I 0 W/m 9,2 C 9,7 C 9,7 km/h (2 Bft) 98,00 %
20.10.2019 04:30 9,7 C 10,6 C 10,0 C 97 % 1010,9 hPa 0,0 l/m 4,0 km/h (1 Bft) O 98 0 min 0,000 mm 0,0 UV-I 0 W/m 9,2 C 9,7 C 6,4 km/h (2 Bft) 100,00 %
20.10.2019 04:32 9,8 C 10,6 C 10,0 C 97 % 1010,9 hPa 0,0 l/m 3,9 km/h (1 Bft) O 80 0 min 0,000 mm 0,0 UV-I 0 W/m 9,3 C 9,8 C 4,8 km/h (1 Bft) 100,00 %
20.10.2019 04:34 9,8 C 10,6 C 10,0 C 97 % 1010,9 hPa 0,0 l/m 5,0 km/h (1 Bft) O 82 0 min 0,000 mm 0,0 UV-I 0 W/m 9,3 C 9,8 C 8,0 km/h (2 Bft) 100,00 %
20.10.2019 04:36 9,8 C 10,6 C 10,0 C 97 % 1010,8 hPa 0,0 l/m 4,3 km/h (1 Bft) O 84 0 min 0,000 mm 0,0 UV-I 0 W/m 9,3 C 9,8 C 6,4 km/h (2 Bft) 92,86 %
20.10.2019 04:38 9,7 C 10,6 C 10,0 C 97 % 1010,9 hPa 0,0 l/m 5,1 km/h (1 Bft) O 87 0 min 0,000 mm 0,0 UV-I 0 W/m 9,2 C 9,7 C 11,3 km/h (2 Bft) 97,56 %
20.10.2019 04:40 9,7 C 10,6 C 10,0 C 97 % 1010,8 hPa 0,0 l/m 6,7 km/h (2 Bft) O 84 0 min 0,000 mm 0,0 UV-I 0 W/m 9,2 C 9,5 C 9,7 km/h (2 Bft) 95,74 %
20.10.2019 04:42 9,7 C 10,6 C 10,0 C 97 % 1010,9 hPa 0,0 l/m 10,0 km/h (2 Bft) O-NO 61 0 min 0,000 mm 0,0 UV-I 0 W/m 9,2 C 7,3 C 14,5 km/h (3 Bft) 94,74 %
20.10.2019 04:44 9,7 C 10,6 C 10,0 C 97 % 1010,9 hPa 0,0 l/m 5,9 km/h (2 Bft) O 90 0 min 0,000 mm 0,0 UV-I 0 W/m 9,2 C 9,7 C 8,0 km/h (2 Bft) 98,11 %
20.10.2019 04:46 9,7 C 10,6 C 10,0 C 97 % 1010,9 hPa 0,0 l/m 7,9 km/h (2 Bft) O-NO 58 0 min 0,000 mm 0,0 UV-I 0 W/m 9,2 C 8,6 C 9,7 km/h (2 Bft) 98,00 %
20.10.2019 04:48 9,7 C 10,6 C 10,0 C 98 % 1010,9 hPa 0,0 l/m 8,2 km/h (2 Bft) O 98 0 min 0,000 mm 0,0 UV-I 0 W/m 9,4 C 8,4 C 14,5 km/h (3 Bft) 96,23 %
20.10.2019 04:50 9,7 C 10,6 C 10,0 C 98 % 1010,9 hPa 0,0 l/m 4,4 km/h (1 Bft) SO 125 0 min 0,000 mm 0,0 UV-I 0 W/m 9,4 C 9,7 C 8,0 km/h (2 Bft) 97,37 %
20.10.2019 04:52 9,7 C 10,6 C 10,0 C 98 % 1010,8 hPa 0,0 l/m 7,3 km/h (2 Bft) O 100 0 min 0,000 mm 0,0 UV-I 0 W/m 9,4 C 9,0 C 12,9 km/h (3 Bft) 95,74 %
20.10.2019 04:54 9,7 C 10,6 C 10,0 C 98 % 1010,9 hPa 0,0 l/m 4,9 km/h (1 Bft) O 90 0 min 0,000 mm 0,0 UV-I 0 W/m 9,4 C 9,7 C 9,7 km/h (2 Bft) 94,00 %
20.10.2019 04:56 9,7 C 10,6 C 10,0 C 98 % 1010,8 hPa 0,0 l/m 7,6 km/h (2 Bft) O 96 0 min 0,000 mm 0,0 UV-I 0 W/m 9,4 C 8,8 C 11,3 km/h (2 Bft) 92,00 %
20.10.2019 04:58 9,7 C 10,6 C 10,0 C 98 % 1010,9 hPa 0,0 l/m 10,4 km/h (2 Bft) O 97 0 min 0,000 mm 0,0 UV-I 0 W/m 9,4 C 7,0 C 14,5 km/h (3 Bft) 95,12 %
20.10.2019 05:00 9,7 C 10,6 C 10,0 C 98 % 1010,9 hPa 0,0 l/m 8,1 km/h (2 Bft) O-NO 74 0 min 0,000 mm 0,0 UV-I 0 W/m 9,4 C 8,5 C 11,3 km/h (2 Bft) 88,00 %
20.10.2019 05:02 9,7 C 10,6 C 10,0 C 98 % 1010,9 hPa 0,0 l/m 9,9 km/h (2 Bft) O-SO 107 0 min 0,000 mm 0,0 UV-I 0 W/m 9,4 C 7,3 C 14,5 km/h (3 Bft) 94,00 %
20.10.2019 05:04 9,6 C 10,6 C 10,0 C 98 % 1010,9 hPa 0,0 l/m 10,6 km/h (2 Bft) O-SO 106 0 min 0,000 mm 0,0 UV-I 0 W/m 9,3 C 6,8 C 14,5 km/h (3 Bft) 86,84 %
20.10.2019 05:06 9,6 C 10,6 C 10,0 C 98 % 1010,9 hPa 0,0 l/m 11,9 km/h (2 Bft) O 93 0 min 0,000 mm 0,0 UV-I 0 W/m 9,3 C 6,1 C 16,1 km/h (3 Bft) 93,33 %
20.10.2019 05:08 9,6 C 10,6 C 10,0 C 98 % 1010,9 hPa 0,0 l/m 8,9 km/h (2 Bft) O 84 0 min 0,000 mm 0,0 UV-I 0 W/m 9,3 C 7,8 C 12,9 km/h (3 Bft) 94,00 %
20.10.2019 05:10 9,6 C 10,6 C 10,0 C 98 % 1010,8 hPa 0,0 l/m 11,9 km/h (2 Bft) O 95 0 min 0,000 mm 0,0 UV-I 0 W/m 9,3 C 6,1 C 14,5 km/h (3 Bft) 92,68 %
20.10.2019 05:12 9,6 C 10,6 C 10,0 C 98 % 1010,8 hPa 0,0 l/m 9,2 km/h (2 Bft) O-SO 102 0 min 0,000 mm 0,0 UV-I 0 W/m 9,3 C 7,6 C 12,9 km/h (3 Bft) 91,80 %
20.10.2019 05:14 9,6 C 10,6 C 10,0 C 98 % 1010,8 hPa 0,0 l/m 12,1 km/h (2 Bft) O 90 0 min 0,000 mm 0,0 UV-I 0 W/m 9,3 C 6,0 C 17,7 km/h (3 Bft) 95,24 %
20.10.2019 05:16 9,6 C 10,6 C 10,0 C 98 % 1010,8 hPa 0,0 l/m 11,3 km/h (2 Bft) O 96 0 min 0,000 mm 0,0 UV-I 0 W/m 9,3 C 6,4 C 16,1 km/h (3 Bft) 92,00 %
20.10.2019 05:18 9,6 C 10,6 C 10,0 C 98 % 1010,8 hPa 0,0 l/m 11,1 km/h (2 Bft) O 80 0 min 0,000 mm 0,0 UV-I 0 W/m 9,3 C 6,5 C 17,7 km/h (3 Bft) 90,24 %
20.10.2019 05:20 9,6 C 10,6 C 10,0 C 98 % 1010,8 hPa 0,0 l/m 12,8 km/h (3 Bft) O-NO 67 0 min 0,000 mm 0,0 UV-I 0 W/m 9,3 C 5,7 C 16,1 km/h (3 Bft) 96,23 %
20.10.2019 05:22 9,6 C 10,6 C 10,0 C 98 % 1010,8 hPa 0,0 l/m 12,8 km/h (3 Bft) O-NO 75 0 min 0,000 mm 0,0 UV-I 0 W/m 9,3 C 5,7 C 16,1 km/h (3 Bft) 94,00 %
20.10.2019 05:24 9,6 C 10,6 C 10,0 C 98 % 1010,8 hPa 0,0 l/m 9,1 km/h (2 Bft) O-NO 78 0 min 0,000 mm 0,0 UV-I 0 W/m 9,3 C 7,7 C 16,1 km/h (3 Bft) 94,74 %
20.10.2019 05:26 9,6 C 10,6 C 10,0 C 98 % 1010,8 hPa 0,0 l/m 8,5 km/h (2 Bft) O-SO 105 0 min 0,000 mm 0,0 UV-I 0 W/m 9,3 C 8,1 C 12,9 km/h (3 Bft) 92,45 %
20.10.2019 05:28 9,6 C 10,6 C 10,0 C 98 % 1010,9 hPa 0,0 l/m 10,0 km/h (2 Bft) O-SO 105 0 min 0,000 mm 0,0 UV-I 0 W/m 9,3 C 7,2 C 14,5 km/h (3 Bft) 95,74 %
20.10.2019 05:30 9,6 C 10,6 C 10,0 C 98 % 1010,9 hPa 0,0 l/m 8,8 km/h (2 Bft) O-SO 110 0 min 0,000 mm 0,0 UV-I 0 W/m 9,3 C 7,9 C 14,5 km/h (3 Bft) 92,11 %
20.10.2019 05:32 9,6 C 10,6 C 10,0 C 98 % 1010,8 hPa 0,0 l/m 6,5 km/h (2 Bft) O-SO 123 0 min 0,000 mm 0,0 UV-I 0 W/m 9,3 C 9,6 C 12,9 km/h (3 Bft) 95,12 %
20.10.2019 05:34 9,6 C 10,6 C 10,0 C 98 % 1010,9 hPa 0,0 l/m 5,4 km/h (1 Bft) O 94 0 min 0,000 mm 0,0 UV-I 0 W/m 9,3 C 9,6 C 9,7 km/h (2 Bft) 96,00 %
20.10.2019 05:36 9,6 C 10,6 C 10,0 C 98 % 1010,9 hPa 0,0 l/m 6,0 km/h (2 Bft) O 96 0 min 0,000 mm 0,0 UV-I 0 W/m 9,3 C 9,6 C 11,3 km/h (2 Bft) 98,11 %
20.10.2019 05:38 9,5 C 10,6 C 10,0 C 98 % 1010,9 hPa 0,0 l/m 9,8 km/h (2 Bft) O 84 0 min 0,000 mm 0,0 UV-I 0 W/m 9,2 C 7,2 C 14,5 km/h (3 Bft) 96,00 %
20.10.2019 05:40 9,6 C 10,6 C 10,0 C 98 % 1010,9 hPa 0,0 l/m 7,0 km/h (2 Bft) O-NO 72 0 min 0,000 mm 0,0 UV-I 0 W/m 9,3 C 9,2 C 11,3 km/h (2 Bft) 97,56 %
20.10.2019 05:42 9,5 C 10,6 C 10,0 C 98 % 1011,0 hPa 0,0 l/m 9,8 km/h (2 Bft) O-NO 69 0 min 0,000 mm 0,0 UV-I 0 W/m 9,2 C 7,2 C 14,5 km/h (3 Bft) 95,74 %
20.10.2019 05:44 9,5 C 10,6 C 10,0 C 98 % 1011,0 hPa 0,0 l/m 10,2 km/h (2 Bft) O-NO 78 0 min 0,000 mm 0,0 UV-I 0 W/m 9,2 C 6,9 C 14,5 km/h (3 Bft) 95,74 %
20.10.2019 05:46 9,5 C 10,6 C 10,0 C 98 % 1011,0 hPa 0,0 l/m 8,2 km/h (2 Bft) O 97 0 min 0,000 mm 0,0 UV-I 0 W/m 9,2 C 8,2 C 12,9 km/h (3 Bft) 98,00 %
20.10.2019 05:48 9,6 C 10,6 C 10,0 C 98 % 1011,0 hPa 0,0 l/m 6,1 km/h (2 Bft) O-NO 77 0 min 0,000 mm 0,0 UV-I 0 W/m 9,3 C 9,6 C 9,7 km/h (2 Bft) 100,00 %
20.10.2019 05:50 9,6 C 10,6 C 10,0 C 98 % 1010,9 hPa 0,0 l/m 8,5 km/h (2 Bft) NO 53 0 min 0,000 mm 0,0 UV-I 0 W/m 9,3 C 8,1 C 12,9 km/h (3 Bft) 100,00 %
20.10.2019 05:52 9,5 C 10,6 C 10,0 C 98 % 1010,9 hPa 0,0 l/m 7,3 km/h (2 Bft) NO 55 0 min 0,000 mm 0,0 UV-I 0 W/m 9,2 C 8,8 C 11,3 km/h (2 Bft) 100,00 %
20.10.2019 05:54 9,5 C 10,6 C 10,0 C 98 % 1010,9 hPa 0,0 l/m 8,4 km/h (2 Bft) NO 55 0 min 0,000 mm 0,0 UV-I 0 W/m 9,2 C 8,1 C 14,5 km/h (3 Bft) 100,00 %
20.10.2019 05:56 9,4 C 10,6 C 10,0 C 98 % 1010,9 hPa 0,0 l/m 8,2 km/h (2 Bft) O-NO 75 0 min 0,000 mm 0,0 UV-I 0 W/m 9,1 C 8,1 C 12,9 km/h (3 Bft) 100,00 %
20.10.2019 05:58 9,4 C 10,6 C 10,0 C 98 % 1011,0 hPa 0,0 l/m 6,2 km/h (2 Bft) O-NO 78 0 min 0,000 mm 0,0 UV-I 0 W/m 9,1 C 9,4 C 11,3 km/h (2 Bft) 100,00 %
20.10.2019 06:00 9,5 C 10,6 C 10,0 C 98 % 1011,0 hPa 0,0 l/m 5,7 km/h (1 Bft) O-NO 61 0 min 0,000 mm 0,0 UV-I 0 W/m 9,2 C 9,5 C 9,7 km/h (2 Bft) 100,00 %
20.10.2019 06:02 9,5 C 10,6 C 10,0 C 98 % 1011,1 hPa 0,0 l/m 4,8 km/h (1 Bft) O-NO 76 0 min 0,000 mm 0,0 UV-I 0 W/m 9,2 C 9,5 C 6,4 km/h (2 Bft) 100,00 %
20.10.2019 06:04 9,5 C 10,6 C 10,0 C 98 % 1011,1 hPa 0,0 l/m 4,2 km/h (1 Bft) O 81 0 min 0,000 mm 0,0 UV-I 0 W/m 9,2 C 9,5 C 6,4 km/h (2 Bft) 100,00 %
20.10.2019 06:06 9,5 C 10,6 C 10,0 C 98 % 1011,2 hPa 0,0 l/m 6,1 km/h (2 Bft) O-NO 71 0 min 0,000 mm 0,0 UV-I 0 W/m 9,2 C 9,5 C 8,0 km/h (2 Bft) 98,00 %
20.10.2019 06:08 9,6 C 10,6 C 10,0 C 98 % 1011,2 hPa 0,0 l/m 4,3 km/h (1 Bft) O-NO 65 0 min 0,000 mm 0,0 UV-I 0 W/m 9,3 C 9,6 C 6,4 km/h (2 Bft) 100,00 %
20.10.2019 06:10 9,5 C 10,6 C 10,0 C 98 % 1011,2 hPa 0,0 l/m 6,1 km/h (2 Bft) O 79 0 min 0,000 mm 0,0 UV-I 0 W/m 9,2 C 9,5 C 11,3 km/h (2 Bft) 100,00 %
20.10.2019 06:12 9,6 C 10,6 C 10,0 C 98 % 1011,2 hPa 0,0 l/m 4,5 km/h (1 Bft) O 82 0 min 0,000 mm 0,0 UV-I 0 W/m 9,3 C 9,6 C 6,4 km/h (2 Bft) 100,00 %
20.10.2019 06:14 9,5 C 10,6 C 10,0 C 98 % 1011,2 hPa 0,0 l/m 5,6 km/h (1 Bft) O 89 0 min 0,000 mm 0,0 UV-I 0 W/m 9,2 C 9,5 C 8,0 km/h (2 Bft) 97,01 %
20.10.2019 06:16 9,5 C 10,6 C 10,0 C 98 % 1011,3 hPa 0,0 l/m 5,5 km/h (1 Bft) O-NO 70 0 min 0,000 mm 0,0 UV-I 0 W/m 9,2 C 9,5 C 9,7 km/h (2 Bft) 97,56 %
20.10.2019 06:18 9,5 C 10,6 C 10,0 C 98 % 1011,3 hPa 0,0 l/m 5,5 km/h (1 Bft) O 83 0 min 0,000 mm 0,0 UV-I 0 W/m 9,2 C 9,5 C 9,7 km/h (2 Bft) 97,87 %
20.10.2019 06:20 9,5 C 10,6 C 10,0 C 98 % 1011,3 hPa 0,0 l/m 4,2 km/h (1 Bft) NO 48 0 min 0,000 mm 0,0 UV-I 0 W/m 9,2 C 9,5 C 6,4 km/h (2 Bft) 94,34 %
20.10.2019 06:22 9,5 C 10,6 C 10,0 C 98 % 1011,4 hPa 0,0 l/m 4,4 km/h (1 Bft) NO 53 0 min 0,000 mm 0,0 UV-I 0 W/m 9,2 C 9,5 C 6,4 km/h (2 Bft) 98,00 %
20.10.2019 06:24 9,5 C 10,6 C 10,0 C 98 % 1011,3 hPa 0,0 l/m 3,5 km/h (1 Bft) O-NO 65 0 min 0,000 mm 0,0 UV-I 0 W/m 9,2 C 9,5 C 6,4 km/h (2 Bft) 97,37 %
20.10.2019 06:26 9,6 C 10,6 C 10,0 C 98 % 1011,3 hPa 0,0 l/m 3,6 km/h (1 Bft) O-NO 65 0 min 0,000 mm 0,0 UV-I 0 W/m 9,3 C 9,6 C 4,8 km/h (1 Bft) 100,00 %
20.10.2019 06:28 9,5 C 10,6 C 10,0 C 98 % 1011,2 hPa 0,0 l/m 5,6 km/h (1 Bft) O 79 0 min 0,000 mm 0,0 UV-I 0 W/m 9,2 C 9,5 C 8,0 km/h (2 Bft) 97,44 %
20.10.2019 06:30 9,5 C 10,6 C 10,0 C 98 % 1011,3 hPa 0,0 l/m 5,8 km/h (2 Bft) O-NO 71 0 min 0,000 mm 0,0 UV-I 0 W/m 9,2 C 9,5 C 8,0 km/h (2 Bft) 97,87 %
20.10.2019 06:32 9,5 C 10,6 C 10,0 C 98 % 1011,3 hPa 0,0 l/m 4,5 km/h (1 Bft) O 86 0 min 0,000 mm 0,0 UV-I 0 W/m 9,2 C 9,5 C 6,4 km/h (2 Bft) 96,00 %
20.10.2019 06:34 9,5 C 10,6 C 10,0 C 98 % 1011,3 hPa 0,0 l/m 4,3 km/h (1 Bft) O-NO 60 0 min 0,000 mm 0,0 UV-I 0 W/m 9,2 C 9,5 C 6,4 km/h (2 Bft) 97,73 %
20.10.2019 06:36 9,5 C 10,6 C 10,0 C 98 % 1011,2 hPa 0,0 l/m 7,3 km/h (2 Bft) O-NO 67 0 min 0,000 mm 0,0 UV-I 0 W/m 9,2 C 8,8 C 14,5 km/h (3 Bft) 98,11 %
20.10.2019 06:38 9,5 C 10,6 C 10,0 C 98 % 1011,2 hPa 0,0 l/m 6,9 km/h (2 Bft) NO 47 0 min 0,000 mm 0,0 UV-I 0 W/m 9,2 C 9,1 C 11,3 km/h (2 Bft) 97,37 %
20.10.2019 06:40 9,4 C 10,6 C 10,0 C 98 % 1011,2 hPa 0,0 l/m 6,8 km/h (2 Bft) O-NO 75 0 min 0,000 mm 0,0 UV-I 0 W/m 9,1 C 9,1 C 12,9 km/h (3 Bft) 98,21 %
20.10.2019 06:42 9,4 C 10,6 C 10,0 C 98 % 1011,2 hPa 0,0 l/m 6,2 km/h (2 Bft) O-SO 106 0 min 0,000 mm 0,0 UV-I 0 W/m 9,1 C 9,4 C 11,3 km/h (2 Bft) 100,00 %
20.10.2019 06:44 9,4 C 10,6 C 10,0 C 98 % 1011,2 hPa 0,0 l/m 8,5 km/h (2 Bft) O-NO 67 0 min 0,000 mm 0,0 UV-I 0 W/m 9,1 C 7,9 C 12,9 km/h (3 Bft) 98,31 %
20.10.2019 06:46 9,4 C 10,6 C 10,0 C 98 % 1011,2 hPa 0,0 l/m 8,4 km/h (2 Bft) O 101 0 min 0,000 mm 0,0 UV-I 0 W/m 9,1 C 7,9 C 14,5 km/h (3 Bft) 95,65 %
20.10.2019 06:48 9,4 C 10,6 C 10,0 C 98 % 1011,3 hPa 0,0 l/m 6,5 km/h (2 Bft) O 101 0 min 0,000 mm 0,0 UV-I 0 W/m 9,1 C 9,4 C 9,7 km/h (2 Bft) 100,00 %
20.10.2019 06:50 9,4 C 10,6 C 10,0 C 98 % 1011,4 hPa 0,0 l/m 6,0 km/h (2 Bft) SO 134 0 min 0,000 mm 0,0 UV-I 0 W/m 9,1 C 9,4 C 9,7 km/h (2 Bft) 97,73 %
20.10.2019 06:52 9,4 C 10,6 C 10,0 C 98 % 1011,3 hPa 0,0 l/m 6,5 km/h (2 Bft) O 100 0 min 0,000 mm 0,0 UV-I 0 W/m 9,1 C 9,4 C 9,7 km/h (2 Bft) 100,00 %
20.10.2019 06:54 9,4 C 10,6 C 10,0 C 98 % 1011,4 hPa 0,0 l/m 8,3 km/h (2 Bft) O-SO 105 0 min 0,000 mm 0,0 UV-I 0 W/m 9,1 C 8,0 C 11,3 km/h (2 Bft) 100,00 %
20.10.2019 06:56 9,3 C 10,6 C 10,0 C 98 % 1011,4 hPa 0,0 l/m 7,4 km/h (2 Bft) O-SO 116 0 min 0,000 mm 0,0 UV-I 0 W/m 9,0 C 8,6 C 14,5 km/h (3 Bft) 100,00 %
20.10.2019 06:58 9,3 C 10,6 C 10,0 C 98 % 1011,3 hPa 0,0 l/m 7,3 km/h (2 Bft) O 86 0 min 0,000 mm 0,0 UV-I 0 W/m 9,0 C 8,6 C 9,7 km/h (2 Bft) 98,00 %
20.10.2019 07:00 9,3 C 10,6 C 10,0 C 98 % 1011,4 hPa 0,0 l/m 8,0 km/h (2 Bft) O 82 0 min 0,000 mm 0,0 UV-I 0 W/m 9,0 C 8,1 C 11,3 km/h (2 Bft) 97,87 %
20.10.2019 07:02 9,3 C 10,6 C 10,0 C 98 % 1011,3 hPa 0,0 l/m 7,3 km/h (2 Bft) O 94 0 min 0,000 mm 0,0 UV-I 0 W/m 9,0 C 8,6 C 11,3 km/h (2 Bft) 95,24 %
20.10.2019 07:04 9,3 C 10,6 C 10,0 C 98 % 1011,3 hPa 0,0 l/m 7,0 km/h (2 Bft) O 92 0 min 0,000 mm 0,0 UV-I 0 W/m 9,0 C 8,9 C 11,3 km/h (2 Bft) 95,92 %
20.10.2019 07:06 9,3 C 10,6 C 10,0 C 98 % 1011,3 hPa 0,0 l/m 6,3 km/h (2 Bft) O 94 0 min 0,000 mm 0,0 UV-I 0 W/m 9,0 C 9,3 C 9,7 km/h (2 Bft) 97,73 %
20.10.2019 07:08 9,3 C 10,6 C 10,0 C 98 % 1011,3 hPa 0,0 l/m 7,9 km/h (2 Bft) O 86 0 min 0,000 mm 0,0 UV-I 0 W/m 9,0 C 8,2 C 12,9 km/h (3 Bft) 96,00 %
20.10.2019 07:10 9,3 C 10,6 C 10,0 C 98 % 1011,4 hPa 0,0 l/m 7,5 km/h (2 Bft) O-SO 108 0 min 0,000 mm 0,0 UV-I 0 W/m 9,0 C 8,5 C 11,3 km/h (2 Bft) 96,23 %
20.10.2019 07:12 9,3 C 10,6 C 10,0 C 98 % 1011,4 hPa 0,0 l/m 8,7 km/h (2 Bft) O 88 0 min 0,000 mm 0,0 UV-I 0 W/m 9,0 C 7,6 C 11,3 km/h (2 Bft) 97,37 %
20.10.2019 07:14 9,3 C 10,6 C 10,0 C 98 % 1011,4 hPa 0,0 l/m 8,5 km/h (2 Bft) O 100 0 min 0,000 mm 0,0 UV-I 0 W/m 9,0 C 7,8 C 12,9 km/h (3 Bft) 98,00 %
20.10.2019 07:16 9,3 C 10,6 C 10,0 C 98 % 1011,3 hPa 0,0 l/m 12,2 km/h (2 Bft) O 93 0 min 0,000 mm 0,0 UV-I 0 W/m 9,0 C 5,6 C 16,1 km/h (3 Bft) 98,11 %
20.10.2019 07:18 9,2 C 10,6 C 10,0 C 98 % 1011,4 hPa 0,0 l/m 11,6 km/h (2 Bft) O-SO 110 0 min 0,000 mm 0,0 UV-I 0 W/m 8,9 C 5,8 C 14,5 km/h (3 Bft) 97,56 %
20.10.2019 07:20 9,3 C 10,6 C 10,0 C 98 % 1011,4 hPa 0,0 l/m 6,7 km/h (2 Bft) O 86 0 min 0,000 mm 0,0 UV-I 0 W/m 9,0 C 9,1 C 11,3 km/h (2 Bft) 97,73 %
20.10.2019 07:22 9,3 C 10,6 C 10,0 C 98 % 1011,4 hPa 0,0 l/m 9,6 km/h (2 Bft) O 99 0 min 0,000 mm 0,0 UV-I 0 W/m 9,0 C 7,1 C 12,9 km/h (3 Bft) 97,87 %
20.10.2019 07:24 9,3 C 10,6 C 10,0 C 98 % 1011,4 hPa 0,0 l/m 11,1 km/h (2 Bft) O 92 0 min 0,000 mm 0,0 UV-I 0 W/m 9,0 C 6,2 C 12,9 km/h (3 Bft) 97,73 %
20.10.2019 07:26 9,3 C 10,6 C 10,0 C 98 % 1011,4 hPa 0,0 l/m 10,9 km/h (2 Bft) O 96 0 min 0,000 mm 0,0 UV-I 0 W/m 9,0 C 6,3 C 14,5 km/h (3 Bft) 96,43 %
20.10.2019 07:28 9,3 C 10,6 C 10,0 C 98 % 1011,4 hPa 0,0 l/m 10,4 km/h (2 Bft) O 95 0 min 0,000 mm 0,0 UV-I 3 W/m 9,0 C 6,6 C 14,5 km/h (3 Bft) 97,37 %
20.10.2019 07:30 9,3 C 10,6 C 10,0 C 98 % 1011,3 hPa 0,0 l/m 9,4 km/h (2 Bft) O-NO 59 0 min 0,000 mm 0,0 UV-I 5 W/m 9,0 C 7,2 C 12,9 km/h (3 Bft) 97,87 %
20.10.2019 07:32 9,3 C 10,6 C 10,0 C 98 % 1011,4 hPa 0,0 l/m 6,7 km/h (2 Bft) O 82 0 min 0,000 mm 0,0 UV-I 5 W/m 9,0 C 9,1 C 11,3 km/h (2 Bft) 98,00 %
20.10.2019 07:34 9,3 C 10,6 C 10,0 C 98 % 1011,3 hPa 0,0 l/m 7,1 km/h (2 Bft) O 82 0 min 0,000 mm 0,0 UV-I 5 W/m 9,0 C 8,8 C 11,3 km/h (2 Bft) 98,00 %
20.10.2019 07:36 9,3 C 10,6 C 10,0 C 98 % 1011,4 hPa 0,0 l/m 8,6 km/h (2 Bft) NO 50 0 min 0,000 mm 0,0 UV-I 5 W/m 9,0 C 7,7 C 14,5 km/h (3 Bft) 96,00 %
20.10.2019 07:38 9,3 C 10,6 C 10,0 C 98 % 1011,4 hPa 0,0 l/m 8,9 km/h (2 Bft) O-NO 67 0 min 0,000 mm 0,0 UV-I 6 W/m 9,0 C 7,5 C 14,5 km/h (3 Bft) 97,56 %
20.10.2019 07:40 9,2 C 10,6 C 10,0 C 98 % 1011,5 hPa 0,0 l/m 10,7 km/h (2 Bft) O-NO 72 0 min 0,000 mm 0,0 UV-I 7 W/m 8,9 C 6,3 C 14,5 km/h (3 Bft) 98,00 %
20.10.2019 07:42 9,2 C 10,6 C 10,0 C 98 % 1011,4 hPa 0,0 l/m 9,0 km/h (2 Bft) O-NO 63 0 min 0,000 mm 0,0 UV-I 7 W/m 8,9 C 7,3 C 14,5 km/h (3 Bft) 95,74 %
20.10.2019 07:44 9,2 C 10,6 C 10,0 C 98 % 1011,5 hPa 0,0 l/m 10,7 km/h (2 Bft) O 94 0 min 0,000 mm 0,0 UV-I 7 W/m 8,9 C 6,3 C 14,5 km/h (3 Bft) 98,00 %
20.10.2019 07:46 9,2 C 10,6 C 10,0 C 98 % 1011,6 hPa 0,0 l/m 6,7 km/h (2 Bft) O-NO 64 0 min 0,000 mm 0,0 UV-I 9 W/m 8,9 C 9,0 C 11,3 km/h (2 Bft) 93,62 %
20.10.2019 07:48 9,3 C 10,6 C 10,0 C 98 % 1011,6 hPa 0,0 l/m 8,1 km/h (2 Bft) O 84 0 min 0,000 mm 0,0 UV-I 9 W/m 9,0 C 8,0 C 14,5 km/h (3 Bft) 95,24 %
20.10.2019 07:50 9,2 C 10,6 C 10,0 C 98 % 1011,6 hPa 0,0 l/m 9,9 km/h (2 Bft) O-NO 70 0 min 0,000 mm 0,0 UV-I 9 W/m 8,9 C 6,8 C 14,5 km/h (3 Bft) 96,43 %
20.10.2019 07:52 9,2 C 10,6 C 10,0 C 98 % 1011,6 hPa 0,0 l/m 8,9 km/h (2 Bft) O-NO 65 0 min 0,000 mm 0,0 UV-I 10 W/m 8,9 C 7,4 C 12,9 km/h (3 Bft) 97,06 %
20.10.2019 07:54 9,2 C 10,6 C 10,0 C 98 % 1011,6 hPa 0,0 l/m 7,0 km/h (2 Bft) O 97 0 min 0,000 mm 0,0 UV-I 11 W/m 8,9 C 8,8 C 11,3 km/h (2 Bft) 98,00 %
20.10.2019 07:56 9,2 C 10,6 C 10,0 C 98 % 1011,7 hPa 0,0 l/m 8,3 km/h (2 Bft) NO 54 0 min 0,000 mm 0,0 UV-I 12 W/m 8,9 C 7,8 C 14,5 km/h (3 Bft) 97,37 %
20.10.2019 07:58 9,2 C 10,6 C 10,0 C 98 % 1011,7 hPa 0,0 l/m 11,6 km/h (2 Bft) O 82 0 min 0,000 mm 0,0 UV-I 12 W/m 8,9 C 5,8 C 16,1 km/h (3 Bft) 98,21 %
20.10.2019 08:00 9,2 C 10,6 C 10,0 C 98 % 1011,8 hPa 0,0 l/m 10,6 km/h (2 Bft) O 81 0 min 0,000 mm 0,0 UV-I 12 W/m 8,9 C 6,4 C 14,5 km/h (3 Bft) 97,73 %
20.10.2019 08:02 9,2 C 10,6 C 10,0 C 98 % 1011,8 hPa 0,0 l/m 9,0 km/h (2 Bft) O-NO 73 0 min 0,000 mm 0,0 UV-I 14 W/m 8,9 C 7,3 C 12,9 km/h (3 Bft) 98,00 %
20.10.2019 08:04 9,2 C 10,6 C 10,0 C 98 % 1011,9 hPa 0,0 l/m 9,0 km/h (2 Bft) O 86 0 min 0,000 mm 0,0 UV-I 15 W/m 8,9 C 7,3 C 12,9 km/h (3 Bft) 97,37 %
20.10.2019 08:06 9,2 C 10,6 C 10,0 C 98 % 1011,8 hPa 0,0 l/m 8,7 km/h (2 Bft) O-NO 70 0 min 0,000 mm 0,0 UV-I 13 W/m 8,9 C 7,5 C 12,9 km/h (3 Bft) 100,00 %
20.10.2019 08:08 9,2 C 10,6 C 10,0 C 98 % 1011,8 hPa 0,0 l/m 8,6 km/h (2 Bft) O 82 0 min 0,000 mm 0,0 UV-I 14 W/m 8,9 C 7,6 C 12,9 km/h (3 Bft) 98,00 %
20.10.2019 08:10 9,2 C 10,6 C 10,0 C 98 % 1011,9 hPa 0,0 l/m 7,5 km/h (2 Bft) O-NO 73 0 min 0,000 mm 0,0 UV-I 11 W/m 8,9 C 8,4 C 12,9 km/h (3 Bft) 100,00 %
20.10.2019 08:12 9,2 C 10,6 C 10,0 C 98 % 1011,9 hPa 0,0 l/m 7,4 km/h (2 Bft) O-NO 61 0 min 0,000 mm 0,0 UV-I 11 W/m 8,9 C 8,4 C 12,9 km/h (3 Bft) 100,00 %
20.10.2019 08:14 9,2 C 10,6 C 10,0 C 98 % 1012,0 hPa 0,0 l/m 8,7 km/h (2 Bft) O-NO 72 0 min 0,000 mm 0,0 UV-I 12 W/m 8,9 C 7,5 C 14,5 km/h (3 Bft) 100,00 %
20.10.2019 08:16 9,2 C 10,6 C 10,0 C 98 % 1012,0 hPa 0,0 l/m 10,0 km/h (2 Bft) O-NO 74 0 min 0,000 mm 0,0 UV-I 15 W/m 8,9 C 6,7 C 14,5 km/h (3 Bft) 100,00 %
20.10.2019 08:18 9,2 C 10,6 C 10,0 C 98 % 1012,0 hPa 0,0 l/m 10,7 km/h (2 Bft) O-SO 119 0 min 0,000 mm 0,0 UV-I 17 W/m 8,9 C 6,3 C 14,5 km/h (3 Bft) 100,00 %
20.10.2019 08:20 9,1 C 10,6 C 10,0 C 98 % 1011,9 hPa 0,0 l/m 10,7 km/h (2 Bft) O 85 0 min 0,000 mm 0,0 UV-I 22 W/m 8,8 C 6,2 C 14,5 km/h (3 Bft) 97,87 %
20.10.2019 08:22 9,1 C 10,6 C 10,0 C 98 % 1011,9 hPa 0,0 l/m 12,4 km/h (3 Bft) O-SO 105 0 min 0,000 mm 0,0 UV-I 22 W/m 8,8 C 5,3 C 17,7 km/h (3 Bft) 97,87 %
20.10.2019 08:24 9,1 C 10,6 C 10,0 C 98 % 1011,8 hPa 0,0 l/m 11,9 km/h (2 Bft) O 81 0 min 0,000 mm 0,0 UV-I 24 W/m 8,8 C 5,5 C 16,1 km/h (3 Bft) 100,00 %
20.10.2019 08:26 9,2 C 10,6 C 10,0 C 98 % 1011,9 hPa 0,0 l/m 10,2 km/h (2 Bft) O-SO 111 0 min 0,000 mm 0,0 UV-I 21 W/m 8,9 C 6,6 C 14,5 km/h (3 Bft) 100,00 %
20.10.2019 08:28 9,2 C 10,6 C 10,0 C 98 % 1011,8 hPa 0,0 l/m 11,1 km/h (2 Bft) O 92 0 min 0,000 mm 0,0 UV-I 26 W/m 8,9 C 6,1 C 14,5 km/h (3 Bft) 100,00 %
20.10.2019 08:30 9,2 C 10,6 C 10,0 C 98 % 1011,9 hPa 0,0 l/m 8,0 km/h (2 Bft) O-SO 104 0 min 0,000 mm 0,0 UV-I 30 W/m 8,9 C 8,0 C 12,9 km/h (3 Bft) 98,00 %
20.10.2019 08:32 9,2 C 10,6 C 10,0 C 98 % 1011,8 hPa 0,0 l/m 11,1 km/h (2 Bft) O-SO 116 0 min 0,000 mm 0,0 UV-I 24 W/m 8,9 C 6,1 C 14,5 km/h (3 Bft) 100,00 %
20.10.2019 08:34 9,2 C 10,6 C 10,0 C 98 % 1011,8 hPa 0,0 l/m 9,6 km/h (2 Bft) O 91 0 min 0,000 mm 0,0 UV-I 16 W/m 8,9 C 7,0 C 12,9 km/h (3 Bft) 100,00 %
20.10.2019 08:36 9,2 C 10,6 C 10,0 C 98 % 1011,8 hPa 0,0 l/m 7,4 km/h (2 Bft) O 84 0 min 0,000 mm 0,0 UV-I 14 W/m 8,9 C 8,4 C 11,3 km/h (2 Bft) 100,00 %
20.10.2019 08:39 9,2 C 10,6 C 10,0 C 98 % 1011,8 hPa 0,0 l/m 6,9 km/h (2 Bft) O-NO 71 0 min 0,000 mm 0,0 UV-I 29 W/m 8,9 C 8,8 C 12,9 km/h (3 Bft) 97,06 %
20.10.2019 08:40 9,2 C 10,6 C 10,0 C 98 % 1011,8 hPa 0,0 l/m 8,0 km/h (2 Bft) O 95 0 min 0,000 mm 0,0 UV-I 32 W/m 8,9 C 8,0 C 11,3 km/h (2 Bft) 95,65 %
20.10.2019 08:42 9,3 C 10,6 C 10,0 C 98 % 1011,8 hPa 0,0 l/m 8,2 km/h (2 Bft) O-NO 78 0 min 0,000 mm 0,0 UV-I 33 W/m 9,0 C 8,0 C 14,5 km/h (3 Bft) 98,00 %
20.10.2019 08:44 9,2 C 10,6 C 10,0 C 98 % 1011,9 hPa 0,0 l/m 10,0 km/h (2 Bft) O-NO 76 0 min 0,000 mm 0,0 UV-I 35 W/m 8,9 C 6,7 C 12,9 km/h (3 Bft) 100,00 %
20.10.2019 08:46 9,2 C 10,6 C 10,0 C 98 % 1011,9 hPa 0,0 l/m 7,0 km/h (2 Bft) O 86 0 min 0,000 mm 0,0 UV-I 37 W/m 8,9 C 8,8 C 12,9 km/h (3 Bft) 94,74 %
20.10.2019 08:48 9,2 C 10,6 C 10,0 C 98 % 1011,9 hPa 0,0 l/m 11,3 km/h (2 Bft) O 89 0 min 0,000 mm 0,0 UV-I 39 W/m 8,9 C 6,0 C 16,1 km/h (3 Bft) 97,87 %
20.10.2019 08:50 9,1 C 10,6 C 10,0 C 98 % 1011,9 hPa 0,0 l/m 12,4 km/h (3 Bft) O 88 0 min 0,000 mm 0,0 UV-I 41 W/m 8,8 C 5,3 C 17,7 km/h (3 Bft) 94,34 %
20.10.2019 08:52 9,1 C 10,6 C 10,0 C 98 % 1012,0 hPa 0,0 l/m 12,7 km/h (3 Bft) O 89 0 min 0,000 mm 0,0 UV-I 46 W/m 8,8 C 5,1 C 16,1 km/h (3 Bft) 97,44 %
20.10.2019 08:54 9,1 C 10,6 C 10,0 C 98 % 1012,0 hPa 0,0 l/m 10,0 km/h (2 Bft) O-NO 74 0 min 0,000 mm 0,0 UV-I 49 W/m 8,8 C 6,6 C 14,5 km/h (3 Bft) 98,28 %
20.10.2019 08:56 9,1 C 10,6 C 10,0 C 98 % 1012,1 hPa 0,0 l/m 7,5 km/h (2 Bft) O-NO 77 0 min 0,000 mm 0,0 UV-I 49 W/m 8,8 C 8,3 C 11,3 km/h (2 Bft) 100,00 %
20.10.2019 08:58 9,2 C 10,6 C 10,0 C 98 % 1012,1 hPa 0,0 l/m 9,7 km/h (2 Bft) O-NO 57 0 min 0,000 mm 0,0 UV-I 43 W/m 8,9 C 6,9 C 14,5 km/h (3 Bft) 96,92 %
20.10.2019 09:00 9,2 C 10,6 C 10,0 C 98 % 1012,1 hPa 0,0 l/m 7,7 km/h (2 Bft) O 80 0 min 0,025 mm 0,0 UV-I 47 W/m 8,9 C 8,2 C 12,9 km/h (3 Bft) 98,00 %
20.10.2019 09:02 9,2 C 10,6 C 10,6 C 98 % 1012,1 hPa 0,0 l/m 7,2 km/h (2 Bft) NO 54 0 min 0,000 mm 0,0 UV-I 53 W/m 8,9 C 8,6 C 12,9 km/h (3 Bft) 95,74 %
20.10.2019 09:04 9,2 C 10,6 C 10,6 C 98 % 1012,1 hPa 0,0 l/m 11,6 km/h (2 Bft) O 83 0 min 0,000 mm 0,0 UV-I 55 W/m 8,9 C 5,8 C 14,5 km/h (3 Bft) 94,74 %
20.10.2019 09:06 9,2 C 10,6 C 10,6 C 98 % 1012,1 hPa 0,0 l/m 11,0 km/h (2 Bft) O-SO 102 0 min 0,000 mm 0,0 UV-I 53 W/m 8,9 C 6,1 C 16,1 km/h (3 Bft) 92,00 %
20.10.2019 09:08 9,3 C 10,6 C 10,6 C 98 % 1012,2 hPa 0,0 l/m 12,3 km/h (3 Bft) O-SO 105 0 min 0,000 mm 0,0 UV-I 51 W/m 9,0 C 5,6 C 16,1 km/h (3 Bft) 92,00 %
20.10.2019 09:10 9,3 C 10,6 C 10,6 C 98 % 1012,2 hPa 0,0 l/m 10,0 km/h (2 Bft) O 98 0 min 0,000 mm 0,0 UV-I 38 W/m 9,0 C 6,8 C 17,7 km/h (3 Bft) 90,24 %
20.10.2019 09:12 9,2 C 10,6 C 10,6 C 98 % 1012,1 hPa 0,0 l/m 10,6 km/h (2 Bft) O-SO 121 0 min 0,000 mm 0,0 UV-I 40 W/m 8,9 C 6,4 C 16,1 km/h (3 Bft) 90,57 %
20.10.2019 09:14 9,2 C 10,6 C 10,6 C 98 % 1012,1 hPa 0,0 l/m 6,8 km/h (2 Bft) SO 142 0 min 0,000 mm 0,0 UV-I 44 W/m 8,9 C 8,9 C 11,3 km/h (2 Bft) 92,00 %
20.10.2019 09:16 9,2 C 10,6 C 10,6 C 98 % 1012,1 hPa 0,0 l/m 10,6 km/h (2 Bft) O 97 0 min 0,000 mm 0,0 UV-I 48 W/m 8,9 C 6,4 C 16,1 km/h (3 Bft) 89,47 %
20.10.2019 09:18 9,2 C 10,6 C 10,6 C 98 % 1012,1 hPa 0,0 l/m 8,7 km/h (2 Bft) SO 127 0 min 0,000 mm 0,0 UV-I 46 W/m 8,9 C 7,5 C 11,3 km/h (2 Bft) 94,64 %
20.10.2019 09:20 9,2 C 10,6 C 10,6 C 98 % 1012,1 hPa 0,0 l/m 10,8 km/h (2 Bft) O-SO 106 0 min 0,000 mm 0,0 UV-I 52 W/m 8,9 C 6,2 C 16,1 km/h (3 Bft) 92,11 %
20.10.2019 09:22 9,2 C 10,6 C 10,6 C 98 % 1012,1 hPa 0,0 l/m 12,0 km/h (2 Bft) O 80 0 min 0,000 mm 0,0 UV-I 52 W/m 8,9 C 5,6 C 17,7 km/h (3 Bft) 88,64 %
20.10.2019 09:24 9,2 C 10,6 C 10,6 C 98 % 1012,1 hPa 0,0 l/m 9,4 km/h (2 Bft) O 86 0 min 0,000 mm 0,0 UV-I 64 W/m 8,9 C 7,1 C 12,9 km/h (3 Bft) 94,87 %
20.10.2019 09:26 9,2 C 10,6 C 10,6 C 98 % 1012,1 hPa 0,0 l/m 7,0 km/h (2 Bft) O 86 0 min 0,000 mm 0,0 UV-I 69 W/m 8,9 C 8,8 C 12,9 km/h (3 Bft) 94,34 %
20.10.2019 09:28 9,2 C 10,6 C 11,1 C 98 % 1012,1 hPa 0,0 l/m 8,2 km/h (2 Bft) O 98 0 min 0,000 mm 0,0 UV-I 70 W/m 8,9 C 7,9 C 12,9 km/h (3 Bft) 94,00 %
20.10.2019 09:30 9,3 C 10,6 C 10,6 C 98 % 1012,1 hPa 0,0 l/m 5,9 km/h (2 Bft) O-NO 77 0 min 0,000 mm 0,0 UV-I 66 W/m 9,0 C 9,3 C 12,9 km/h (3 Bft) 94,23 %
20.10.2019 09:32 9,3 C 10,6 C 10,6 C 98 % 1012,1 hPa 0,0 l/m 9,1 km/h (2 Bft) O-NO 76 0 min 0,000 mm 0,0 UV-I 66 W/m 9,0 C 7,4 C 14,5 km/h (3 Bft) 91,49 %
20.10.2019 09:34 9,3 C 10,6 C 10,6 C 98 % 1012,2 hPa 0,0 l/m 8,8 km/h (2 Bft) O-NO 69 0 min 0,000 mm 0,0 UV-I 67 W/m 9,0 C 7,6 C 12,9 km/h (3 Bft) 95,74 %
20.10.2019 09:36 9,3 C 10,6 C 10,6 C 98 % 1012,2 hPa 0,0 l/m 11,1 km/h (2 Bft) O-NO 73 0 min 0,000 mm 0,0 UV-I 71 W/m 9,0 C 6,2 C 16,1 km/h (3 Bft) 90,48 %
20.10.2019 09:38 9,3 C 10,6 C 11,1 C 98 % 1012,2 hPa 0,0 l/m 8,3 km/h (2 Bft) O 98 0 min 0,000 mm 0,0 UV-I 75 W/m 9,0 C 7,9 C 14,5 km/h (3 Bft) 96,00 %
20.10.2019 09:40 9,3 C 10,6 C 11,1 C 98 % 1012,2 hPa 0,0 l/m 8,6 km/h (2 Bft) O-SO 111 0 min 0,000 mm 0,0 UV-I 78 W/m 9,0 C 7,7 C 12,9 km/h (3 Bft) 94,34 %
20.10.2019 09:42 9,3 C 10,6 C 11,1 C 98 % 1012,3 hPa 0,0 l/m 9,8 km/h (2 Bft) O-SO 119 0 min 0,000 mm 0,0 UV-I 82 W/m 9,0 C 6,9 C 12,9 km/h (3 Bft) 95,74 %
20.10.2019 09:44 9,3 C 10,6 C 11,1 C 98 % 1012,3 hPa 0,0 l/m 8,9 km/h (2 Bft) O 101 0 min 0,000 mm 0,0 UV-I 81 W/m 9,0 C 7,5 C 12,9 km/h (3 Bft) 97,14 %
20.10.2019 09:46 9,3 C 10,6 C 11,1 C 98 % 1012,3 hPa 0,0 l/m 7,9 km/h (2 Bft) O-SO 111 0 min 0,000 mm 0,0 UV-I 83 W/m 9,0 C 8,2 C 11,3 km/h (2 Bft) 96,23 %
20.10.2019 09:48 9,3 C 10,6 C 11,1 C 98 % 1012,3 hPa 0,0 l/m 8,8 km/h (2 Bft) O-SO 113 0 min 0,000 mm 0,0 UV-I 79 W/m 9,0 C 7,6 C 12,9 km/h (3 Bft) 97,87 %
20.10.2019 09:50 9,3 C 10,6 C 11,1 C 98 % 1012,4 hPa 0,0 l/m 9,5 km/h (2 Bft) O 86 0 min 0,000 mm 0,0 UV-I 76 W/m 9,0 C 7,1 C 12,9 km/h (3 Bft) 96,00 %
20.10.2019 09:52 9,3 C 10,6 C 11,1 C 98 % 1012,4 hPa 0,0 l/m 6,6 km/h (2 Bft) O-SO 103 0 min 0,000 mm 0,0 UV-I 72 W/m 9,0 C 9,2 C 11,3 km/h (2 Bft) 92,68 %
20.10.2019 09:54 9,4 C 10,6 C 11,1 C 98 % 1012,3 hPa 0,0 l/m 7,8 km/h (2 Bft) O-NO 59 0 min 0,000 mm 0,0 UV-I 71 W/m 9,1 C 8,4 C 14,5 km/h (3 Bft) 100,00 %
20.10.2019 09:56 9,5 C 10,6 C 11,1 C 98 % 1012,2 hPa 0,0 l/m 12,3 km/h (3 Bft) NO 53 0 min 0,000 mm 0,0 UV-I 70 W/m 9,2 C 5,8 C 17,7 km/h (3 Bft) 100,00 %
20.10.2019 09:58 9,4 C 10,6 C 11,1 C 98 % 1012,2 hPa 0,0 l/m 13,0 km/h (3 Bft) O-NO 65 0 min 0,000 mm 0,0 UV-I 71 W/m 9,1 C 5,3 C 19,3 km/h (3 Bft) 97,01 %
20.10.2019 10:00 9,4 C 10,6 C 11,1 C 98 % 1012,1 hPa 0,0 l/m 8,5 km/h (2 Bft) NO 49 0 min 0,026 mm 0,0 UV-I 77 W/m 9,1 C 7,9 C 12,9 km/h (3 Bft) 100,00 %
20.10.2019 10:02 9,4 C 10,6 C 11,1 C 98 % 1012,2 hPa 0,0 l/m 9,8 km/h (2 Bft) NO 42 0 min 0,000 mm 0,0 UV-I 77 W/m 9,1 C 7,1 C 19,3 km/h (3 Bft) 100,00 %
20.10.2019 10:04 9,5 C 10,6 C 11,1 C 98 % 1012,2 hPa 0,0 l/m 11,7 km/h (2 Bft) NO 53 0 min 0,000 mm 0,0 UV-I 70 W/m 9,2 C 6,1 C 17,7 km/h (3 Bft) 100,00 %
20.10.2019 10:06 9,4 C 10,6 C 10,6 C 98 % 1012,3 hPa 0,0 l/m 10,6 km/h (2 Bft) N-NO 12 0 min 0,000 mm 0,0 UV-I 70 W/m 9,1 C 6,6 C 16,1 km/h (3 Bft) 100,00 %
20.10.2019 10:08 9,3 C 10,6 C 10,6 C 98 % 1012,2 hPa 0,0 l/m 10,4 km/h (2 Bft) O-NO 61 0 min 0,000 mm 0,0 UV-I 68 W/m 9,0 C 6,6 C 16,1 km/h (3 Bft) 100,00 %
20.10.2019 10:10 9,3 C 10,6 C 10,6 C 98 % 1012,3 hPa 0,0 l/m 11,3 km/h (2 Bft) O 86 0 min 0,000 mm 0,0 UV-I 67 W/m 9,0 C 6,1 C 17,7 km/h (3 Bft) 100,00 %
20.10.2019 10:12 9,3 C 10,6 C 11,1 C 98 % 1012,2 hPa 0,0 l/m 12,8 km/h (3 Bft) O 96 0 min 0,000 mm 0,0 UV-I 89 W/m 9,0 C 5,3 C 16,1 km/h (3 Bft) 100,00 %
20.10.2019 10:14 9,2 C 10,6 C 11,1 C 98 % 1012,2 hPa 0,0 l/m 13,2 km/h (3 Bft) O-SO 106 0 min 0,000 mm 0,0 UV-I 78 W/m 8,9 C 5,0 C 16,1 km/h (3 Bft) 100,00 %
20.10.2019 10:16 9,3 C 10,6 C 11,1 C 98 % 1012,3 hPa 0,0 l/m 10,9 km/h (2 Bft) O-SO 115 0 min 0,000 mm 0,0 UV-I 90 W/m 9,0 C 6,3 C 17,7 km/h (3 Bft) 100,00 %
20.10.2019 10:18 9,3 C 10,6 C 11,1 C 98 % 1012,2 hPa 0,0 l/m 10,9 km/h (2 Bft) O-SO 106 0 min 0,000 mm 0,0 UV-I 96 W/m 9,0 C 6,3 C 16,1 km/h (3 Bft) 100,00 %
20.10.2019 10:20 9,3 C 10,6 C 11,7 C 98 % 1012,2 hPa 0,0 l/m 10,1 km/h (2 Bft) O 99 0 min 0,000 mm 0,0 UV-I 101 W/m 9,0 C 6,8 C 12,9 km/h (3 Bft) 100,00 %
20.10.2019 10:22 9,3 C 10,6 C 11,7 C 98 % 1012,2 hPa 0,0 l/m 10,5 km/h (2 Bft) O 84 0 min 0,000 mm 0,0 UV-I 106 W/m 9,0 C 6,5 C 16,1 km/h (3 Bft) 98,00 %
20.10.2019 10:24 9,4 C 10,6 C 11,7 C 98 % 1012,2 hPa 0,0 l/m 7,7 km/h (2 Bft) O 89 0 min 0,000 mm 0,0 UV-I 112 W/m 9,1 C 8,4 C 12,9 km/h (3 Bft) 100,00 %
20.10.2019 10:26 9,4 C 10,6 C 11,7 C 98 % 1012,3 hPa 0,0 l/m 7,4 km/h (2 Bft) O-SO 115 0 min 0,000 mm 0,0 UV-I 109 W/m 9,1 C 8,7 C 12,9 km/h (3 Bft) 97,56 %
20.10.2019 10:28 9,4 C 10,6 C 11,7 C 98 % 1012,3 hPa 0,0 l/m 8,2 km/h (2 Bft) O 87 0 min 0,000 mm 0,0 UV-I 100 W/m 9,1 C 8,1 C 12,9 km/h (3 Bft) 96,00 %
20.10.2019 10:30 9,4 C 10,6 C 11,7 C 98 % 1012,2 hPa 0,0 l/m 9,2 km/h (2 Bft) O-SO 105 0 min 0,000 mm 0,0 UV-I 94 W/m 9,1 C 7,4 C 14,5 km/h (3 Bft) 100,00 %
20.10.2019 10:32 9,4 C 10,6 C 11,7 C 98 % 1012,2 hPa 0,0 l/m 11,8 km/h (2 Bft) O 100 0 min 0,000 mm 0,0 UV-I 94 W/m 9,1 C 5,9 C 14,5 km/h (3 Bft) 96,77 %
20.10.2019 10:34 9,4 C 10,6 C 11,7 C 98 % 1012,3 hPa 0,0 l/m 12,1 km/h (2 Bft) O-NO 73 0 min 0,000 mm 0,0 UV-I 94 W/m 9,1 C 5,8 C 17,7 km/h (3 Bft) 98,11 %
20.10.2019 10:36 9,4 C 10,6 C 11,7 C 98 % 1012,3 hPa 0,0 l/m 11,5 km/h (2 Bft) O-NO 75 0 min 0,000 mm 0,0 UV-I 95 W/m 9,1 C 6,1 C 16,1 km/h (3 Bft) 92,11 %
20.10.2019 10:38 9,3 C 10,6 C 11,7 C 98 % 1012,4 hPa 0,0 l/m 9,4 km/h (2 Bft) O-NO 76 0 min 0,000 mm 0,0 UV-I 86 W/m 9,0 C 7,2 C 14,5 km/h (3 Bft) 98,11 %
20.10.2019 10:40 9,3 C 10,6 C 11,7 C 98 % 1012,5 hPa 0,0 l/m 11,7 km/h (2 Bft) N-NO 32 0 min 0,000 mm 0,0 UV-I 87 W/m 9,0 C 5,9 C 17,7 km/h (3 Bft) 97,87 %
20.10.2019 10:42 9,3 C 10,6 C 11,7 C 98 % 1012,4 hPa 0,0 l/m 9,2 km/h (2 Bft) O-NO 60 0 min 0,000 mm 0,0 UV-I 89 W/m 9,0 C 7,3 C 12,9 km/h (3 Bft) 98,00 %
20.10.2019 10:44 9,4 C 10,6 C 11,7 C 98 % 1012,4 hPa 0,0 l/m 8,6 km/h (2 Bft) O-NO 71 0 min 0,000 mm 0,0 UV-I 92 W/m 9,1 C 7,8 C 12,9 km/h (3 Bft) 97,56 %
20.10.2019 10:46 9,4 C 10,6 C 11,7 C 98 % 1012,5 hPa 0,0 l/m 8,9 km/h (2 Bft) O-NO 63 0 min 0,000 mm 0,0 UV-I 90 W/m 9,1 C 7,6 C 16,1 km/h (3 Bft) 96,00 %
20.10.2019 10:48 9,4 C 10,6 C 11,7 C 98 % 1012,4 hPa 0,0 l/m 11,1 km/h (2 Bft) NO 51 0 min 0,000 mm 0,0 UV-I 96 W/m 9,1 C 6,3 C 16,1 km/h (3 Bft) 97,44 %
20.10.2019 10:50 9,5 C 10,6 C 11,7 C 98 % 1012,5 hPa 0,0 l/m 11,2 km/h (2 Bft) NO 46 0 min 0,000 mm 0,0 UV-I 97 W/m 9,2 C 6,4 C 17,7 km/h (3 Bft) 95,12 %
20.10.2019 10:52 9,5 C 10,6 C 11,7 C 98 % 1012,4 hPa 0,0 l/m 9,9 km/h (2 Bft) O-NO 60 0 min 0,000 mm 0,0 UV-I 104 W/m 9,2 C 7,1 C 14,5 km/h (3 Bft) 96,61 %
20.10.2019 10:54 9,5 C 10,6 C 11,7 C 98 % 1012,4 hPa 0,0 l/m 11,1 km/h (2 Bft) O-NO 57 0 min 0,000 mm 0,0 UV-I 100 W/m 9,2 C 6,4 C 16,1 km/h (3 Bft) 100,00 %
20.10.2019 10:56 9,5 C 10,6 C 11,7 C 98 % 1012,4 hPa 0,0 l/m 10,7 km/h (2 Bft) NO 51 0 min 0,000 mm 0,0 UV-I 87 W/m 9,2 C 6,6 C 14,5 km/h (3 Bft) 100,00 %
20.10.2019 10:58 9,4 C 10,6 C 11,7 C 98 % 1012,4 hPa 0,0 l/m 9,0 km/h (2 Bft) O-NO 63 0 min 0,000 mm 0,0 UV-I 78 W/m 9,1 C 7,6 C 12,9 km/h (3 Bft) 100,00 %
20.10.2019 11:00 9,4 C 10,6 C 11,7 C 98 % 1012,4 hPa 0,0 l/m 9,9 km/h (2 Bft) O-SO 111 0 min 0,051 mm 0,0 UV-I 70 W/m 9,1 C 7,0 C 14,5 km/h (3 Bft) 97,14 %
20.10.2019 11:02 9,4 C 10,6 C 11,7 C 98 % 1012,5 hPa 0,0 l/m 8,9 km/h (2 Bft) O 90 0 min 0,000 mm 0,0 UV-I 72 W/m 9,1 C 7,6 C 14,5 km/h (3 Bft) 100,00 %
20.10.2019 11:04 9,4 C 10,6 C 11,7 C 98 % 1012,5 hPa 0,0 l/m 11,4 km/h (2 Bft) O-SO 104 0 min 0,000 mm 0,0 UV-I 73 W/m 9,1 C 6,1 C 14,5 km/h (3 Bft) 100,00 %
20.10.2019 11:06 9,4 C 10,6 C 11,7 C 98 % 1012,4 hPa 0,0 l/m 10,2 km/h (2 Bft) O-SO 114 0 min 0,000 mm 0,0 UV-I 71 W/m 9,1 C 6,8 C 14,5 km/h (3 Bft) 100,00 %
20.10.2019 11:08 9,4 C 10,6 C 11,7 C 98 % 1012,5 hPa 0,0 l/m 8,9 km/h (2 Bft) O-SO 102 0 min 0,000 mm 0,0 UV-I 78 W/m 9,1 C 7,6 C 12,9 km/h (3 Bft) 97,87 %
20.10.2019 11:10 9,4 C 10,6 C 11,7 C 98 % 1012,4 hPa 0,0 l/m 7,1 km/h (2 Bft) O 91 0 min 0,000 mm 0,0 UV-I 91 W/m 9,1 C 8,9 C 11,3 km/h (2 Bft) 96,15 %
20.10.2019 11:12 9,4 C 10,6 C 11,7 C 98 % 1012,4 hPa 0,0 l/m 7,3 km/h (2 Bft) O-SO 115 0 min 0,000 mm 0,3 UV-I 99 W/m 9,1 C 8,7 C 11,3 km/h (2 Bft) 95,45 %
20.10.2019 11:14 9,4 C 10,6 C 11,7 C 98 % 1012,4 hPa 0,0 l/m 8,1 km/h (2 Bft) O-SO 117 0 min 0,000 mm 0,5 UV-I 94 W/m 9,1 C 8,2 C 12,9 km/h (3 Bft) 96,92 %
20.10.2019 11:16 9,5 C 10,6 C 12,2 C 98 % 1012,3 hPa 0,0 l/m 7,3 km/h (2 Bft) SO 127 0 min 0,000 mm 0,5 UV-I 97 W/m 9,2 C 8,8 C 12,9 km/h (3 Bft) 97,87 %
20.10.2019 11:18 9,4 C 10,6 C 12,2 C 98 % 1012,3 hPa 0,0 l/m 10,0 km/h (2 Bft) O-SO 116 0 min 0,000 mm 0,5 UV-I 102 W/m 9,1 C 6,9 C 17,7 km/h (3 Bft) 98,00 %
20.10.2019 11:20 9,4 C 10,6 C 12,2 C 98 % 1012,3 hPa 0,0 l/m 10,7 km/h (2 Bft) O 89 0 min 0,000 mm 0,5 UV-I 122 W/m 9,1 C 6,5 C 14,5 km/h (3 Bft) 97,87 %
20.10.2019 11:22 9,5 C 10,6 C 12,2 C 98 % 1012,3 hPa 0,0 l/m 11,2 km/h (2 Bft) O 96 0 min 0,000 mm 0,6 UV-I 157 W/m 9,2 C 6,4 C 16,1 km/h (3 Bft) 98,00 %
20.10.2019 11:24 9,6 C 10,6 C 12,8 C 98 % 1012,3 hPa 0,0 l/m 10,4 km/h (2 Bft) O-SO 109 0 min 0,000 mm 0,6 UV-I 160 W/m 9,3 C 6,9 C 16,1 km/h (3 Bft) 95,74 %
20.10.2019 11:26 9,6 C 10,6 C 12,8 C 98 % 1012,3 hPa 0,0 l/m 9,6 km/h (2 Bft) O-SO 103 0 min 0,000 mm 0,6 UV-I 151 W/m 9,3 C 7,4 C 16,1 km/h (3 Bft) 97,22 %
20.10.2019 11:28 9,6 C 10,6 C 12,8 C 98 % 1012,3 hPa 0,0 l/m 11,6 km/h (2 Bft) O-NO 75 0 min 0,000 mm 0,6 UV-I 154 W/m 9,3 C 6,3 C 16,1 km/h (3 Bft) 98,04 %
20.10.2019 11:30 9,6 C 10,6 C 12,8 C 98 % 1012,3 hPa 0,0 l/m 11,0 km/h (2 Bft) O-NO 65 0 min 0,000 mm 0,6 UV-I 145 W/m 9,3 C 6,6 C 14,5 km/h (3 Bft) 94,23 %
20.10.2019 11:32 9,5 C 10,6 C 12,8 C 98 % 1012,3 hPa 0,0 l/m 8,7 km/h (2 Bft) O-NO 72 0 min 0,000 mm 0,6 UV-I 135 W/m 9,2 C 7,9 C 12,9 km/h (3 Bft) 97,22 %
20.10.2019 11:34 9,6 C 10,6 C 12,8 C 98 % 1012,3 hPa 0,0 l/m 11,3 km/h (2 Bft) O 82 0 min 0,000 mm 0,5 UV-I 112 W/m 9,3 C 6,4 C 16,1 km/h (3 Bft) 98,21 %
20.10.2019 11:36 9,6 C 10,6 C 12,2 C 98 % 1012,3 hPa 0,0 l/m 10,8 km/h (2 Bft) O-NO 74 0 min 0,000 mm 0,5 UV-I 110 W/m 9,3 C 6,7 C 14,5 km/h (3 Bft) 96,00 %
20.10.2019 11:38 9,7 C 10,6 C 12,2 C 98 % 1012,3 hPa 0,0 l/m 8,8 km/h (2 Bft) O-NO 77 0 min 0,000 mm 0,5 UV-I 110 W/m 9,4 C 8,0 C 12,9 km/h (3 Bft) 97,87 %
20.10.2019 11:40 9,7 C 10,6 C 12,2 C 98 % 1012,3 hPa 0,0 l/m 6,6 km/h (2 Bft) O 80 0 min 0,000 mm 0,6 UV-I 111 W/m 9,4 C 9,6 C 12,9 km/h (3 Bft) 94,74 %
20.10.2019 11:42 9,7 C 10,6 C 12,8 C 98 % 1012,3 hPa 0,0 l/m 6,0 km/h (2 Bft) NO 49 0 min 0,000 mm 0,6 UV-I 126 W/m 9,4 C 9,7 C 11,3 km/h (2 Bft) 98,11 %
20.10.2019 11:44 9,7 C 10,6 C 12,8 C 98 % 1012,3 hPa 0,0 l/m 8,9 km/h (2 Bft) O-SO 105 0 min 0,000 mm 0,6 UV-I 128 W/m 9,4 C 7,9 C 14,5 km/h (3 Bft) 100,00 %
20.10.2019 11:46 9,8 C 10,6 C 12,8 C 98 % 1012,2 hPa 0,0 l/m 6,7 km/h (2 Bft) NO 51 0 min 0,000 mm 0,6 UV-I 128 W/m 9,5 C 9,6 C 9,7 km/h (2 Bft) 100,00 %
20.10.2019 11:48 9,9 C 10,6 C 12,8 C 98 % 1012,3 hPa 0,0 l/m 9,5 km/h (2 Bft) O-NO 60 0 min 0,000 mm 0,6 UV-I 118 W/m 9,6 C 7,8 C 14,5 km/h (3 Bft) 96,00 %
20.10.2019 11:50 9,9 C 10,6 C 12,8 C 98 % 1012,2 hPa 0,0 l/m 9,9 km/h (2 Bft) O-NO 60 0 min 0,000 mm 0,6 UV-I 124 W/m 9,6 C 7,5 C 14,5 km/h (3 Bft) 100,00 %
20.10.2019 11:52 9,7 C 10,6 C 12,8 C 98 % 1012,3 hPa 0,0 l/m 10,6 km/h (2 Bft) O-NO 58 0 min 0,000 mm 0,6 UV-I 124 W/m 9,4 C 6,9 C 14,5 km/h (3 Bft) 97,87 %
20.10.2019 11:54 9,7 C 10,6 C 12,8 C 98 % 1012,3 hPa 0,0 l/m 9,5 km/h (2 Bft) NO 56 0 min 0,000 mm 0,6 UV-I 119 W/m 9,4 C 7,6 C 16,1 km/h (3 Bft) 97,37 %
20.10.2019 11:56 9,8 C 10,6 C 12,8 C 98 % 1012,3 hPa 0,0 l/m 10,1 km/h (2 Bft) NO 44 0 min 0,000 mm 0,6 UV-I 118 W/m 9,5 C 7,3 C 16,1 km/h (3 Bft) 97,56 %
20.10.2019 11:58 9,8 C 10,6 C 12,8 C 98 % 1012,3 hPa 0,0 l/m 11,4 km/h (2 Bft) O-NO 69 0 min 0,000 mm 0,6 UV-I 117 W/m 9,5 C 6,6 C 16,1 km/h (3 Bft) 96,00 %
20.10.2019 12:00 9,8 C 10,6 C 12,8 C 98 % 1012,2 hPa 0,0 l/m 10,9 km/h (2 Bft) O 82 0 min 0,050 mm 0,7 UV-I 129 W/m 9,5 C 6,9 C 16,1 km/h (3 Bft) 98,11 %
20.10.2019 12:02 9,7 C 10,6 C 12,8 C 98 % 1012,2 hPa 0,0 l/m 10,3 km/h (2 Bft) O-NO 74 0 min 0,000 mm 0,7 UV-I 125 W/m 9,4 C 7,1 C 16,1 km/h (3 Bft) 95,74 %
20.10.2019 12:04 9,6 C 10,6 C 12,8 C 98 % 1012,2 hPa 0,0 l/m 8,6 km/h (2 Bft) O 99 0 min 0,000 mm 0,7 UV-I 131 W/m 9,3 C 8,0 C 11,3 km/h (2 Bft) 98,00 %
20.10.2019 12:06 9,7 C 10,6 C 12,8 C 98 % 1012,2 hPa 0,0 l/m 8,8 km/h (2 Bft) O-SO 115 0 min 0,000 mm 0,7 UV-I 127 W/m 9,4 C 8,0 C 11,3 km/h (2 Bft) 97,22 %
20.10.2019 12:08 9,7 C 10,6 C 12,8 C 98 % 1012,2 hPa 0,0 l/m 7,8 km/h (2 Bft) O 83 0 min 0,000 mm 0,7 UV-I 118 W/m 9,4 C 8,7 C 14,5 km/h (3 Bft) 98,28 %
20.10.2019 12:10 9,8 C 10,6 C 13,3 C 98 % 1012,2 hPa 0,0 l/m 9,8 km/h (2 Bft) O 98 0 min 0,000 mm 0,7 UV-I 141 W/m 9,5 C 7,5 C 12,9 km/h (3 Bft) 97,44 %
20.10.2019 12:12 9,8 C 10,6 C 13,3 C 98 % 1012,2 hPa 0,0 l/m 8,3 km/h (2 Bft) O-NO 65 0 min 0,000 mm 0,7 UV-I 153 W/m 9,5 C 8,4 C 11,3 km/h (2 Bft) 95,74 %
20.10.2019 12:14 9,9 C 10,6 C 13,3 C 98 % 1012,2 hPa 0,0 l/m 6,4 km/h (2 Bft) O 84 0 min 0,000 mm 0,7 UV-I 159 W/m 9,6 C 9,9 C 11,3 km/h (2 Bft) 97,87 %
20.10.2019 12:16 10,0 C 10,6 C 13,9 C 98 % 1012,3 hPa 0,0 l/m 6,1 km/h (2 Bft) O 88 0 min 0,000 mm 0,7 UV-I 155 W/m 9,7 C 10,0 C 11,3 km/h (2 Bft) 100,00 %
20.10.2019 12:18 10,1 C 10,6 C 13,9 C 98 % 1012,3 hPa 0,0 l/m 7,7 km/h (2 Bft) O 89 0 min 0,000 mm 0,7 UV-I 139 W/m 9,8 C 9,2 C 12,9 km/h (3 Bft) 96,00 %
20.10.2019 12:20 10,0 C 10,6 C 13,9 C 98 % 1012,3 hPa 0,0 l/m 10,3 km/h (2 Bft) O-SO 103 0 min 0,000 mm 0,7 UV-I 138 W/m 9,7 C 7,4 C 14,5 km/h (3 Bft) 98,11 %
20.10.2019 12:22 10,0 C 10,6 C 13,9 C 98 % 1012,3 hPa 0,0 l/m 9,2 km/h (2 Bft) O 100 0 min 0,000 mm 0,7 UV-I 135 W/m 9,7 C 8,1 C 14,5 km/h (3 Bft) 97,37 %
20.10.2019 12:24 10,0 C 10,6 C 13,9 C 98 % 1012,3 hPa 0,0 l/m 11,0 km/h (2 Bft) O-SO 104 0 min 0,000 mm 0,7 UV-I 133 W/m 9,7 C 7,0 C 14,5 km/h (3 Bft) 95,12 %
20.10.2019 12:26 9,9 C 10,6 C 13,9 C 98 % 1012,3 hPa 0,0 l/m 6,9 km/h (2 Bft) O-NO 71 0 min 0,000 mm 0,7 UV-I 121 W/m 9,6 C 9,5 C 11,3 km/h (2 Bft) 98,11 %
20.10.2019 12:28 10,0 C 10,6 C 13,9 C 98 % 1012,3 hPa 0,0 l/m 10,2 km/h (2 Bft) O-SO 105 0 min 0,000 mm 0,6 UV-I 118 W/m 9,7 C 7,5 C 14,5 km/h (3 Bft) 100,00 %
20.10.2019 12:30 10,0 C 10,6 C 13,9 C 98 % 1012,2 hPa 0,0 l/m 8,7 km/h (2 Bft) O 94 0 min 0,000 mm 0,7 UV-I 130 W/m 9,7 C 8,4 C 12,9 km/h (3 Bft) 100,00 %
20.10.2019 12:32 10,1 C 10,6 C 13,3 C 98 % 1012,1 hPa 0,0 l/m 9,5 km/h (2 Bft) O 82 0 min 0,000 mm 0,6 UV-I 103 W/m 9,8 C 8,0 C 12,9 km/h (3 Bft) 100,00 %
20.10.2019 12:34 10,1 C 10,6 C 13,3 C 98 % 1012,1 hPa 0,0 l/m 7,8 km/h (2 Bft) O-NO 74 0 min 0,000 mm 0,6 UV-I 94 W/m 9,8 C 9,1 C 12,9 km/h (3 Bft) 96,43 %
20.10.2019 12:36 10,0 C 10,6 C 13,3 C 98 % 1012,1 hPa 0,0 l/m 9,4 km/h (2 Bft) O 82 0 min 0,000 mm 0,6 UV-I 106 W/m 9,7 C 8,0 C 14,5 km/h (3 Bft) 100,00 %
20.10.2019 12:38 9,9 C 10,6 C 13,3 C 98 % 1012,1 hPa 0,0 l/m 8,8 km/h (2 Bft) NO 46 0 min 0,000 mm 0,7 UV-I 147 W/m 9,6 C 8,2 C 14,5 km/h (3 Bft) 97,87 %
20.10.2019 12:40 10,1 C 10,6 C 13,3 C 98 % 1012,1 hPa 0,0 l/m 8,8 km/h (2 Bft) N-NO 27 0 min 0,000 mm 0,7 UV-I 156 W/m 9,8 C 8,4 C 14,5 km/h (3 Bft) 95,12 %
20.10.2019 12:42 10,2 C 10,6 C 13,3 C 98 % 1012,1 hPa 0,0 l/m 13,9 km/h (3 Bft) NO 56 0 min 0,000 mm 0,7 UV-I 157 W/m 9,9 C 5,8 C 16,1 km/h (3 Bft) 98,11 %
20.10.2019 12:44 10,2 C 10,6 C 13,3 C 98 % 1012,1 hPa 0,0 l/m 14,1 km/h (3 Bft) O-NO 67 0 min 0,000 mm 0,7 UV-I 147 W/m 9,9 C 5,8 C 17,7 km/h (3 Bft) 97,44 %
20.10.2019 12:46 10,2 C 10,6 C 13,3 C 98 % 1012,1 hPa 0,0 l/m 9,9 km/h (2 Bft) O-NO 62 0 min 0,000 mm 0,8 UV-I 157 W/m 9,9 C 7,9 C 14,5 km/h (3 Bft) 100,00 %
20.10.2019 12:48 10,1 C 10,6 C 13,9 C 98 % 1012,0 hPa 0,0 l/m 10,6 km/h (2 Bft) O-NO 76 0 min 0,000 mm 0,8 UV-I 162 W/m 9,8 C 7,4 C 14,5 km/h (3 Bft) 100,00 %
20.10.2019 12:50 10,1 C 10,6 C 13,3 C 98 % 1012,1 hPa 0,0 l/m 12,6 km/h (3 Bft) O-SO 103 0 min 0,000 mm 0,7 UV-I 144 W/m 9,8 C 6,3 C 16,1 km/h (3 Bft) 100,00 %
20.10.2019 12:52 10,1 C 10,6 C 13,3 C 98 % 1012,1 hPa 0,0 l/m 13,1 km/h (3 Bft) O-NO 57 0 min 0,000 mm 0,7 UV-I 145 W/m 9,8 C 6,1 C 16,1 km/h (3 Bft) 98,00 %
20.10.2019 12:54 10,0 C 10,6 C 13,3 C 98 % 1012,0 hPa 0,0 l/m 10,4 km/h (2 Bft) O-NO 78 0 min 0,000 mm 0,7 UV-I 148 W/m 9,7 C 7,4 C 16,1 km/h (3 Bft) 92,68 %
20.10.2019 12:56 10,1 C 10,6 C 13,3 C 98 % 1011,9 hPa 0,0 l/m 11,4 km/h (2 Bft) O-NO 77 0 min 0,000 mm 0,7 UV-I 148 W/m 9,8 C 6,9 C 16,1 km/h (3 Bft) 100,00 %
20.10.2019 12:58 10,2 C 10,6 C 13,9 C 98 % 1011,9 hPa 0,0 l/m 11,4 km/h (2 Bft) O 86 0 min 0,000 mm 0,7 UV-I 148 W/m 9,9 C 7,1 C 17,7 km/h (3 Bft) 100,00 %
20.10.2019 13:00 10,2 C 10,6 C 13,3 C 98 % 1011,8 hPa 0,0 l/m 12,9 km/h (3 Bft) NO 51 0 min 0,077 mm 0,7 UV-I 148 W/m 9,9 C 6,3 C 16,1 km/h (3 Bft) 97,87 %
20.10.2019 13:02 10,2 C 10,6 C 13,3 C 98 % 1011,8 hPa 0,0 l/m 11,8 km/h (2 Bft) O-NO 60 0 min 0,000 mm 0,8 UV-I 154 W/m 9,9 C 6,8 C 17,7 km/h (3 Bft) 97,87 %
20.10.2019 13:04 10,2 C 10,6 C 13,9 C 98 % 1011,9 hPa 0,0 l/m 12,2 km/h (2 Bft) O 90 0 min 0,000 mm 0,8 UV-I 151 W/m 9,9 C 6,6 C 16,1 km/h (3 Bft) 92,86 %
20.10.2019 13:06 10,2 C 10,6 C 13,9 C 98 % 1011,9 hPa 0,0 l/m 10,7 km/h (2 Bft) O-SO 111 0 min 0,000 mm 0,7 UV-I 158 W/m 9,9 C 7,4 C 14,5 km/h (3 Bft) 94,74 %
20.10.2019 13:08 10,3 C 10,6 C 13,9 C 98 % 1011,9 hPa 0,0 l/m 9,1 km/h (2 Bft) O-NO 68 0 min 0,000 mm 0,7 UV-I 144 W/m 10,0 C 8,5 C 12,9 km/h (3 Bft) 97,56 %
20.10.2019 13:10 10,3 C 10,6 C 13,9 C 98 % 1011,9 hPa 0,0 l/m 5,6 km/h (1 Bft) O-NO 65 0 min 0,000 mm 0,7 UV-I 128 W/m 10,0 C 10,3 C 8,0 km/h (2 Bft) 94,34 %
20.10.2019 13:12 10,3 C 10,6 C 13,9 C 98 % 1011,9 hPa 0,0 l/m 6,3 km/h (2 Bft) O 99 0 min 0,000 mm 0,7 UV-I 133 W/m 10,0 C 10,3 C 9,7 km/h (2 Bft) 96,00 %
20.10.2019 13:14 10,3 C 10,6 C 13,9 C 98 % 1011,9 hPa 0,0 l/m 9,2 km/h (2 Bft) O 94 0 min 0,000 mm 0,7 UV-I 125 W/m 10,0 C 8,4 C 12,9 km/h (3 Bft) 96,00 %
20.10.2019 13:16 10,4 C 10,6 C 13,9 C 98 % 1011,9 hPa 0,0 l/m 8,6 km/h (2 Bft) O-NO 75 0 min 0,000 mm 0,6 UV-I 113 W/m 10,1 C 8,9 C 12,9 km/h (3 Bft) 96,00 %
20.10.2019 13:18 10,5 C 10,6 C 13,9 C 98 % 1011,9 hPa 0,0 l/m 8,2 km/h (2 Bft) NO 53 0 min 0,000 mm 0,6 UV-I 84 W/m 10,2 C 9,2 C 9,7 km/h (2 Bft) 89,47 %
20.10.2019 13:20 10,6 C 10,6 C 13,3 C 98 % 1011,9 hPa 0,0 l/m 9,9 km/h (2 Bft) O-NO 70 0 min 0,000 mm 0,5 UV-I 79 W/m 10,3 C 8,3 C 14,5 km/h (3 Bft) 92,00 %
20.10.2019 13:22 10,5 C 10,6 C 13,3 C 98 % 1011,9 hPa 0,0 l/m 7,6 km/h (2 Bft) O-NO 76 0 min 0,000 mm 0,5 UV-I 71 W/m 10,2 C 9,6 C 12,9 km/h (3 Bft) 94,00 %
20.10.2019 13:24 10,4 C 10,6 C 12,8 C 98 % 1011,8 hPa 0,0 l/m 5,2 km/h (1 Bft) O-NO 61 0 min 0,000 mm 0,5 UV-I 74 W/m 10,1 C 10,4 C 9,7 km/h (2 Bft) 89,74 %
20.10.2019 13:26 10,5 C 10,6 C 12,8 C 98 % 1011,8 hPa 0,0 l/m 9,2 km/h (2 Bft) NO 46 0 min 0,000 mm 0,6 UV-I 92 W/m 10,2 C 8,6 C 16,1 km/h (3 Bft) 94,34 %
20.10.2019 13:28 10,5 C 10,6 C 13,3 C 98 % 1011,8 hPa 0,0 l/m 8,3 km/h (2 Bft) NO 40 0 min 0,000 mm 0,6 UV-I 112 W/m 10,2 C 9,2 C 14,5 km/h (3 Bft) 91,49 %
20.10.2019 13:30 10,6 C 10,6 C 13,3 C 98 % 1011,8 hPa 0,0 l/m 10,7 km/h (2 Bft) O-NO 61 0 min 0,000 mm 0,7 UV-I 135 W/m 10,3 C 7,9 C 17,7 km/h (3 Bft) 92,11 %
20.10.2019 13:32 10,7 C 10,6 C 13,3 C 98 % 1011,9 hPa 0,0 l/m 9,0 km/h (2 Bft) O 85 0 min 0,000 mm 0,7 UV-I 135 W/m 10,4 C 9,0 C 14,5 km/h (3 Bft) 92,86 %
20.10.2019 13:34 10,7 C 10,6 C 13,3 C 98 % 1011,8 hPa 0,0 l/m 8,7 km/h (2 Bft) O-NO 69 0 min 0,000 mm 0,6 UV-I 86 W/m 10,4 C 9,1 C 14,5 km/h (3 Bft) 94,00 %
20.10.2019 13:36 10,7 C 10,6 C 13,3 C 98 % 1011,9 hPa 0,0 l/m 7,2 km/h (2 Bft) O-NO 57 0 min 0,000 mm 0,6 UV-I 112 W/m 10,4 C 10,1 C 12,9 km/h (3 Bft) 91,43 %
20.10.2019 13:38 10,7 C 10,6 C 13,3 C 98 % 1011,9 hPa 0,0 l/m 7,0 km/h (2 Bft) O-NO 68 0 min 0,000 mm 0,6 UV-I 121 W/m 10,4 C 10,3 C 9,7 km/h (2 Bft) 94,92 %
20.10.2019 13:40 10,7 C 10,6 C 13,9 C 98 % 1011,9 hPa 0,0 l/m 8,1 km/h (2 Bft) O 100 0 min 0,000 mm 0,6 UV-I 114 W/m 10,4 C 9,5 C 14,5 km/h (3 Bft) 90,24 %
20.10.2019 13:42 10,8 C 10,6 C 13,9 C 98 % 1011,9 hPa 0,0 l/m 5,2 km/h (1 Bft) O-SO 108 0 min 0,000 mm 0,6 UV-I 109 W/m 10,5 C 10,8 C 9,7 km/h (2 Bft) 95,12 %
20.10.2019 13:44 10,8 C 10,6 C 13,9 C 98 % 1011,8 hPa 0,0 l/m 6,9 km/h (2 Bft) O-NO 70 0 min 0,000 mm 0,6 UV-I 116 W/m 10,5 C 10,5 C 9,7 km/h (2 Bft) 93,33 %
20.10.2019 13:46 10,8 C 10,6 C 13,9 C 98 % 1011,8 hPa 0,0 l/m 6,1 km/h (2 Bft) O-NO 69 0 min 0,000 mm 0,6 UV-I 122 W/m 10,5 C 10,8 C 9,7 km/h (2 Bft) 94,64 %
20.10.2019 13:48 10,8 C 10,6 C 13,9 C 98 % 1011,8 hPa 0,0 l/m 7,0 km/h (2 Bft) O-NO 69 0 min 0,000 mm 0,6 UV-I 135 W/m 10,5 C 10,4 C 11,3 km/h (2 Bft) 95,12 %
20.10.2019 13:50 10,9 C 10,6 C 13,9 C 98 % 1011,7 hPa 0,0 l/m 7,5 km/h (2 Bft) NO 55 0 min 0,000 mm 0,7 UV-I 141 W/m 10,6 C 10,1 C 12,9 km/h (3 Bft) 98,00 %
20.10.2019 13:52 10,9 C 10,6 C 14,4 C 98 % 1011,8 hPa 0,0 l/m 8,8 km/h (2 Bft) NO 49 0 min 0,000 mm 0,7 UV-I 146 W/m 10,6 C 9,3 C 14,5 km/h (3 Bft) 96,23 %
20.10.2019 13:54 11,0 C 10,6 C 14,4 C 98 % 1011,8 hPa 0,0 l/m 7,8 km/h (2 Bft) N-NO 25 0 min 0,000 mm 0,7 UV-I 144 W/m 10,7 C 10,0 C 14,5 km/h (3 Bft) 95,74 %
20.10.2019 13:56 11,1 C 10,6 C 14,4 C 97 % 1011,9 hPa 0,0 l/m 9,5 km/h (2 Bft) NO 53 0 min 0,000 mm 0,7 UV-I 137 W/m 10,6 C 9,1 C 14,5 km/h (3 Bft) 94,74 %
20.10.2019 13:58 11,2 C 10,6 C 14,4 C 97 % 1011,9 hPa 0,0 l/m 8,0 km/h (2 Bft) O-NO 76 0 min 0,000 mm 0,6 UV-I 119 W/m 10,7 C 10,1 C 12,9 km/h (3 Bft) 98,11 %
20.10.2019 14:00 11,2 C 10,6 C 13,9 C 98 % 1011,9 hPa 0,0 l/m 10,0 km/h (2 Bft) O-NO 71 0 min 0,050 mm 0,6 UV-I 122 W/m 10,9 C 8,9 C 14,5 km/h (3 Bft) 98,00 %
20.10.2019 14:02 11,1 C 10,6 C 14,4 C 97 % 1012,0 hPa 0,0 l/m 6,5 km/h (2 Bft) O 100 0 min 0,000 mm 0,7 UV-I 154 W/m 10,6 C 11,1 C 9,7 km/h (2 Bft) 97,22 %
20.10.2019 14:04 11,1 C 10,6 C 14,4 C 97 % 1011,9 hPa 0,0 l/m 6,8 km/h (2 Bft) O-SO 103 0 min 0,000 mm 0,7 UV-I 159 W/m 10,6 C 10,8 C 9,7 km/h (2 Bft) 97,87 %
20.10.2019 14:06 11,1 C 10,6 C 14,4 C 97 % 1011,9 hPa 0,0 l/m 4,8 km/h (1 Bft) O-SO 118 0 min 0,000 mm 0,7 UV-I 155 W/m 10,6 C 11,1 C 6,4 km/h (2 Bft) 97,87 %
20.10.2019 14:08 11,1 C 10,6 C 15,0 C 97 % 1011,8 hPa 0,0 l/m 5,7 km/h (1 Bft) O-SO 115 0 min 0,000 mm 0,7 UV-I 158 W/m 10,6 C 11,1 C 11,3 km/h (2 Bft) 98,11 %
20.10.2019 14:10 11,2 C 10,6 C 15,0 C 97 % 1011,8 hPa 0,0 l/m 3,9 km/h (1 Bft) O-SO 116 0 min 0,000 mm 0,6 UV-I 129 W/m 10,7 C 11,2 C 9,7 km/h (2 Bft) 97,37 %
20.10.2019 14:12 11,2 C 10,6 C 15,0 C 97 % 1011,8 hPa 0,0 l/m 3,8 km/h (1 Bft) NO 55 0 min 0,000 mm 0,6 UV-I 101 W/m 10,7 C 11,2 C 6,4 km/h (2 Bft) 98,00 %
20.10.2019 14:14 11,3 C 10,6 C 14,4 C 97 % 1011,9 hPa 0,0 l/m 6,1 km/h (2 Bft) O-SO 105 0 min 0,000 mm 0,5 UV-I 88 W/m 10,8 C 11,3 C 9,7 km/h (2 Bft) 96,23 %
20.10.2019 14:16 11,2 C 10,6 C 14,4 C 97 % 1011,9 hPa 0,0 l/m 7,4 km/h (2 Bft) O-NO 76 0 min 0,000 mm 0,6 UV-I 110 W/m 10,7 C 10,5 C 11,3 km/h (2 Bft) 97,87 %
20.10.2019 14:18 11,2 C 10,6 C 14,4 C 97 % 1011,9 hPa 0,0 l/m 7,0 km/h (2 Bft) O-NO 63 0 min 0,000 mm 0,6 UV-I 135 W/m 10,7 C 10,8 C 12,9 km/h (3 Bft) 97,37 %
20.10.2019 14:20 11,3 C 10,6 C 14,4 C 97 % 1011,8 hPa 0,0 l/m 8,3 km/h (2 Bft) O 79 0 min 0,000 mm 0,6 UV-I 146 W/m 10,8 C 10,0 C 12,9 km/h (3 Bft) 96,43 %
20.10.2019 14:22 11,3 C 10,6 C 14,4 C 97 % 1011,7 hPa 0,0 l/m 8,3 km/h (2 Bft) O-NO 67 0 min 0,000 mm 0,6 UV-I 130 W/m 10,8 C 10,0 C 12,9 km/h (3 Bft) 98,00 %
20.10.2019 14:24 11,3 C 10,6 C 14,4 C 97 % 1011,8 hPa 0,0 l/m 7,0 km/h (2 Bft) O-NO 68 0 min 0,000 mm 0,7 UV-I 161 W/m 10,8 C 10,9 C 11,3 km/h (2 Bft) 100,00 %
20.10.2019 14:26 11,3 C 10,6 C 15,0 C 96 % 1011,7 hPa 0,0 l/m 6,8 km/h (2 Bft) O-NO 68 0 min 0,000 mm 0,7 UV-I 175 W/m 10,7 C 11,0 C 12,9 km/h (3 Bft) 100,00 %
20.10.2019 14:28 11,4 C 10,6 C 15,0 C 97 % 1011,8 hPa 0,0 l/m 8,0 km/h (2 Bft) O-NO 63 0 min 0,000 mm 0,7 UV-I 173 W/m 10,9 C 10,3 C 11,3 km/h (2 Bft) 98,00 %
20.10.2019 14:30 11,5 C 10,6 C 15,0 C 97 % 1011,8 hPa 0,0 l/m 6,7 km/h (2 Bft) O-NO 75 0 min 0,000 mm 0,7 UV-I 178 W/m 11,0 C 11,3 C 9,7 km/h (2 Bft) 100,00 %
20.10.2019 14:32 11,6 C 10,6 C 15,6 C 97 % 1011,7 hPa 0,0 l/m 7,1 km/h (2 Bft) O-NO 63 0 min 0,000 mm 0,7 UV-I 178 W/m 11,1 C 11,1 C 9,7 km/h (2 Bft) 100,00 %
20.10.2019 14:34 11,7 C 10,6 C 15,6 C 96 % 1011,6 hPa 0,0 l/m 7,0 km/h (2 Bft) O-NO 76 0 min 0,000 mm 0,7 UV-I 180 W/m 11,1 C 11,3 C 11,3 km/h (2 Bft) 97,87 %
20.10.2019 14:36 11,7 C 10,6 C 15,6 C 96 % 1011,6 hPa 0,0 l/m 7,0 km/h (2 Bft) O-NO 65 0 min 0,000 mm 0,8 UV-I 178 W/m 11,1 C 11,3 C 11,3 km/h (2 Bft) 100,00 %
20.10.2019 14:38 11,8 C 10,6 C 15,6 C 96 % 1011,6 hPa 0,0 l/m 8,3 km/h (2 Bft) O 91 0 min 0,000 mm 0,8 UV-I 179 W/m 11,2 C 10,6 C 14,5 km/h (3 Bft) 97,37 %
20.10.2019 14:40 11,7 C 10,6 C 15,6 C 96 % 1011,6 hPa 0,0 l/m 9,6 km/h (2 Bft) O-NO 61 0 min 0,000 mm 0,9 UV-I 172 W/m 11,1 C 9,7 C 11,3 km/h (2 Bft) 100,00 %
20.10.2019 14:42 11,7 C 10,6 C 15,6 C 96 % 1011,5 hPa 0,0 l/m 9,6 km/h (2 Bft) O-NO 72 0 min 0,000 mm 0,9 UV-I 175 W/m 11,1 C 9,7 C 14,5 km/h (3 Bft) 98,21 %
20.10.2019 14:44 11,7 C 10,6 C 15,6 C 96 % 1011,5 hPa 0,0 l/m 11,2 km/h (2 Bft) O-SO 108 0 min 0,000 mm 1,0 UV-I 208 W/m 11,1 C 8,9 C 16,1 km/h (3 Bft) 96,00 %
20.10.2019 14:46 11,7 C 10,6 C 15,6 C 95 % 1011,5 hPa 0,0 l/m 9,0 km/h (2 Bft) O 93 0 min 0,000 mm 1,0 UV-I 228 W/m 10,9 C 10,0 C 14,5 km/h (3 Bft) 97,73 %
20.10.2019 14:48 11,7 C 10,6 C 16,1 C 95 % 1011,5 hPa 0,0 l/m 8,2 km/h (2 Bft) SO 124 2 min 0,000 mm 1,1 UV-I 263 W/m 10,9 C 10,5 C 12,9 km/h (3 Bft) 94,29 %
20.10.2019 14:50 11,9 C 10,6 C 16,1 C 96 % 1011,5 hPa 0,0 l/m 8,3 km/h (2 Bft) O-SO 105 2 min 0,000 mm 1,1 UV-I 352 W/m 11,3 C 10,7 C 14,5 km/h (3 Bft) 98,21 %
20.10.2019 14:52 12,1 C 10,6 C 16,7 C 96 % 1011,5 hPa 0,0 l/m 9,4 km/h (2 Bft) O-SO 103 2 min 0,000 mm 1,1 UV-I 355 W/m 11,5 C 10,2 C 14,5 km/h (3 Bft) 97,73 %
20.10.2019 14:54 12,2 C 10,6 C 16,7 C 95 % 1011,5 hPa 0,0 l/m 8,8 km/h (2 Bft) SO 140 2 min 0,000 mm 1,0 UV-I 284 W/m 11,4 C 10,7 C 14,5 km/h (3 Bft) 98,11 %
20.10.2019 14:56 12,2 C 10,6 C 16,1 C 95 % 1011,4 hPa 0,0 l/m 10,8 km/h (2 Bft) O-NO 71 0 min 0,000 mm 1,0 UV-I 196 W/m 11,4 C 9,6 C 16,1 km/h (3 Bft) 98,00 %
20.10.2019 14:58 12,2 C 10,6 C 15,6 C 94 % 1011,3 hPa 0,0 l/m 10,2 km/h (2 Bft) O-SO 107 0 min 0,000 mm 0,9 UV-I 155 W/m 11,3 C 9,9 C 14,5 km/h (3 Bft) 97,14 %
20.10.2019 15:00 12,1 C 10,6 C 15,6 C 94 % 1011,4 hPa 0,0 l/m 9,6 km/h (2 Bft) O-SO 122 0 min 0,077 mm 1,0 UV-I 156 W/m 11,2 C 10,1 C 12,9 km/h (3 Bft) 98,00 %
20.10.2019 15:02 12,1 C 10,6 C 15,0 C 94 % 1011,3 hPa 0,0 l/m 5,5 km/h (1 Bft) O-SO 102 0 min 0,000 mm 1,0 UV-I 197 W/m 11,2 C 12,1 C 9,7 km/h (2 Bft) 98,00 %
20.10.2019 15:04 12,2 C 10,6 C 15,6 C 94 % 1011,4 hPa 0,0 l/m 6,3 km/h (2 Bft) SO 132 2 min 0,000 mm 1,1 UV-I 230 W/m 11,3 C 12,2 C 11,3 km/h (2 Bft) 97,56 %
20.10.2019 15:06 12,3 C 10,6 C 15,6 C 94 % 1011,4 hPa 0,0 l/m 4,8 km/h (1 Bft) O-SO 111 2 min 0,000 mm 1,1 UV-I 254 W/m 11,4 C 12,3 C 11,3 km/h (2 Bft) 97,87 %
20.10.2019 15:08 12,4 C 10,6 C 15,6 C 94 % 1011,4 hPa 0,0 l/m 4,3 km/h (1 Bft) O 79 2 min 0,000 mm 1,0 UV-I 338 W/m 11,5 C 12,4 C 9,7 km/h (2 Bft) 97,56 %
20.10.2019 15:10 12,6 C 10,6 C 15,6 C 93 % 1011,4 hPa 0,0 l/m 4,5 km/h (1 Bft) O 98 2 min 0,000 mm 1,0 UV-I 346 W/m 11,5 C 12,6 C 6,4 km/h (2 Bft) 98,21 %
20.10.2019 15:12 12,7 C 10,6 C 15,6 C 93 % 1011,4 hPa 0,0 l/m 5,3 km/h (1 Bft) O 94 2 min 0,000 mm 1,0 UV-I 264 W/m 11,6 C 12,7 C 9,7 km/h (2 Bft) 94,00 %
20.10.2019 15:14 12,7 C 10,6 C 15,6 C 93 % 1011,5 hPa 0,0 l/m 6,2 km/h (2 Bft) O-SO 113 0 min 0,000 mm 0,9 UV-I 177 W/m 11,6 C 12,7 C 11,3 km/h (2 Bft) 95,74 %
20.10.2019 15:16 12,7 C 10,6 C 15,0 C 92 % 1011,4 hPa 0,0 l/m 6,1 km/h (2 Bft) O-NO 70 0 min 0,000 mm 0,9 UV-I 164 W/m 11,4 C 12,7 C 11,3 km/h (2 Bft) 98,00 %
20.10.2019 15:18 12,7 C 10,6 C 15,0 C 92 % 1011,5 hPa 0,0 l/m 4,9 km/h (1 Bft) O-SO 115 0 min 0,000 mm 0,8 UV-I 172 W/m 11,4 C 12,7 C 9,7 km/h (2 Bft) 97,44 %
20.10.2019 15:20 12,7 C 10,6 C 14,4 C 92 % 1011,5 hPa 0,0 l/m 6,1 km/h (2 Bft) O-NO 60 0 min 0,000 mm 0,8 UV-I 142 W/m 11,4 C 12,7 C 9,7 km/h (2 Bft) 97,87 %
20.10.2019 15:22 12,7 C 10,6 C 14,4 C 92 % 1011,6 hPa 0,0 l/m 6,4 km/h (2 Bft) NO 50 0 min 0,000 mm 0,8 UV-I 158 W/m 11,4 C 12,7 C 8,0 km/h (2 Bft) 98,11 %
20.10.2019 15:24 12,7 C 10,6 C 13,9 C 92 % 1011,6 hPa 0,0 l/m 5,0 km/h (1 Bft) O 84 0 min 0,000 mm 0,8 UV-I 137 W/m 11,4 C 12,7 C 9,7 km/h (2 Bft) 97,87 %
20.10.2019 15:26 12,7 C 10,6 C 13,9 C 92 % 1011,6 hPa 0,0 l/m 6,8 km/h (2 Bft) O 82 0 min 0,000 mm 0,9 UV-I 174 W/m 11,4 C 12,5 C 12,9 km/h (3 Bft) 97,37 %
20.10.2019 15:28 12,7 C 10,6 C 13,9 C 91 % 1011,6 hPa 0,0 l/m 8,7 km/h (2 Bft) O-SO 103 2 min 0,000 mm 0,8 UV-I 267 W/m 11,3 C 11,3 C 14,5 km/h (3 Bft) 97,87 %
20.10.2019 15:30 12,8 C 10,6 C 13,9 C 91 % 1011,5 hPa 0,0 l/m 7,6 km/h (2 Bft) O 94 0 min 0,000 mm 0,8 UV-I 171 W/m 11,4 C 12,0 C 12,9 km/h (3 Bft) 96,23 %
20.10.2019 15:32 12,9 C 10,6 C 13,9 C 91 % 1011,5 hPa 0,0 l/m 8,2 km/h (2 Bft) O 87 2 min 0,000 mm 0,8 UV-I 285 W/m 11,5 C 11,8 C 12,9 km/h (3 Bft) 100,00 %
20.10.2019 15:34 12,9 C 10,6 C 13,9 C 91 % 1011,5 hPa 0,0 l/m 7,3 km/h (2 Bft) O-SO 104 2 min 0,000 mm 0,8 UV-I 215 W/m 11,5 C 12,3 C 11,3 km/h (2 Bft) 96,00 %
20.10.2019 15:36 12,9 C 10,6 C 13,9 C 91 % 1011,4 hPa 0,0 l/m 6,7 km/h (2 Bft) O 84 2 min 0,000 mm 0,8 UV-I 274 W/m 11,5 C 12,7 C 12,9 km/h (3 Bft) 98,11 %
20.10.2019 15:38 13,1 C 10,6 C 13,9 C 90 % 1011,4 hPa 0,0 l/m 5,0 km/h (1 Bft) O 99 2 min 0,000 mm 0,8 UV-I 283 W/m 11,5 C 13,1 C 9,7 km/h (2 Bft) 97,87 %
20.10.2019 15:40 13,1 C 10,6 C 13,9 C 90 % 1011,4 hPa 0,0 l/m 8,1 km/h (2 Bft) O-NO 76 2 min 0,000 mm 0,8 UV-I 290 W/m 11,5 C 12,0 C 12,9 km/h (3 Bft) 97,37 %
20.10.2019 15:42 13,2 C 10,6 C 13,9 C 90 % 1011,4 hPa 0,0 l/m 13,2 km/h (3 Bft) O-NO 67 2 min 0,000 mm 0,8 UV-I 301 W/m 11,6 C 9,7 C 17,7 km/h (3 Bft) 96,00 %
20.10.2019 15:44 13,2 C 10,6 C 13,9 C 90 % 1011,4 hPa 0,0 l/m 13,5 km/h (3 Bft) O 101 2 min 0,000 mm 0,7 UV-I 276 W/m 11,6 C 9,6 C 17,7 km/h (3 Bft) 95,74 %
20.10.2019 15:46 13,2 C 10,6 C 13,9 C 89 % 1011,4 hPa 0,0 l/m 10,8 km/h (2 Bft) O-SO 123 2 min 0,000 mm 0,7 UV-I 300 W/m 11,4 C 10,7 C 17,7 km/h (3 Bft) 97,87 %
20.10.2019 15:48 13,2 C 10,6 C 13,9 C 89 % 1011,5 hPa 0,0 l/m 10,4 km/h (2 Bft) O 83 2 min 0,000 mm 0,4 UV-I 302 W/m 11,4 C 10,9 C 16,1 km/h (3 Bft) 100,00 %
20.10.2019 15:50 13,2 C 10,6 C 13,9 C 89 % 1011,5 hPa 0,0 l/m 9,2 km/h (2 Bft) O-NO 71 2 min 0,000 mm 0,4 UV-I 295 W/m 11,4 C 11,5 C 12,9 km/h (3 Bft) 97,44 %
20.10.2019 15:52 13,2 C 10,6 C 13,9 C 89 % 1011,6 hPa 0,0 l/m 7,3 km/h (2 Bft) O 84 2 min 0,000 mm 0,6 UV-I 209 W/m 11,4 C 12,6 C 11,3 km/h (2 Bft) 94,55 %
20.10.2019 15:54 13,3 C 10,6 C 13,9 C 89 % 1011,6 hPa 0,0 l/m 7,1 km/h (2 Bft) O-NO 61 2 min 0,000 mm 0,6 UV-I 223 W/m 11,5 C 12,9 C 14,5 km/h (3 Bft) 100,00 %
20.10.2019 15:56 13,3 C 10,6 C 13,9 C 89 % 1011,6 hPa 0,0 l/m 6,4 km/h (2 Bft) O-NO 61 2 min 0,000 mm 0,6 UV-I 219 W/m 11,5 C 13,3 C 9,7 km/h (2 Bft) 100,00 %
20.10.2019 15:58 13,3 C 10,6 C 13,9 C 89 % 1011,5 hPa 0,0 l/m 7,9 km/h (2 Bft) O-SO 105 2 min 0,000 mm 0,6 UV-I 253 W/m 11,5 C 12,4 C 11,3 km/h (2 Bft) 98,00 %
20.10.2019 16:00 13,3 C 10,6 C 13,9 C 89 % 1011,5 hPa 0,0 l/m 7,8 km/h (2 Bft) O-SO 107 2 min 0,000 mm 0,6 UV-I 239 W/m 11,5 C 12,4 C 11,3 km/h (2 Bft) 100,00 %
20.10.2019 16:02 13,3 C 10,6 C 13,9 C 89 % 1011,4 hPa 0,0 l/m 8,1 km/h (2 Bft) O 89 2 min 0,127 mm 0,6 UV-I 232 W/m 11,5 C 12,3 C 11,3 km/h (2 Bft) 100,00 %
20.10.2019 16:04 13,3 C 10,6 C 13,9 C 89 % 1011,4 hPa 0,0 l/m 6,4 km/h (2 Bft) O-NO 61 2 min 0,000 mm 0,6 UV-I 237 W/m 11,5 C 13,3 C 12,9 km/h (3 Bft) 100,00 %
20.10.2019 16:06 13,3 C 10,6 C 13,3 C 89 % 1011,4 hPa 0,0 l/m 7,5 km/h (2 Bft) O-NO 69 2 min 0,000 mm 0,5 UV-I 208 W/m 11,5 C 12,6 C 9,7 km/h (2 Bft) 98,00 %
20.10.2019 16:08 13,3 C 10,6 C 13,3 C 89 % 1011,5 hPa 0,0 l/m 6,3 km/h (2 Bft) O 97 2 min 0,000 mm 0,5 UV-I 202 W/m 11,5 C 13,3 C 11,3 km/h (2 Bft) 97,56 %
20.10.2019 16:10 13,3 C 10,6 C 13,3 C 89 % 1011,5 hPa 0,0 l/m 5,4 km/h (1 Bft) O-NO 73 2 min 0,000 mm 0,5 UV-I 214 W/m 11,5 C 13,3 C 8,0 km/h (2 Bft) 95,74 %
20.10.2019 16:12 13,3 C 10,6 C 13,3 C 89 % 1011,5 hPa 0,0 l/m 6,0 km/h (2 Bft) O 80 2 min 0,000 mm 0,5 UV-I 176 W/m 11,5 C 13,3 C 8,0 km/h (2 Bft) 98,00 %
20.10.2019 16:14 13,4 C 10,6 C 13,3 C 89 % 1011,5 hPa 0,0 l/m 4,8 km/h (1 Bft) O 88 2 min 0,000 mm 0,3 UV-I 168 W/m 11,6 C 13,4 C 6,4 km/h (2 Bft) 97,87 %
20.10.2019 16:16 13,5 C 10,6 C 13,3 C 89 % 1011,4 hPa 0,0 l/m 5,6 km/h (1 Bft) O-NO 76 2 min 0,000 mm 0,0 UV-I 181 W/m 11,7 C 13,5 C 9,7 km/h (2 Bft) 97,73 %
20.10.2019 16:19 13,6 C 10,6 C 13,3 C 89 % 1011,3 hPa 0,0 l/m 8,3 km/h (2 Bft) O-SO 103 0 min 0,000 mm 0,0 UV-I 124 W/m 11,8 C 12,5 C 14,5 km/h (3 Bft) 97,30 %
20.10.2019 16:20 13,6 C 10,6 C 13,3 C 89 % 1011,3 hPa 0,0 l/m 12,2 km/h (2 Bft) O-SO 103 0 min 0,000 mm 0,0 UV-I 82 W/m 11,8 C 10,6 C 12,9 km/h (3 Bft) 100,00 %
20.10.2019 16:22 13,4 C 10,6 C 13,3 C 89 % 1011,2 hPa 0,0 l/m 10,5 km/h (2 Bft) O 88 0 min 0,000 mm 0,0 UV-I 75 W/m 11,6 C 11,1 C 14,5 km/h (3 Bft) 94,64 %
20.10.2019 16:24 13,4 C 10,6 C 13,3 C 89 % 1011,3 hPa 0,0 l/m 7,5 km/h (2 Bft) O 96 0 min 0,000 mm 0,0 UV-I 71 W/m 11,6 C 12,7 C 11,3 km/h (2 Bft) 98,00 %
20.10.2019 16:26 13,4 C 10,6 C 13,3 C 89 % 1011,4 hPa 0,0 l/m 6,0 km/h (2 Bft) O-NO 75 0 min 0,000 mm 0,0 UV-I 70 W/m 11,6 C 13,4 C 8,0 km/h (2 Bft) 91,67 %
20.10.2019 16:28 13,3 C 10,6 C 13,3 C 89 % 1011,4 hPa 0,0 l/m 4,6 km/h (1 Bft) O 98 0 min 0,000 mm 0,0 UV-I 70 W/m 11,5 C 13,3 C 9,7 km/h (2 Bft) 97,14 %
20.10.2019 16:30 13,3 C 10,6 C 13,3 C 89 % 1011,4 hPa 0,0 l/m 5,0 km/h (1 Bft) O 83 0 min 0,000 mm 0,0 UV-I 70 W/m 11,5 C 13,3 C 6,4 km/h (2 Bft) 97,62 %
20.10.2019 16:32 13,3 C 10,6 C 12,8 C 89 % 1011,4 hPa 0,0 l/m 3,5 km/h (1 Bft) O 86 0 min 0,000 mm 0,0 UV-I 71 W/m 11,5 C 13,3 C 6,4 km/h (2 Bft) 100,00 %
20.10.2019 16:34 13,2 C 10,6 C 12,8 C 89 % 1011,4 hPa 0,0 l/m 4,0 km/h (1 Bft) O 80 0 min 0,000 mm 0,0 UV-I 72 W/m 11,4 C 13,2 C 6,4 km/h (2 Bft) 100,00 %
20.10.2019 16:36 13,3 C 10,6 C 12,8 C 90 % 1011,4 hPa 0,0 l/m 5,3 km/h (1 Bft) O 93 0 min 0,000 mm 0,0 UV-I 73 W/m 11,7 C 13,3 C 6,4 km/h (2 Bft) 100,00 %
20.10.2019 16:38 13,3 C 10,6 C 12,8 C 90 % 1011,4 hPa 0,0 l/m 5,2 km/h (1 Bft) O 84 0 min 0,000 mm 0,0 UV-I 74 W/m 11,7 C 13,3 C 8,0 km/h (2 Bft) 100,00 %
20.10.2019 16:40 13,2 C 10,6 C 12,8 C 90 % 1011,5 hPa 0,0 l/m 4,0 km/h (1 Bft) O 98 0 min 0,000 mm 0,0 UV-I 74 W/m 11,6 C 13,2 C 6,4 km/h (2 Bft) 100,00 %
20.10.2019 16:42 13,2 C 10,6 C 12,8 C 90 % 1011,4 hPa 0,0 l/m 3,0 km/h (1 Bft) O-NO 73 0 min 0,000 mm 0,0 UV-I 79 W/m 11,6 C 13,2 C 8,0 km/h (2 Bft) 100,00 %
20.10.2019 16:44 13,2 C 10,6 C 12,8 C 90 % 1011,4 hPa 0,0 l/m 5,1 km/h (1 Bft) O 82 0 min 0,000 mm 0,0 UV-I 76 W/m 11,6 C 13,2 C 8,0 km/h (2 Bft) 97,87 %
20.10.2019 16:46 13,2 C 10,6 C 12,8 C 89 % 1011,5 hPa 0,0 l/m 7,0 km/h (2 Bft) O-NO 72 0 min 0,000 mm 0,0 UV-I 74 W/m 11,4 C 12,8 C 11,3 km/h (2 Bft) 100,00 %
20.10.2019 16:48 13,2 C 10,6 C 12,8 C 89 % 1011,5 hPa 0,0 l/m 8,2 km/h (2 Bft) O-SO 104 0 min 0,000 mm 0,0 UV-I 71 W/m 11,4 C 12,1 C 12,9 km/h (3 Bft) 100,00 %
20.10.2019 16:50 13,1 C 10,6 C 12,8 C 89 % 1011,5 hPa 0,0 l/m 6,1 km/h (2 Bft) O-NO 74 0 min 0,000 mm 0,0 UV-I 70 W/m 11,3 C 13,1 C 9,7 km/h (2 Bft) 100,00 %
20.10.2019 16:52 13,1 C 10,6 C 12,8 C 89 % 1011,5 hPa 0,0 l/m 6,6 km/h (2 Bft) O 94 0 min 0,000 mm 0,0 UV-I 70 W/m 11,3 C 13,0 C 11,3 km/h (2 Bft) 100,00 %
20.10.2019 16:54 13,1 C 10,6 C 12,8 C 89 % 1011,5 hPa 0,0 l/m 5,4 km/h (1 Bft) O 80 0 min 0,000 mm 0,0 UV-I 70 W/m 11,3 C 13,1 C 6,4 km/h (2 Bft) 100,00 %
20.10.2019 16:56 13,1 C 10,6 C 12,8 C 89 % 1011,5 hPa 0,0 l/m 6,4 km/h (2 Bft) O 86 0 min 0,000 mm 0,0 UV-I 72 W/m 11,3 C 13,1 C 9,7 km/h (2 Bft) 100,00 %
20.10.2019 16:58 13,1 C 10,6 C 12,8 C 89 % 1011,5 hPa 0,0 l/m 6,8 km/h (2 Bft) O 87 0 min 0,000 mm 0,0 UV-I 72 W/m 11,3 C 12,9 C 11,3 km/h (2 Bft) 98,00 %
20.10.2019 17:00 13,0 C 10,6 C 12,8 C 89 % 1011,5 hPa 0,0 l/m 6,0 km/h (2 Bft) O 89 0 min 0,050 mm 0,0 UV-I 70 W/m 11,2 C 13,0 C 9,7 km/h (2 Bft) 100,00 %
20.10.2019 17:02 13,0 C 10,6 C 12,8 C 90 % 1011,5 hPa 0,0 l/m 6,3 km/h (2 Bft) O 90 0 min 0,000 mm 0,0 UV-I 70 W/m 11,4 C 13,0 C 11,3 km/h (2 Bft) 95,74 %
20.10.2019 17:04 12,9 C 10,6 C 12,8 C 90 % 1011,6 hPa 0,0 l/m 7,2 km/h (2 Bft) O-NO 75 0 min 0,000 mm 0,0 UV-I 70 W/m 11,3 C 12,4 C 11,3 km/h (2 Bft) 95,45 %
20.10.2019 17:06 12,9 C 10,6 C 12,8 C 90 % 1011,6 hPa 0,0 l/m 7,4 km/h (2 Bft) O-NO 76 0 min 0,000 mm 0,0 UV-I 69 W/m 11,3 C 12,3 C 11,3 km/h (2 Bft) 98,00 %
20.10.2019 17:08 12,8 C 10,6 C 12,8 C 90 % 1011,6 hPa 0,0 l/m 9,2 km/h (2 Bft) O 82 0 min 0,000 mm 0,0 UV-I 68 W/m 11,2 C 11,1 C 12,9 km/h (3 Bft) 97,62 %
20.10.2019 17:10 12,8 C 10,6 C 12,8 C 90 % 1011,6 hPa 0,0 l/m 7,0 km/h (2 Bft) O-NO 72 0 min 0,000 mm 0,0 UV-I 65 W/m 11,2 C 12,4 C 12,9 km/h (3 Bft) 97,73 %
20.10.2019 17:12 12,8 C 10,6 C 12,8 C 90 % 1011,6 hPa 0,0 l/m 7,9 km/h (2 Bft) O 88 0 min 0,000 mm 0,0 UV-I 62 W/m 11,2 C 11,9 C 9,7 km/h (2 Bft) 98,21 %
20.10.2019 17:14 12,8 C 10,6 C 12,8 C 90 % 1011,5 hPa 0,0 l/m 5,7 km/h (1 Bft) O 88 0 min 0,000 mm 0,0 UV-I 58 W/m 11,2 C 12,8 C 9,7 km/h (2 Bft) 97,37 %
20.10.2019 17:16 12,7 C 10,6 C 12,2 C 90 % 1011,5 hPa 0,0 l/m 6,5 km/h (2 Bft) O 80 0 min 0,000 mm 0,0 UV-I 54 W/m 11,1 C 12,7 C 9,7 km/h (2 Bft) 95,74 %
20.10.2019 17:18 12,7 C 10,6 C 12,2 C 90 % 1011,6 hPa 0,0 l/m 7,3 km/h (2 Bft) O 81 0 min 0,000 mm 0,0 UV-I 52 W/m 11,1 C 12,1 C 11,3 km/h (2 Bft) 97,56 %
20.10.2019 17:20 12,6 C 10,6 C 12,2 C 90 % 1011,6 hPa 0,0 l/m 5,6 km/h (1 Bft) O-NO 78 0 min 0,000 mm 0,0 UV-I 50 W/m 11,0 C 12,6 C 8,0 km/h (2 Bft) 94,34 %
20.10.2019 17:22 12,6 C 10,6 C 12,2 C 91 % 1011,5 hPa 0,0 l/m 7,4 km/h (2 Bft) O-NO 69 0 min 0,000 mm 0,0 UV-I 48 W/m 11,2 C 12,0 C 12,9 km/h (3 Bft) 96,43 %
20.10.2019 17:24 12,5 C 10,6 C 12,2 C 91 % 1011,5 hPa 0,0 l/m 5,5 km/h (1 Bft) O 88 0 min 0,000 mm 0,0 UV-I 47 W/m 11,1 C 12,5 C 8,0 km/h (2 Bft) 97,73 %
20.10.2019 17:26 12,5 C 10,6 C 12,2 C 91 % 1011,5 hPa 0,0 l/m 6,4 km/h (2 Bft) O-SO 105 0 min 0,000 mm 0,0 UV-I 45 W/m 11,1 C 12,5 C 11,3 km/h (2 Bft) 96,00 %
20.10.2019 17:28 12,4 C 10,6 C 12,2 C 91 % 1011,6 hPa 0,0 l/m 5,2 km/h (1 Bft) O 83 0 min 0,000 mm 0,0 UV-I 42 W/m 11,0 C 12,4 C 8,0 km/h (2 Bft) 97,56 %
20.10.2019 17:30 12,3 C 10,6 C 11,7 C 91 % 1011,5 hPa 0,0 l/m 5,9 km/h (2 Bft) NO 52 0 min 0,000 mm 0,0 UV-I 40 W/m 10,9 C 12,3 C 8,0 km/h (2 Bft) 96,00 %
20.10.2019 17:32 12,3 C 10,6 C 11,7 C 92 % 1011,6 hPa 0,0 l/m 7,0 km/h (2 Bft) NO 56 0 min 0,000 mm 0,0 UV-I 38 W/m 11,0 C 11,9 C 9,7 km/h (2 Bft) 94,00 %
20.10.2019 17:34 12,2 C 10,6 C 11,7 C 92 % 1011,6 hPa 0,0 l/m 5,1 km/h (1 Bft) O-NO 78 0 min 0,000 mm 0,0 UV-I 35 W/m 10,9 C 12,2 C 8,0 km/h (2 Bft) 95,12 %
20.10.2019 17:36 12,2 C 10,6 C 11,7 C 92 % 1011,6 hPa 0,0 l/m 8,4 km/h (2 Bft) O-SO 115 0 min 0,000 mm 0,0 UV-I 32 W/m 10,9 C 10,9 C 12,9 km/h (3 Bft) 95,74 %
20.10.2019 17:38 12,2 C 10,6 C 11,7 C 92 % 1011,6 hPa 0,0 l/m 6,7 km/h (2 Bft) SO 127 0 min 0,000 mm 0,0 UV-I 28 W/m 10,9 C 12,0 C 9,7 km/h (2 Bft) 95,45 %
20.10.2019 17:40 12,1 C 10,6 C 11,1 C 92 % 1011,6 hPa 0,0 l/m 7,0 km/h (2 Bft) SO 136 0 min 0,000 mm 0,0 UV-I 26 W/m 10,8 C 11,7 C 12,9 km/h (3 Bft) 98,00 %
20.10.2019 17:42 12,1 C 10,6 C 11,1 C 92 % 1011,6 hPa 0,0 l/m 9,0 km/h (2 Bft) O 80 0 min 0,000 mm 0,0 UV-I 25 W/m 10,8 C 10,5 C 14,5 km/h (3 Bft) 98,00 %
20.10.2019 17:44 12,1 C 10,6 C 11,1 C 92 % 1011,6 hPa 0,0 l/m 8,2 km/h (2 Bft) O 96 0 min 0,000 mm 0,0 UV-I 22 W/m 10,8 C 10,9 C 14,5 km/h (3 Bft) 97,87 %
20.10.2019 17:46 12,1 C 10,6 C 11,1 C 92 % 1011,6 hPa 0,0 l/m 7,3 km/h (2 Bft) O 96 0 min 0,000 mm 0,0 UV-I 20 W/m 10,8 C 11,5 C 12,9 km/h (3 Bft) 97,62 %
20.10.2019 17:48 12,1 C 10,6 C 11,1 C 92 % 1011,5 hPa 0,0 l/m 7,8 km/h (2 Bft) O-SO 105 0 min 0,000 mm 0,0 UV-I 19 W/m 10,8 C 11,2 C 11,3 km/h (2 Bft) 96,00 %
20.10.2019 17:50 12,0 C 10,6 C 11,1 C 92 % 1011,5 hPa 0,0 l/m 9,1 km/h (2 Bft) O 101 2 min 0,000 mm 0,0 UV-I 18 W/m 10,7 C 10,3 C 14,5 km/h (3 Bft) 97,14 %
20.10.2019 17:52 12,0 C 10,6 C 11,1 C 92 % 1011,5 hPa 0,0 l/m 11,2 km/h (2 Bft) O 94 2 min 0,000 mm 0,0 UV-I 16 W/m 10,7 C 9,2 C 14,5 km/h (3 Bft) 95,83 %
20.10.2019 17:54 11,9 C 10,6 C 10,6 C 92 % 1011,5 hPa 0,0 l/m 9,7 km/h (2 Bft) O 96 2 min 0,000 mm 0,0 UV-I 14 W/m 10,6 C 9,9 C 14,5 km/h (3 Bft) 98,31 %
20.10.2019 17:56 11,9 C 10,6 C 10,6 C 92 % 1011,5 hPa 0,0 l/m 8,4 km/h (2 Bft) O-SO 107 2 min 0,000 mm 0,0 UV-I 12 W/m 10,6 C 10,6 C 12,9 km/h (3 Bft) 92,11 %
20.10.2019 17:58 11,8 C 10,6 C 10,6 C 92 % 1011,6 hPa 0,0 l/m 8,1 km/h (2 Bft) O-SO 105 0 min 0,000 mm 0,0 UV-I 12 W/m 10,5 C 10,7 C 11,3 km/h (2 Bft) 94,00 %
20.10.2019 18:00 11,8 C 10,6 C 10,6 C 92 % 1011,6 hPa 0,0 l/m 7,4 km/h (2 Bft) O-SO 108 0 min 0,000 mm 0,0 UV-I 11 W/m 10,5 C 11,1 C 11,3 km/h (2 Bft) 97,87 %
20.10.2019 18:02 11,8 C 10,6 C 10,6 C 92 % 1011,7 hPa 0,0 l/m 7,3 km/h (2 Bft) O 88 0 min 0,026 mm 0,0 UV-I 9 W/m 10,5 C 11,2 C 14,5 km/h (3 Bft) 96,23 %
20.10.2019 18:04 11,7 C 10,6 C 10,6 C 92 % 1011,7 hPa 0,0 l/m 8,1 km/h (2 Bft) O 84 0 min 0,000 mm 0,0 UV-I 8 W/m 10,4 C 10,6 C 11,3 km/h (2 Bft) 97,14 %
20.10.2019 18:06 11,7 C 10,6 C 10,0 C 92 % 1011,7 hPa 0,0 l/m 7,6 km/h (2 Bft) O 98 0 min 0,000 mm 0,0 UV-I 7 W/m 10,4 C 10,9 C 12,9 km/h (3 Bft) 98,00 %
20.10.2019 18:08 11,6 C 10,6 C 10,0 C 92 % 1011,6 hPa 0,0 l/m 8,7 km/h (2 Bft) O 90 0 min 0,000 mm 0,0 UV-I 6 W/m 10,3 C 10,1 C 12,9 km/h (3 Bft) 97,87 %
20.10.2019 18:10 11,6 C 10,6 C 10,0 C 92 % 1011,6 hPa 0,0 l/m 9,3 km/h (2 Bft) O-SO 114 0 min 0,000 mm 0,0 UV-I 5 W/m 10,3 C 9,8 C 12,9 km/h (3 Bft) 96,00 %
20.10.2019 18:12 11,5 C 10,6 C 10,0 C 92 % 1011,7 hPa 0,0 l/m 6,8 km/h (2 Bft) O 96 0 min 0,000 mm 0,0 UV-I 5 W/m 10,2 C 11,2 C 9,7 km/h (2 Bft) 98,00 %
20.10.2019 18:14 11,4 C 10,6 C 10,0 C 93 % 1011,7 hPa 0,0 l/m 7,2 km/h (2 Bft) O-SO 123 0 min 0,000 mm 0,0 UV-I 5 W/m 10,3 C 10,9 C 12,9 km/h (3 Bft) 97,87 %
20.10.2019 18:16 11,4 C 10,6 C 10,0 C 93 % 1011,8 hPa 0,0 l/m 7,3 km/h (2 Bft) O-SO 102 0 min 0,000 mm 0,0 UV-I 0 W/m 10,3 C 10,8 C 11,3 km/h (2 Bft) 97,56 %
20.10.2019 18:18 11,4 C 10,6 C 10,0 C 93 % 1011,9 hPa 0,0 l/m 4,4 km/h (1 Bft) O-SO 104 0 min 0,000 mm 0,0 UV-I 0 W/m 10,3 C 11,4 C 6,4 km/h (2 Bft) 97,87 %
20.10.2019 18:20 11,4 C 10,6 C 10,0 C 93 % 1011,9 hPa 0,0 l/m 5,8 km/h (2 Bft) O 101 0 min 0,000 mm 0,0 UV-I 0 W/m 10,3 C 11,4 C 9,7 km/h (2 Bft) 92,00 %
20.10.2019 18:22 11,3 C 10,6 C 9,4 C 93 % 1011,8 hPa 0,0 l/m 6,7 km/h (2 Bft) O-SO 102 0 min 0,000 mm 0,0 UV-I 0 W/m 10,2 C 11,1 C 11,3 km/h (2 Bft) 97,87 %
20.10.2019 18:24 11,2 C 10,6 C 9,4 C 93 % 1011,7 hPa 0,0 l/m 8,0 km/h (2 Bft) O-SO 118 0 min 0,000 mm 0,0 UV-I 0 W/m 10,1 C 10,1 C 11,3 km/h (2 Bft) 97,92 %
20.10.2019 18:26 11,2 C 10,6 C 9,4 C 93 % 1011,6 hPa 0,0 l/m 6,4 km/h (2 Bft) O 87 0 min 0,000 mm 0,0 UV-I 0 W/m 10,1 C 11,2 C 9,7 km/h (2 Bft) 97,87 %
20.10.2019 18:28 11,1 C 10,6 C 9,4 C 94 % 1011,6 hPa 0,0 l/m 7,5 km/h (2 Bft) O-SO 107 0 min 0,000 mm 0,0 UV-I 0 W/m 10,2 C 10,3 C 12,9 km/h (3 Bft) 97,56 %
20.10.2019 18:30 11,1 C 10,6 C 9,4 C 93 % 1011,7 hPa 0,0 l/m 5,4 km/h (1 Bft) O 92 0 min 0,000 mm 0,0 UV-I 0 W/m 10,0 C 11,1 C 9,7 km/h (2 Bft) 97,14 %
20.10.2019 18:32 11,0 C 10,6 C 9,4 C 94 % 1011,7 hPa 0,0 l/m 4,9 km/h (1 Bft) O-NO 78 0 min 0,000 mm 0,0 UV-I 0 W/m 10,1 C 11,0 C 9,7 km/h (2 Bft) 95,59 %
20.10.2019 18:34 10,9 C 10,6 C 9,4 C 94 % 1011,7 hPa 0,0 l/m 4,8 km/h (1 Bft) NO 42 0 min 0,000 mm 0,0 UV-I 0 W/m 10,0 C 10,9 C 6,4 km/h (2 Bft) 97,37 %
20.10.2019 18:36 10,7 C 10,6 C 9,4 C 94 % 1011,7 hPa 0,0 l/m 5,4 km/h (1 Bft) NO 52 0 min 0,000 mm 0,0 UV-I 0 W/m 9,8 C 10,7 C 6,4 km/h (2 Bft) 97,87 %
20.10.2019 18:38 10,7 C 10,6 C 9,4 C 94 % 1011,8 hPa 0,0 l/m 6,2 km/h (2 Bft) O-NO 59 0 min 0,000 mm 0,0 UV-I 0 W/m 9,8 C 10,7 C 9,7 km/h (2 Bft) 98,21 %
20.10.2019 18:40 10,7 C 10,6 C 9,4 C 94 % 1011,7 hPa 0,0 l/m 7,6 km/h (2 Bft) O-NO 63 0 min 0,000 mm 0,0 UV-I 0 W/m 9,8 C 9,9 C 11,3 km/h (2 Bft) 95,45 %
20.10.2019 18:42 10,7 C 10,6 C 9,4 C 95 % 1011,7 hPa 0,0 l/m 8,0 km/h (2 Bft) O-NO 62 0 min 0,000 mm 0,0 UV-I 0 W/m 9,9 C 9,6 C 12,9 km/h (3 Bft) 97,37 %
20.10.2019 18:44 10,7 C 10,6 C 10,0 C 95 % 1011,7 hPa 0,0 l/m 8,7 km/h (2 Bft) O 88 0 min 0,000 mm 0,0 UV-I 0 W/m 9,9 C 9,1 C 12,9 km/h (3 Bft) 98,18 %
20.10.2019 18:46 10,7 C 10,6 C 10,0 C 95 % 1011,6 hPa 0,0 l/m 6,1 km/h (2 Bft) O-NO 73 0 min 0,000 mm 0,0 UV-I 0 W/m 9,9 C 10,7 C 11,3 km/h (2 Bft) 97,56 %
20.10.2019 18:48 10,6 C 10,6 C 9,4 C 95 % 1011,8 hPa 0,0 l/m 5,7 km/h (1 Bft) O 82 0 min 0,000 mm 0,0 UV-I 0 W/m 9,8 C 10,6 C 9,7 km/h (2 Bft) 97,87 %
20.10.2019 18:50 10,6 C 10,6 C 10,0 C 95 % 1011,8 hPa 0,0 l/m 4,5 km/h (1 Bft) O 83 0 min 0,000 mm 0,0 UV-I 0 W/m 9,8 C 10,6 C 6,4 km/h (2 Bft) 97,87 %
20.10.2019 18:52 10,6 C 10,6 C 10,0 C 95 % 1011,8 hPa 0,0 l/m 5,4 km/h (1 Bft) O 81 0 min 0,000 mm 0,0 UV-I 0 W/m 9,8 C 10,6 C 8,0 km/h (2 Bft) 96,00 %
20.10.2019 18:54 10,6 C 10,6 C 10,0 C 95 % 1011,8 hPa 0,0 l/m 6,7 km/h (2 Bft) O 84 0 min 0,000 mm 0,0 UV-I 0 W/m 9,8 C 10,4 C 11,3 km/h (2 Bft) 92,68 %
20.10.2019 18:56 10,6 C 10,6 C 10,0 C 95 % 1011,8 hPa 0,0 l/m 7,9 km/h (2 Bft) O-NO 71 0 min 0,000 mm 0,0 UV-I 0 W/m 9,8 C 9,5 C 11,3 km/h (2 Bft) 94,64 %
20.10.2019 18:58 10,6 C 10,6 C 10,0 C 95 % 1011,8 hPa 0,0 l/m 7,7 km/h (2 Bft) O-NO 63 0 min 0,000 mm 0,0 UV-I 0 W/m 9,8 C 9,7 C 11,3 km/h (2 Bft) 94,74 %
20.10.2019 19:00 10,6 C 10,6 C 10,6 C 95 % 1011,8 hPa 0,0 l/m 11,7 km/h (2 Bft) O-SO 107 0 min 0,000 mm 0,0 UV-I 0 W/m 9,8 C 7,4 C 14,5 km/h (3 Bft) 96,23 %
20.10.2019 19:02 10,6 C 10,6 C 10,6 C 96 % 1011,8 hPa 0,0 l/m 9,1 km/h (2 Bft) O-SO 107 0 min 0,000 mm 0,0 UV-I 0 W/m 10,0 C 8,8 C 12,9 km/h (3 Bft) 98,00 %
20.10.2019 19:04 10,6 C 10,6 C 10,6 C 96 % 1011,9 hPa 0,0 l/m 10,1 km/h (2 Bft) O 97 0 min 0,000 mm 0,0 UV-I 0 W/m 10,0 C 8,2 C 14,5 km/h (3 Bft) 94,87 %
20.10.2019 19:06 10,6 C 10,6 C 10,6 C 96 % 1012,0 hPa 0,0 l/m 11,8 km/h (2 Bft) O 99 0 min 0,000 mm 0,0 UV-I 0 W/m 10,0 C 7,3 C 16,1 km/h (3 Bft) 96,36 %
20.10.2019 19:08 10,6 C 10,6 C 10,6 C 96 % 1011,9 hPa 0,0 l/m 9,3 km/h (2 Bft) SO 126 0 min 0,000 mm 0,0 UV-I 0 W/m 10,0 C 8,7 C 12,9 km/h (3 Bft) 88,89 %
20.10.2019 19:10 10,6 C 10,6 C 10,6 C 96 % 1011,8 hPa 0,0 l/m 10,4 km/h (2 Bft) O 100 0 min 0,000 mm 0,0 UV-I 0 W/m 10,0 C 8,0 C 16,1 km/h (3 Bft) 95,59 %
20.10.2019 19:12 10,6 C 10,6 C 10,6 C 96 % 1011,8 hPa 0,0 l/m 10,2 km/h (2 Bft) O 91 0 min 0,000 mm 0,0 UV-I 0 W/m 10,0 C 8,1 C 14,5 km/h (3 Bft) 94,74 %
20.10.2019 19:14 10,6 C 10,6 C 10,6 C 96 % 1011,9 hPa 0,0 l/m 5,2 km/h (1 Bft) O-SO 103 0 min 0,000 mm 0,0 UV-I 0 W/m 10,0 C 10,6 C 8,0 km/h (2 Bft) 95,74 %
20.10.2019 19:16 10,6 C 10,6 C 10,6 C 96 % 1011,9 hPa 0,0 l/m 7,7 km/h (2 Bft) O 88 0 min 0,000 mm 0,0 UV-I 0 W/m 10,0 C 9,7 C 12,9 km/h (3 Bft) 92,00 %
20.10.2019 19:18 10,6 C 10,6 C 10,6 C 96 % 1011,9 hPa 0,0 l/m 7,2 km/h (2 Bft) O 88 0 min 0,000 mm 0,0 UV-I 0 W/m 10,0 C 10,0 C 12,9 km/h (3 Bft) 98,11 %
20.10.2019 19:20 10,6 C 10,6 C 10,6 C 96 % 1012,0 hPa 0,0 l/m 8,0 km/h (2 Bft) O-SO 105 0 min 0,000 mm 0,0 UV-I 0 W/m 10,0 C 9,5 C 14,5 km/h (3 Bft) 97,14 %
20.10.2019 19:22 10,6 C 10,6 C 10,6 C 96 % 1011,8 hPa 0,0 l/m 12,7 km/h (3 Bft) O 87 0 min 0,000 mm 0,0 UV-I 0 W/m 10,0 C 6,9 C 17,7 km/h (3 Bft) 98,21 %
20.10.2019 19:24 10,6 C 10,6 C 10,6 C 96 % 1011,8 hPa 0,0 l/m 13,8 km/h (3 Bft) O-SO 104 0 min 0,000 mm 0,0 UV-I 0 W/m 10,0 C 6,4 C 16,1 km/h (3 Bft) 97,87 %
20.10.2019 19:26 10,6 C 10,6 C 10,6 C 96 % 1011,9 hPa 0,0 l/m 10,6 km/h (2 Bft) O-SO 108 0 min 0,000 mm 0,0 UV-I 0 W/m 10,0 C 7,9 C 17,7 km/h (3 Bft) 97,37 %
20.10.2019 19:28 10,6 C 10,6 C 10,6 C 96 % 1012,0 hPa 0,0 l/m 8,1 km/h (2 Bft) O 96 0 min 0,000 mm 0,0 UV-I 0 W/m 10,0 C 9,4 C 12,9 km/h (3 Bft) 97,73 %
20.10.2019 19:30 10,6 C 10,6 C 10,6 C 96 % 1012,0 hPa 0,0 l/m 6,9 km/h (2 Bft) O-SO 117 0 min 0,000 mm 0,0 UV-I 0 W/m 10,0 C 10,3 C 11,3 km/h (2 Bft) 97,62 %
20.10.2019 19:32 10,6 C 10,6 C 10,6 C 96 % 1012,1 hPa 0,0 l/m 6,1 km/h (2 Bft) O 83 0 min 0,000 mm 0,0 UV-I 0 W/m 10,0 C 10,6 C 9,7 km/h (2 Bft) 95,31 %
20.10.2019 19:34 10,6 C 10,6 C 10,6 C 96 % 1012,0 hPa 0,0 l/m 6,2 km/h (2 Bft) O 101 0 min 0,000 mm 0,0 UV-I 0 W/m 10,0 C 10,6 C 9,7 km/h (2 Bft) 97,87 %
20.10.2019 19:36 10,6 C 10,6 C 10,6 C 96 % 1012,1 hPa 0,0 l/m 5,9 km/h (2 Bft) O 101 0 min 0,000 mm 0,0 UV-I 0 W/m 10,0 C 10,6 C 8,0 km/h (2 Bft) 97,56 %
20.10.2019 19:38 10,6 C 10,6 C 10,6 C 96 % 1012,2 hPa 0,0 l/m 4,8 km/h (1 Bft) O-NO 72 0 min 0,000 mm 0,0 UV-I 0 W/m 10,0 C 10,6 C 6,4 km/h (2 Bft) 100,00 %
20.10.2019 19:40 10,6 C 10,6 C 11,1 C 96 % 1012,1 hPa 0,0 l/m 6,5 km/h (2 Bft) O-SO 106 0 min 0,000 mm 0,0 UV-I 0 W/m 10,0 C 10,6 C 9,7 km/h (2 Bft) 100,00 %
20.10.2019 19:42 10,6 C 10,6 C 11,1 C 96 % 1012,1 hPa 0,0 l/m 5,1 km/h (1 Bft) O 80 0 min 0,000 mm 0,0 UV-I 0 W/m 10,0 C 10,6 C 8,0 km/h (2 Bft) 100,00 %
20.10.2019 19:44 10,6 C 10,6 C 11,1 C 96 % 1012,1 hPa 0,0 l/m 4,5 km/h (1 Bft) O 79 0 min 0,000 mm 0,0 UV-I 0 W/m 10,0 C 10,6 C 8,0 km/h (2 Bft) 100,00 %
20.10.2019 19:46 10,6 C 10,6 C 11,1 C 96 % 1012,1 hPa 0,0 l/m 6,6 km/h (2 Bft) O-NO 78 0 min 0,000 mm 0,0 UV-I 0 W/m 10,0 C 10,5 C 11,3 km/h (2 Bft) 100,00 %
20.10.2019 19:48 10,6 C 10,6 C 11,1 C 96 % 1012,1 hPa 0,0 l/m 6,2 km/h (2 Bft) O 83 0 min 0,000 mm 0,0 UV-I 0 W/m 10,0 C 10,6 C 11,3 km/h (2 Bft) 100,00 %
20.10.2019 19:50 10,6 C 10,6 C 11,1 C 96 % 1012,0 hPa 0,0 l/m 7,2 km/h (2 Bft) O 101 0 min 0,000 mm 0,0 UV-I 0 W/m 10,0 C 10,0 C 11,3 km/h (2 Bft) 100,00 %
20.10.2019 19:52 10,6 C 10,6 C 11,1 C 97 % 1012,0 hPa 0,0 l/m 8,1 km/h (2 Bft) O 95 0 min 0,000 mm 0,0 UV-I 0 W/m 10,1 C 9,4 C 12,9 km/h (3 Bft) 98,00 %
20.10.2019 19:54 10,6 C 10,6 C 11,1 C 97 % 1011,9 hPa 0,0 l/m 9,3 km/h (2 Bft) O 96 0 min 0,000 mm 0,0 UV-I 0 W/m 10,1 C 8,7 C 12,9 km/h (3 Bft) 100,00 %
20.10.2019 19:56 10,6 C 10,6 C 11,1 C 97 % 1011,9 hPa 0,0 l/m 9,4 km/h (2 Bft) O 90 0 min 0,000 mm 0,0 UV-I 0 W/m 10,1 C 8,6 C 12,9 km/h (3 Bft) 100,00 %
20.10.2019 19:58 10,6 C 10,6 C 11,1 C 97 % 1011,9 hPa 0,0 l/m 11,0 km/h (2 Bft) O 88 0 min 0,000 mm 0,0 UV-I 0 W/m 10,1 C 7,7 C 14,5 km/h (3 Bft) 100,00 %
20.10.2019 20:00 10,5 C 10,6 C 11,1 C 97 % 1011,9 hPa 0,0 l/m 8,6 km/h (2 Bft) O 98 0 min 0,000 mm 0,0 UV-I 0 W/m 10,0 C 9,0 C 12,9 km/h (3 Bft) 100,00 %
20.10.2019 20:02 10,5 C 10,6 C 11,1 C 97 % 1011,8 hPa 0,0 l/m 7,5 km/h (2 Bft) O 93 0 min 0,000 mm 0,0 UV-I 0 W/m 10,0 C 9,7 C 12,9 km/h (3 Bft) 98,00 %
20.10.2019 20:04 10,5 C 10,6 C 11,1 C 97 % 1011,8 hPa 0,0 l/m 8,4 km/h (2 Bft) O-NO 75 0 min 0,000 mm 0,0 UV-I 0 W/m 10,0 C 9,1 C 14,5 km/h (3 Bft) 100,00 %
20.10.2019 20:06 10,5 C 10,6 C 11,1 C 97 % 1011,7 hPa 0,0 l/m 8,6 km/h (2 Bft) O 80 0 min 0,000 mm 0,0 UV-I 0 W/m 10,0 C 9,0 C 11,3 km/h (2 Bft) 100,00 %
20.10.2019 20:08 10,6 C 10,6 C 11,1 C 97 % 1011,7 hPa 0,0 l/m 8,4 km/h (2 Bft) O-NO 74 0 min 0,000 mm 0,0 UV-I 0 W/m 10,1 C 9,2 C 12,9 km/h (3 Bft) 97,37 %
20.10.2019 20:10 10,5 C 10,6 C 11,1 C 97 % 1011,7 hPa 0,0 l/m 7,7 km/h (2 Bft) O 82 0 min 0,000 mm 0,0 UV-I 0 W/m 10,0 C 9,6 C 12,9 km/h (3 Bft) 100,00 %
20.10.2019 20:12 10,5 C 10,6 C 11,1 C 97 % 1011,7 hPa 0,0 l/m 8,2 km/h (2 Bft) O-NO 63 0 min 0,000 mm 0,0 UV-I 0 W/m 10,0 C 9,2 C 14,5 km/h (3 Bft) 100,00 %
20.10.2019 20:14 10,5 C 10,6 C 11,1 C 97 % 1011,8 hPa 0,0 l/m 7,6 km/h (2 Bft) NO 51 0 min 0,000 mm 0,0 UV-I 0 W/m 10,0 C 9,6 C 12,9 km/h (3 Bft) 100,00 %
20.10.2019 20:16 10,6 C 10,6 C 11,1 C 97 % 1011,9 hPa 0,0 l/m 8,5 km/h (2 Bft) O 81 0 min 0,000 mm 0,0 UV-I 0 W/m 10,1 C 9,2 C 12,9 km/h (3 Bft) 98,00 %
20.10.2019 20:18 10,5 C 10,6 C 11,1 C 97 % 1011,9 hPa 0,0 l/m 6,2 km/h (2 Bft) O-NO 61 0 min 0,000 mm 0,0 UV-I 0 W/m 10,0 C 10,5 C 9,7 km/h (2 Bft) 97,44 %
20.10.2019 20:20 10,5 C 10,6 C 11,1 C 97 % 1011,9 hPa 0,0 l/m 6,8 km/h (2 Bft) O-SO 103 0 min 0,000 mm 0,0 UV-I 0 W/m 10,0 C 10,2 C 14,5 km/h (3 Bft) 98,11 %
20.10.2019 20:22 10,5 C 10,6 C 11,1 C 97 % 1011,9 hPa 0,0 l/m 8,2 km/h (2 Bft) SO 137 0 min 0,000 mm 0,0 UV-I 0 W/m 10,0 C 9,2 C 12,9 km/h (3 Bft) 98,00 %
20.10.2019 20:24 10,5 C 10,6 C 11,1 C 97 % 1011,8 hPa 0,0 l/m 8,4 km/h (2 Bft) O-SO 107 0 min 0,000 mm 0,0 UV-I 0 W/m 10,0 C 9,1 C 12,9 km/h (3 Bft) 97,56 %
20.10.2019 20:26 10,5 C 10,6 C 11,1 C 97 % 1011,8 hPa 0,0 l/m 10,1 km/h (2 Bft) O-NO 68 0 min 0,000 mm 0,0 UV-I 0 W/m 10,0 C 8,1 C 14,5 km/h (3 Bft) 98,00 %
20.10.2019 20:28 10,5 C 10,6 C 11,1 C 97 % 1011,8 hPa 0,0 l/m 6,4 km/h (2 Bft) O 94 0 min 0,000 mm 0,0 UV-I 0 W/m 10,0 C 10,5 C 11,3 km/h (2 Bft) 97,73 %
20.10.2019 20:30 10,6 C 10,6 C 11,1 C 97 % 1011,7 hPa 0,0 l/m 9,9 km/h (2 Bft) O-NO 76 0 min 0,000 mm 0,0 UV-I 0 W/m 10,1 C 8,3 C 12,9 km/h (3 Bft) 97,56 %
20.10.2019 20:32 10,5 C 10,6 C 11,1 C 97 % 1011,7 hPa 0,0 l/m 12,8 km/h (3 Bft) O 90 0 min 0,000 mm 0,0 UV-I 0 W/m 10,0 C 6,7 C 19,3 km/h (3 Bft) 98,11 %
20.10.2019 20:34 10,5 C 10,6 C 11,1 C 97 % 1011,7 hPa 0,0 l/m 12,2 km/h (2 Bft) O-SO 103 0 min 0,000 mm 0,0 UV-I 0 W/m 10,0 C 7,0 C 19,3 km/h (3 Bft) 98,00 %
20.10.2019 20:36 10,5 C 10,6 C 11,1 C 97 % 1011,8 hPa 0,0 l/m 12,6 km/h (3 Bft) O 95 0 min 0,000 mm 0,0 UV-I 0 W/m 10,0 C 6,8 C 17,7 km/h (3 Bft) 97,87 %
20.10.2019 20:38 10,4 C 10,6 C 11,1 C 97 % 1011,8 hPa 0,0 l/m 10,0 km/h (2 Bft) O-NO 66 0 min 0,000 mm 0,0 UV-I 0 W/m 9,9 C 8,0 C 12,9 km/h (3 Bft) 97,73 %
20.10.2019 20:40 10,5 C 10,6 C 11,1 C 97 % 1011,8 hPa 0,0 l/m 10,7 km/h (2 Bft) O 90 0 min 0,000 mm 0,0 UV-I 0 W/m 10,0 C 7,8 C 14,5 km/h (3 Bft) 98,11 %
20.10.2019 20:42 10,5 C 10,6 C 11,1 C 97 % 1011,8 hPa 0,0 l/m 8,0 km/h (2 Bft) O 101 0 min 0,000 mm 0,0 UV-I 0 W/m 10,0 C 9,4 C 11,3 km/h (2 Bft) 100,00 %
20.10.2019 20:44 10,5 C 10,6 C 11,1 C 97 % 1011,9 hPa 0,0 l/m 4,9 km/h (1 Bft) O-SO 102 0 min 0,000 mm 0,0 UV-I 0 W/m 10,0 C 10,5 C 9,7 km/h (2 Bft) 97,56 %
20.10.2019 20:46 10,5 C 10,6 C 11,1 C 97 % 1011,9 hPa 0,0 l/m 5,2 km/h (1 Bft) O-NO 78 0 min 0,000 mm 0,0 UV-I 0 W/m 10,0 C 10,5 C 8,0 km/h (2 Bft) 100,00 %
20.10.2019 20:48 10,5 C 10,6 C 11,1 C 97 % 1011,9 hPa 0,0 l/m 7,0 km/h (2 Bft) O-NO 76 0 min 0,000 mm 0,0 UV-I 0 W/m 10,0 C 10,1 C 11,3 km/h (2 Bft) 98,36 %
20.10.2019 20:50 10,5 C 10,6 C 11,1 C 97 % 1011,8 hPa 0,0 l/m 9,2 km/h (2 Bft) O 95 0 min 0,000 mm 0,0 UV-I 0 W/m 10,0 C 8,6 C 14,5 km/h (3 Bft) 100,00 %
20.10.2019 20:52 10,5 C 10,6 C 11,1 C 97 % 1011,6 hPa 0,0 l/m 9,8 km/h (2 Bft) O 88 0 min 0,000 mm 0,0 UV-I 0 W/m 10,0 C 8,3 C 12,9 km/h (3 Bft) 96,36 %
20.10.2019 20:54 10,4 C 10,6 C 11,1 C 97 % 1011,6 hPa 0,0 l/m 8,6 km/h (2 Bft) O-NO 64 0 min 0,000 mm 0,0 UV-I 0 W/m 9,9 C 8,9 C 12,9 km/h (3 Bft) 100,00 %
20.10.2019 20:56 10,4 C 10,6 C 11,1 C 97 % 1011,7 hPa 0,0 l/m 10,4 km/h (2 Bft) O-NO 63 0 min 0,000 mm 0,0 UV-I 0 W/m 9,9 C 7,8 C 14,5 km/h (3 Bft) 100,00 %
20.10.2019 20:58 10,4 C 10,6 C 11,1 C 97 % 1011,8 hPa 0,0 l/m 8,3 km/h (2 Bft) NO 55 0 min 0,000 mm 0,0 UV-I 0 W/m 9,9 C 9,1 C 12,9 km/h (3 Bft) 100,00 %
20.10.2019 21:00 10,4 C 10,6 C 10,6 C 97 % 1011,9 hPa 0,0 l/m 7,2 km/h (2 Bft) O-NO 64 0 min 0,000 mm 0,0 UV-I 0 W/m 9,9 C 9,8 C 12,9 km/h (3 Bft) 100,00 %
20.10.2019 21:02 10,4 C 10,6 C 10,6 C 97 % 1011,9 hPa 0,0 l/m 11,8 km/h (2 Bft) O-NO 74 0 min 0,000 mm 0,0 UV-I 0 W/m 9,9 C 7,1 C 16,1 km/h (3 Bft) 98,00 %
20.10.2019 21:04 10,4 C 10,6 C 10,6 C 97 % 1011,8 hPa 0,0 l/m 11,1 km/h (2 Bft) O 97 0 min 0,000 mm 0,0 UV-I 0 W/m 9,9 C 7,4 C 16,1 km/h (3 Bft) 97,87 %
20.10.2019 21:06 10,4 C 10,6 C 10,6 C 97 % 1012,0 hPa 0,0 l/m 7,9 km/h (2 Bft) O-SO 109 0 min 0,000 mm 0,0 UV-I 0 W/m 9,9 C 9,3 C 12,9 km/h (3 Bft) 98,11 %
20.10.2019 21:08 10,4 C 10,6 C 10,6 C 97 % 1012,2 hPa 0,0 l/m 5,1 km/h (1 Bft) O-NO 74 0 min 0,000 mm 0,0 UV-I 0 W/m 9,9 C 10,4 C 8,0 km/h (2 Bft) 97,37 %
20.10.2019 21:10 10,4 C 10,6 C 10,6 C 97 % 1012,3 hPa 0,0 l/m 5,7 km/h (1 Bft) O-NO 64 0 min 0,000 mm 0,0 UV-I 0 W/m 9,9 C 10,4 C 8,0 km/h (2 Bft) 98,21 %
20.10.2019 21:12 10,4 C 10,6 C 10,6 C 97 % 1012,2 hPa 0,0 l/m 5,5 km/h (1 Bft) O 88 0 min 0,000 mm 0,0 UV-I 0 W/m 9,9 C 10,4 C 8,0 km/h (2 Bft) 95,74 %
20.10.2019 21:14 10,4 C 10,6 C 10,6 C 97 % 1012,2 hPa 0,0 l/m 6,4 km/h (2 Bft) O 91 0 min 0,000 mm 0,0 UV-I 0 W/m 9,9 C 10,4 C 11,3 km/h (2 Bft) 94,74 %
20.10.2019 21:16 10,4 C 10,6 C 11,1 C 97 % 1012,1 hPa 0,0 l/m 6,8 km/h (2 Bft) O 85 0 min 0,000 mm 0,0 UV-I 0 W/m 9,9 C 10,1 C 9,7 km/h (2 Bft) 97,87 %
20.10.2019 21:18 10,5 C 10,6 C 11,1 C 97 % 1012,2 hPa 0,0 l/m 5,1 km/h (1 Bft) O 93 0 min 0,000 mm 0,0 UV-I 0 W/m 10,0 C 10,5 C 9,7 km/h (2 Bft) 97,87 %
20.10.2019 21:20 10,5 C 10,6 C 11,1 C 97 % 1012,3 hPa 0,0 l/m 4,9 km/h (1 Bft) O-NO 61 0 min 0,000 mm 0,0 UV-I 0 W/m 10,0 C 10,5 C 9,7 km/h (2 Bft) 95,74 %
20.10.2019 21:22 10,5 C 10,6 C 10,6 C 97 % 1012,3 hPa 0,0 l/m 8,1 km/h (2 Bft) O 93 0 min 0,000 mm 0,0 UV-I 0 W/m 10,0 C 9,3 C 11,3 km/h (2 Bft) 97,87 %
20.10.2019 21:24 10,4 C 10,6 C 10,6 C 97 % 1012,3 hPa 0,0 l/m 10,1 km/h (2 Bft) O 99 0 min 0,000 mm 0,0 UV-I 0 W/m 9,9 C 8,0 C 12,9 km/h (3 Bft) 97,73 %
20.10.2019 21:26 10,4 C 10,6 C 10,6 C 97 % 1012,3 hPa 0,0 l/m 5,3 km/h (1 Bft) SO 128 0 min 0,000 mm 0,0 UV-I 0 W/m 9,9 C 10,4 C 11,3 km/h (2 Bft) 98,00 %
20.10.2019 21:28 10,4 C 10,6 C 10,6 C 97 % 1012,3 hPa 0,0 l/m 4,3 km/h (1 Bft) O 96 0 min 0,000 mm 0,0 UV-I 0 W/m 9,9 C 10,4 C 6,4 km/h (2 Bft) 94,34 %
20.10.2019 21:30 10,4 C 10,6 C 11,1 C 97 % 1012,2 hPa 0,0 l/m 5,6 km/h (1 Bft) O-SO 114 0 min 0,000 mm 0,0 UV-I 0 W/m 9,9 C 10,4 C 8,0 km/h (2 Bft) 97,44 %
20.10.2019 21:32 10,4 C 10,6 C 11,1 C 97 % 1012,2 hPa 0,0 l/m 6,4 km/h (2 Bft) SO 128 0 min 0,000 mm 0,0 UV-I 0 W/m 9,9 C 10,4 C 11,3 km/h (2 Bft) 98,08 %
20.10.2019 21:34 10,5 C 10,6 C 11,1 C 97 % 1012,2 hPa 0,0 l/m 5,4 km/h (1 Bft) O 98 0 min 0,000 mm 0,0 UV-I 0 W/m 10,0 C 10,5 C 11,3 km/h (2 Bft) 97,78 %
20.10.2019 21:36 10,4 C 10,6 C 11,1 C 97 % 1012,2 hPa 0,0 l/m 9,2 km/h (2 Bft) O 96 0 min 0,000 mm 0,0 UV-I 0 W/m 9,9 C 8,5 C 11,3 km/h (2 Bft) 94,74 %
20.10.2019 21:38 10,4 C 10,6 C 10,6 C 97 % 1012,2 hPa 0,0 l/m 6,8 km/h (2 Bft) SO 136 0 min 0,000 mm 0,0 UV-I 0 W/m 9,9 C 10,1 C 14,5 km/h (3 Bft) 98,31 %
20.10.2019 21:40 10,4 C 10,6 C 10,6 C 97 % 1012,3 hPa 0,0 l/m 6,0 km/h (2 Bft) O-NO 75 0 min 0,000 mm 0,0 UV-I 0 W/m 9,9 C 10,4 C 11,3 km/h (2 Bft) 96,55 %
20.10.2019 21:42 10,4 C 10,6 C 10,6 C 97 % 1012,4 hPa 0,0 l/m 4,7 km/h (1 Bft) O 100 0 min 0,000 mm 0,0 UV-I 0 W/m 9,9 C 10,4 C 6,4 km/h (2 Bft) 96,92 %
20.10.2019 21:44 10,4 C 10,6 C 11,1 C 97 % 1012,4 hPa 0,0 l/m 3,9 km/h (1 Bft) O 100 0 min 0,000 mm 0,0 UV-I 0 W/m 9,9 C 10,4 C 6,4 km/h (2 Bft) 97,87 %
20.10.2019 21:46 10,4 C 10,6 C 11,1 C 97 % 1012,3 hPa 0,0 l/m 3,6 km/h (1 Bft) O 91 0 min 0,000 mm 0,0 UV-I 0 W/m 9,9 C 10,4 C 6,4 km/h (2 Bft) 95,74 %
20.10.2019 21:48 10,4 C 10,6 C 11,1 C 97 % 1012,3 hPa 0,0 l/m 5,5 km/h (1 Bft) O-NO 78 0 min 0,000 mm 0,0 UV-I 0 W/m 9,9 C 10,4 C 8,0 km/h (2 Bft) 97,87 %
20.10.2019 21:50 10,5 C 10,6 C 11,1 C 97 % 1012,3 hPa 0,0 l/m 6,7 km/h (2 Bft) O 90 0 min 0,000 mm 0,0 UV-I 0 W/m 10,0 C 10,3 C 11,3 km/h (2 Bft) 97,73 %
20.10.2019 21:52 10,4 C 10,6 C 10,6 C 97 % 1012,2 hPa 0,0 l/m 5,5 km/h (1 Bft) O-NO 76 0 min 0,000 mm 0,0 UV-I 0 W/m 9,9 C 10,4 C 8,0 km/h (2 Bft) 95,83 %
20.10.2019 21:54 10,4 C 10,6 C 10,6 C 97 % 1012,2 hPa 0,0 l/m 7,9 km/h (2 Bft) O 96 0 min 0,000 mm 0,0 UV-I 0 W/m 9,9 C 9,3 C 12,9 km/h (3 Bft) 98,51 %
20.10.2019 21:56 10,3 C 10,6 C 10,6 C 97 % 1012,2 hPa 0,0 l/m 9,3 km/h (2 Bft) O-NO 73 0 min 0,000 mm 0,0 UV-I 0 W/m 9,8 C 8,3 C 14,5 km/h (3 Bft) 97,87 %
20.10.2019 21:58 10,3 C 10,6 C 10,6 C 97 % 1012,2 hPa 0,0 l/m 8,9 km/h (2 Bft) O 85 0 min 0,000 mm 0,0 UV-I 0 W/m 9,8 C 8,6 C 12,9 km/h (3 Bft) 94,34 %
20.10.2019 22:00 10,3 C 10,6 C 10,6 C 97 % 1012,2 hPa 0,0 l/m 7,0 km/h (2 Bft) O 92 0 min 0,000 mm 0,0 UV-I 0 W/m 9,8 C 9,9 C 9,7 km/h (2 Bft) 97,56 %
20.10.2019 22:02 10,3 C 10,6 C 10,6 C 97 % 1012,3 hPa 0,0 l/m 5,5 km/h (1 Bft) O-SO 110 0 min 0,000 mm 0,0 UV-I 0 W/m 9,8 C 10,3 C 9,7 km/h (2 Bft) 93,62 %
20.10.2019 22:04 10,3 C 10,6 C 10,6 C 97 % 1012,3 hPa 0,0 l/m 5,3 km/h (1 Bft) O-NO 78 0 min 0,000 mm 0,0 UV-I 0 W/m 9,8 C 10,3 C 6,4 km/h (2 Bft) 98,00 %
20.10.2019 22:06 10,3 C 10,6 C 10,6 C 97 % 1012,4 hPa 0,0 l/m 4,1 km/h (1 Bft) O-SO 117 0 min 0,000 mm 0,0 UV-I 0 W/m 9,8 C 10,3 C 6,4 km/h (2 Bft) 96,00 %
20.10.2019 22:08 10,3 C 10,6 C 10,6 C 97 % 1012,4 hPa 0,0 l/m 4,9 km/h (1 Bft) O-SO 107 0 min 0,000 mm 0,0 UV-I 0 W/m 9,8 C 10,3 C 6,4 km/h (2 Bft) 97,87 %
20.10.2019 22:10 10,3 C 10,6 C 10,6 C 97 % 1012,3 hPa 0,0 l/m 5,3 km/h (1 Bft) O-SO 118 0 min 0,000 mm 0,0 UV-I 0 W/m 9,8 C 10,3 C 9,7 km/h (2 Bft) 97,44 %
20.10.2019 22:12 10,3 C 10,6 C 10,6 C 97 % 1012,4 hPa 0,0 l/m 5,1 km/h (1 Bft) O-SO 111 0 min 0,000 mm 0,0 UV-I 0 W/m 9,8 C 10,3 C 9,7 km/h (2 Bft) 98,00 %
20.10.2019 22:14 10,3 C 10,6 C 10,6 C 97 % 1012,5 hPa 0,0 l/m 1,7 km/h (1 Bft) O-SO 111 0 min 0,000 mm 0,0 UV-I 0 W/m 9,8 C 10,3 C 4,8 km/h (1 Bft) 97,87 %
20.10.2019 22:16 10,3 C 10,6 C 10,6 C 97 % 1012,6 hPa 0,0 l/m 2,9 km/h (1 Bft) O 87 0 min 0,000 mm 0,0 UV-I 0 W/m 9,8 C 10,3 C 6,4 km/h (2 Bft) 97,87 %
20.10.2019 22:18 10,3 C 10,6 C 10,6 C 97 % 1012,6 hPa 0,0 l/m 4,6 km/h (1 Bft) O-SO 115 0 min 0,000 mm 0,0 UV-I 0 W/m 9,8 C 10,3 C 9,7 km/h (2 Bft) 96,00 %
20.10.2019 22:20 10,3 C 10,6 C 10,6 C 97 % 1012,6 hPa 0,0 l/m 5,9 km/h (2 Bft) O-SO 104 0 min 0,000 mm 0,0 UV-I 0 W/m 9,8 C 10,3 C 9,7 km/h (2 Bft) 97,87 %
20.10.2019 22:22 10,3 C 10,6 C 10,6 C 97 % 1012,6 hPa 0,0 l/m 7,0 km/h (2 Bft) O 97 0 min 0,000 mm 0,0 UV-I 0 W/m 9,8 C 9,9 C 11,3 km/h (2 Bft) 94,74 %
20.10.2019 22:24 10,3 C 10,6 C 10,6 C 97 % 1012,6 hPa 0,0 l/m 5,6 km/h (1 Bft) O 96 0 min 0,000 mm 0,0 UV-I 0 W/m 9,8 C 10,3 C 9,7 km/h (2 Bft) 98,21 %
20.10.2019 22:26 10,3 C 10,6 C 10,6 C 97 % 1012,6 hPa 0,0 l/m 6,6 km/h (2 Bft) O-NO 78 0 min 0,000 mm 0,0 UV-I 0 W/m 9,8 C 10,2 C 11,3 km/h (2 Bft) 97,56 %
20.10.2019 22:28 10,3 C 10,6 C 10,6 C 97 % 1012,5 hPa 0,0 l/m 6,9 km/h (2 Bft) O 94 0 min 0,000 mm 0,0 UV-I 0 W/m 9,8 C 9,9 C 11,3 km/h (2 Bft) 96,23 %
20.10.2019 22:30 10,3 C 10,6 C 10,6 C 97 % 1012,5 hPa 0,0 l/m 5,4 km/h (1 Bft) SO 132 0 min 0,000 mm 0,0 UV-I 0 W/m 9,8 C 10,3 C 9,7 km/h (2 Bft) 97,56 %
20.10.2019 22:32 10,3 C 10,6 C 10,6 C 97 % 1012,6 hPa 0,0 l/m 3,0 km/h (1 Bft) O 93 0 min 0,000 mm 0,0 UV-I 0 W/m 9,8 C 10,3 C 4,8 km/h (1 Bft) 98,11 %
20.10.2019 22:34 10,3 C 10,6 C 10,6 C 97 % 1012,6 hPa 0,0 l/m 6,5 km/h (2 Bft) O-NO 63 0 min 0,000 mm 0,0 UV-I 0 W/m 9,8 C 10,3 C 9,7 km/h (2 Bft) 97,87 %
20.10.2019 22:36 10,3 C 10,6 C 10,6 C 97 % 1012,6 hPa 0,0 l/m 5,3 km/h (1 Bft) O 86 0 min 0,000 mm 0,0 UV-I 0 W/m 9,8 C 10,3 C 9,7 km/h (2 Bft) 93,62 %
20.10.2019 22:38 10,3 C 10,6 C 10,6 C 97 % 1012,5 hPa 0,0 l/m 7,0 km/h (2 Bft) O 101 0 min 0,000 mm 0,0 UV-I 0 W/m 9,8 C 9,9 C 11,3 km/h (2 Bft) 97,56 %
20.10.2019 22:40 10,3 C 10,6 C 10,6 C 97 % 1012,6 hPa 0,0 l/m 4,2 km/h (1 Bft) O 95 0 min 0,000 mm 0,0 UV-I 0 W/m 9,8 C 10,3 C 9,7 km/h (2 Bft) 98,00 %
20.10.2019 22:42 10,3 C 10,6 C 10,6 C 97 % 1012,7 hPa 0,0 l/m 2,9 km/h (1 Bft) O-NO 62 0 min 0,000 mm 0,0 UV-I 0 W/m 9,8 C 10,3 C 4,8 km/h (1 Bft) 95,83 %
20.10.2019 22:44 10,3 C 10,6 C 10,6 C 97 % 1012,8 hPa 0,0 l/m 8,4 km/h (2 Bft) O-NO 59 0 min 0,000 mm 0,0 UV-I 0 W/m 9,8 C 8,9 C 12,9 km/h (3 Bft) 98,57 %
20.10.2019 22:46 10,2 C 10,6 C 10,6 C 97 % 1012,7 hPa 0,0 l/m 6,0 km/h (2 Bft) O-NO 71 0 min 0,000 mm 0,0 UV-I 0 W/m 9,7 C 10,2 C 8,0 km/h (2 Bft) 97,87 %
20.10.2019 22:48 10,2 C 10,6 C 10,6 C 97 % 1012,7 hPa 0,0 l/m 6,5 km/h (2 Bft) O-NO 72 0 min 0,000 mm 0,0 UV-I 0 W/m 9,7 C 10,2 C 8,0 km/h (2 Bft) 100,00 %
20.10.2019 22:50 10,2 C 10,6 C 10,6 C 97 % 1012,7 hPa 0,0 l/m 5,5 km/h (1 Bft) O-NO 70 0 min 0,000 mm 0,0 UV-I 0 W/m 9,7 C 10,2 C 6,4 km/h (2 Bft) 96,43 %
20.10.2019 22:52 10,2 C 10,6 C 10,6 C 97 % 1012,8 hPa 0,0 l/m 5,6 km/h (1 Bft) O-NO 78 0 min 0,000 mm 0,0 UV-I 0 W/m 9,7 C 10,2 C 8,0 km/h (2 Bft) 98,00 %
20.10.2019 22:54 10,2 C 10,6 C 10,6 C 97 % 1012,8 hPa 0,0 l/m 6,4 km/h (2 Bft) O 90 0 min 0,000 mm 0,0 UV-I 0 W/m 9,7 C 10,2 C 8,0 km/h (2 Bft) 97,37 %
20.10.2019 22:56 10,1 C 10,6 C 10,6 C 97 % 1012,6 hPa 0,0 l/m 5,5 km/h (1 Bft) O 93 0 min 0,000 mm 0,0 UV-I 0 W/m 9,6 C 10,1 C 8,0 km/h (2 Bft) 98,00 %
20.10.2019 22:58 10,1 C 10,6 C 10,6 C 97 % 1012,6 hPa 0,0 l/m 5,7 km/h (1 Bft) O 88 0 min 0,000 mm 0,0 UV-I 0 W/m 9,6 C 10,1 C 8,0 km/h (2 Bft) 98,11 %
20.10.2019 23:00 10,1 C 10,6 C 10,6 C 97 % 1012,7 hPa 0,0 l/m 6,0 km/h (2 Bft) NO 55 0 min 0,000 mm 0,0 UV-I 0 W/m 9,6 C 10,1 C 9,7 km/h (2 Bft) 95,74 %
20.10.2019 23:02 10,1 C 10,6 C 10,6 C 97 % 1012,7 hPa 0,0 l/m 5,7 km/h (1 Bft) O 82 0 min 0,000 mm 0,0 UV-I 0 W/m 9,6 C 10,1 C 8,0 km/h (2 Bft) 97,37 %
20.10.2019 23:04 10,1 C 10,6 C 10,6 C 97 % 1012,7 hPa 0,0 l/m 6,5 km/h (2 Bft) O-NO 72 0 min 0,000 mm 0,0 UV-I 0 W/m 9,6 C 10,1 C 11,3 km/h (2 Bft) 96,23 %
20.10.2019 23:06 10,1 C 10,6 C 10,6 C 97 % 1012,7 hPa 0,0 l/m 5,0 km/h (1 Bft) O 86 0 min 0,000 mm 0,0 UV-I 0 W/m 9,6 C 10,1 C 8,0 km/h (2 Bft) 92,68 %
20.10.2019 23:08 10,1 C 10,6 C 10,6 C 97 % 1012,8 hPa 0,0 l/m 5,4 km/h (1 Bft) O 92 0 min 0,000 mm 0,0 UV-I 0 W/m 9,6 C 10,1 C 9,7 km/h (2 Bft) 94,34 %
20.10.2019 23:10 10,1 C 10,6 C 10,6 C 97 % 1012,8 hPa 0,0 l/m 6,3 km/h (2 Bft) O 90 0 min 0,000 mm 0,0 UV-I 0 W/m 9,6 C 10,1 C 9,7 km/h (2 Bft) 94,29 %
20.10.2019 23:12 10,1 C 10,6 C 10,6 C 97 % 1012,9 hPa 0,0 l/m 4,6 km/h (1 Bft) O-NO 78 0 min 0,000 mm 0,0 UV-I 0 W/m 9,6 C 10,1 C 6,4 km/h (2 Bft) 96,23 %
20.10.2019 23:14 10,1 C 10,6 C 10,6 C 97 % 1012,9 hPa 0,0 l/m 3,9 km/h (1 Bft) O 88 0 min 0,000 mm 0,0 UV-I 0 W/m 9,6 C 10,1 C 6,4 km/h (2 Bft) 97,56 %
20.10.2019 23:16 10,1 C 10,6 C 10,6 C 97 % 1013,0 hPa 0,0 l/m 6,7 km/h (2 Bft) O 94 0 min 0,000 mm 0,0 UV-I 0 W/m 9,6 C 9,9 C 11,3 km/h (2 Bft) 96,61 %
20.10.2019 23:19 10,1 C 10,6 C 10,6 C 97 % 1013,1 hPa 0,0 l/m 2,1 km/h (1 Bft) O-SO 104 0 min 0,000 mm 0,0 UV-I 0 W/m 9,6 C 10,1 C 6,4 km/h (2 Bft) 94,12 %
20.10.2019 23:20 10,1 C 10,6 C 10,6 C 97 % 1013,1 hPa 0,0 l/m 4,2 km/h (1 Bft) O-SO 104 0 min 0,000 mm 0,0 UV-I 0 W/m 9,6 C 10,1 C 4,8 km/h (1 Bft) 92,31 %
20.10.2019 23:22 10,1 C 10,6 C 10,6 C 97 % 1013,1 hPa 0,0 l/m 4,9 km/h (1 Bft) O-SO 108 0 min 0,000 mm 0,0 UV-I 0 W/m 9,6 C 10,1 C 6,4 km/h (2 Bft) 97,56 %
20.10.2019 23:24 10,1 C 10,6 C 10,6 C 97 % 1013,0 hPa 0,0 l/m 5,1 km/h (1 Bft) O 89 0 min 0,000 mm 0,0 UV-I 0 W/m 9,6 C 10,1 C 9,7 km/h (2 Bft) 94,00 %
20.10.2019 23:26 10,1 C 10,6 C 10,6 C 97 % 1012,9 hPa 0,0 l/m 5,4 km/h (1 Bft) O 92 0 min 0,000 mm 0,0 UV-I 0 W/m 9,6 C 10,1 C 9,7 km/h (2 Bft) 95,74 %
20.10.2019 23:29 10,1 C 10,6 C 10,6 C 98 % 1012,9 hPa 0,0 l/m 6,9 km/h (2 Bft) O-NO 69 0 min 0,000 mm 0,0 UV-I 0 W/m 9,8 C 9,7 C 11,3 km/h (2 Bft) 97,06 %
20.10.2019 23:30 10,1 C 10,6 C 10,6 C 97 % 1012,9 hPa 0,0 l/m 5,4 km/h (1 Bft) O-NO 75 0 min 0,000 mm 0,0 UV-I 0 W/m 9,6 C 10,1 C 6,4 km/h (2 Bft) 95,83 %
20.10.2019 23:32 10,1 C 10,6 C 10,6 C 98 % 1012,9 hPa 0,0 l/m 5,4 km/h (1 Bft) O 86 0 min 0,000 mm 0,0 UV-I 0 W/m 9,8 C 10,1 C 9,7 km/h (2 Bft) 98,00 %
20.10.2019 23:34 10,1 C 10,6 C 10,6 C 98 % 1012,9 hPa 0,0 l/m 8,2 km/h (2 Bft) O-SO 111 0 min 0,000 mm 0,0 UV-I 0 W/m 9,8 C 8,8 C 12,9 km/h (3 Bft) 97,37 %
20.10.2019 23:36 10,1 C 10,6 C 10,6 C 98 % 1012,9 hPa 0,0 l/m 5,1 km/h (1 Bft) O 100 0 min 0,000 mm 0,0 UV-I 0 W/m 9,8 C 10,1 C 9,7 km/h (2 Bft) 96,43 %
20.10.2019 23:39 10,1 C 10,6 C 10,6 C 98 % 1013,1 hPa 0,0 l/m 4,1 km/h (1 Bft) O 90 0 min 0,000 mm 0,0 UV-I 0 W/m 9,8 C 10,1 C 9,7 km/h (2 Bft) 100,00 %
20.10.2019 23:40 10,1 C 10,6 C 10,6 C 98 % 1013,1 hPa 0,0 l/m 5,0 km/h (1 Bft) O-NO 69 0 min 0,000 mm 0,0 UV-I 0 W/m 9,8 C 10,1 C 8,0 km/h (2 Bft) 100,00 %
20.10.2019 23:42 10,1 C 10,6 C 10,6 C 98 % 1013,1 hPa 0,0 l/m 5,4 km/h (1 Bft) O 83 0 min 0,000 mm 0,0 UV-I 0 W/m 9,8 C 10,1 C 8,0 km/h (2 Bft) 100,00 %
20.10.2019 23:44 10,1 C 10,6 C 10,6 C 98 % 1013,1 hPa 0,0 l/m 3,4 km/h (1 Bft) O 84 0 min 0,000 mm 0,0 UV-I 0 W/m 9,8 C 10,1 C 6,4 km/h (2 Bft) 100,00 %
20.10.2019 23:46 10,1 C 10,6 C 10,6 C 98 % 1013,2 hPa 0,0 l/m 3,0 km/h (1 Bft) O-NO 74 0 min 0,000 mm 0,0 UV-I 0 W/m 9,8 C 10,1 C 4,8 km/h (1 Bft) 98,00 %
20.10.2019 23:49 10,1 C 10,6 C 10,6 C 98 % 1013,0 hPa 0,0 l/m 7,3 km/h (2 Bft) O-SO 115 0 min 0,000 mm 0,0 UV-I 0 W/m 9,8 C 9,4 C 14,5 km/h (3 Bft) 100,00 %
20.10.2019 23:50 10,1 C 10,6 C 10,6 C 98 % 1013,0 hPa 0,0 l/m 8,2 km/h (2 Bft) O 98 0 min 0,000 mm 0,0 UV-I 0 W/m 9,8 C 8,8 C 11,3 km/h (2 Bft) 100,00 %
20.10.2019 23:52 10,1 C 10,6 C 10,6 C 98 % 1013,0 hPa 0,0 l/m 5,7 km/h (1 Bft) O 79 0 min 0,000 mm 0,0 UV-I 0 W/m 9,8 C 10,1 C 8,0 km/h (2 Bft) 100,00 %
20.10.2019 23:54 10,1 C 10,6 C 10,6 C 98 % 1013,1 hPa 0,0 l/m 7,3 km/h (2 Bft) O 86 0 min 0,000 mm 0,0 UV-I 0 W/m 9,8 C 9,4 C 12,9 km/h (3 Bft) 100,00 %
20.10.2019 23:56 10,1 C 10,6 C 10,6 C 98 % 1013,0 hPa 0,0 l/m 6,4 km/h (2 Bft) O 98 0 min 0,000 mm 0,0 UV-I 0 W/m 9,8 C 10,1 C 9,7 km/h (2 Bft) 100,00 %
20.10.2019 23:59 10,1 C 10,6 C 10,6 C 98 % 1012,9 hPa 0,0 l/m 8,8 km/h (2 Bft) O 98 0 min 0,000 mm 0,0 UV-I 0 W/m 9,8 C 8,4 C 14,5 km/h (3 Bft) 100,00 %
_ Min-Zeit 08:20 00:00 18:22 15:46 03:40 - 22:14 - - - - - - 08:20 03:16 04:32 05:04
Minimum _ 9,1 C 10,6 C 9,4 C 89 % 1010,5 hPa - 1,7 km/h (1 Bft) - - - - - - 8,8 C 4,4 C 4,8 km/h (1 Bft) 86,84 %
_ Max-Zeit 16:19 00:00 14:52 04:48 23:46 00:00 03:16 - - 14:48 16:02 14:48 14:52 16:19 16:16 00:20 00:02
Maximum _ 13,6 C 10,6 C 16,7 C 98 % 1013,2 hPa 0,0 l/m 16,4 km/h
O (3 Bft)
- - 2 min 0,127 mm 1,1 UV-I 355 W/m 11,8 C 13,5 C 20,9 km/h
O (4 Bft)
100,00 %
Durchschnitt _ 10,4 C 10,6 C 11,3 C 96 % 1011,7 hPa #0,0 l/m 8,3 km/h (2 Bft) O - #1:14 h #0,559 mm 0,7 UV-I 104 W/m 9,8 C 8,9 C 12,7 km/h (3 Bft) 97,22 %